Time,TemperatureF,DewpointF,PressureIn,WindDirection,WindDirectionDegrees,WindSpeedMPH,WindSpeedGustMPH,Humidity,HourlyPrecipIn,Conditions,Clouds,dailyrainin,SolarRadiationWatts/m^2,SoftwareType,DateUTC
2013-12-11 00:00:00,50.4,14.5,29.65,WNW,294,11.5,13.9,23,-99.99,,,0.00,0,rob ver 1B,2013-12-11 07:00:00,
2013-12-11 00:01:00,50.4,14.4,29.62,WNW,293,10.7,13.3,23,-99.99,,,0.00,0,rob ver 1B,2013-12-11 07:01:00,
2013-12-11 00:02:00,50.4,14.5,29.62,WNW,293,9.8,12.5,23,-99.99,,,0.00,0,rob ver 1B,2013-12-11 07:02:00,
2013-12-11 00:03:00,47.0,6.2,29.62,WNW,298,16.8,20.0,18,-99.99,,,0.00,0,rob ver 1A,2013-12-11 07:03:00,
2013-12-11 00:04:00,50.3,14.4,29.65,WNW,296,11.4,13.7,23,-99.99,,,0.00,0,rob ver 1B,2013-12-11 07:04:00,
2013-12-11 00:05:00,50.4,14.5,29.62,WNW,295,10.8,14.5,23,-99.99,,,0.00,0,rob ver 1B,2013-12-11 07:05:00,
2013-12-11 00:06:00,50.4,14.5,29.65,WNW,296,11.6,14.0,23,-99.99,,,0.00,0,rob ver 1B,2013-12-11 07:06:00,
2013-12-11 00:07:00,50.4,14.5,29.65,WNW,296,11.2,13.8,23,-99.99,,,0.00,0,rob ver 1B,2013-12-11 07:07:00,
2013-12-11 00:08:00,47.1,6.4,29.65,WNW,299,12.4,16.3,18,-99.99,,,0.00,0,rob ver 1A,2013-12-11 07:08:00,
2013-12-11 00:09:00,50.5,14.4,29.62,WNW,294,11.9,13.9,23,-99.99,,,0.00,0,rob ver 1B,2013-12-11 07:09:00,
2013-12-11 00:10:00,50.5,14.5,29.65,WNW,293,12.2,14.3,23,-99.99,,,0.00,0,rob ver 1B,2013-12-11 07:10:00,
2013-12-11 00:11:00,50.5,14.4,29.62,WNW,294,11.9,14.5,23,-99.99,,,0.00,0,rob ver 1B,2013-12-11 07:11:00,
2013-12-11 00:12:00,50.5,14.5,29.65,WNW,294,11.5,13.9,23,-99.99,,,0.00,0,rob ver 1B,2013-12-11 07:12:00,
2013-12-11 00:13:00,47.3,6.0,29.65,WNW,299,14.1,16.8,18,-99.99,,,0.00,0,rob ver 1A,2013-12-11 07:13:00,
2013-12-11 00:14:00,50.5,14.5,29.65,WNW,292,11.6,14.4,23,-99.99,,,0.00,0,rob ver 1B,2013-12-11 07:14:00,
2013-12-11 00:15:00,50.5,14.6,29.62,WNW,293,11.1,12.5,23,-99.99,,,0.00,0,rob ver 1B,2013-12-11 07:15:00,
2013-12-11 00:16:00,50.4,14.6,29.65,WNW,294,11.0,13.2,23,-99.99,,,0.00,0,rob ver 1B,2013-12-11 07:16:00,
2013-12-11 00:17:00,50.4,14.5,29.65,WNW,292,11.6,14.8,23,-99.99,,,0.00,0,rob ver 1B,2013-12-11 07:17:00,
2013-12-11 00:18:00,47.5,6.0,29.65,WNW,301,13.0,17.0,17,-99.99,,,0.00,0,rob ver 1A,2013-12-11 07:18:00,
2013-12-11 00:19:00,50.4,14.6,29.62,WNW,294,11.1,14.2,23,-99.99,,,0.00,0,rob ver 1B,2013-12-11 07:19:00,
2013-12-11 00:20:00,50.3,14.6,29.65,WNW,297,11.7,13.6,23,-99.99,,,0.00,0,rob ver 1B,2013-12-11 07:20:00,
2013-12-11 00:21:00,50.4,14.6,29.65,WNW,294,11.3,13.6,23,-99.99,,,0.00,0,rob ver 1B,2013-12-11 07:21:00,
2013-12-11 00:22:00,50.4,14.7,29.65,WNW,291,10.1,12.1,23,-99.99,,,0.00,0,rob ver 1B,2013-12-11 07:22:00,
2013-12-11 00:23:00,47.6,6.1,29.62,WNW,303,12.9,15.1,17,-99.99,,,0.00,0,rob ver 1A,2013-12-11 07:23:00,
2013-12-11 00:24:00,50.2,14.8,29.65,WNW,297,10.6,13.2,23,-99.99,,,0.00,0,rob ver 1B,2013-12-11 07:24:00,
2013-12-11 00:25:00,50.2,14.7,29.65,WNW,297,10.5,12.8,23,-99.99,,,0.00,0,rob ver 1B,2013-12-11 07:25:00,
2013-12-11 00:26:00,50.3,14.6,29.65,WNW,299,11.1,13.5,23,-99.99,,,0.00,0,rob ver 1B,2013-12-11 07:26:00,
2013-12-11 00:27:00,50.3,14.6,29.65,WNW,297,10.8,12.6,23,-99.99,,,0.00,0,rob ver 1B,2013-12-11 07:27:00,
2013-12-11 00:28:00,47.5,6.4,29.62,NW,307,12.6,15.0,18,-99.99,,,0.00,0,rob ver 1A,2013-12-11 07:28:00,
2013-12-11 00:29:00,50.2,14.7,29.65,WNW,302,10.6,12.9,23,-99.99,,,0.00,0,rob ver 1B,2013-12-11 07:29:00,
2013-12-11 00:30:00,50.3,14.6,29.65,WNW,303,10.7,12.0,23,-99.99,,,0.00,0,rob ver 1B,2013-12-11 07:30:00,
2013-12-11 00:31:00,50.4,14.6,29.65,WNW,301,10.7,12.7,23,-99.99,,,0.00,0,rob ver 1B,2013-12-11 07:31:00,
2013-12-11 00:32:00,50.4,14.7,29.65,NW,305,10.2,12.1,23,-99.99,,,0.00,0,rob ver 1B,2013-12-11 07:32:00,
2013-12-11 00:33:00,47.3,6.8,29.62,NW,304,10.9,13.6,18,-99.99,,,0.00,0,rob ver 1A,2013-12-11 07:33:00,
2013-12-11 00:34:00,50.5,14.6,29.65,NW,307,10.8,12.6,23,-99.99,,,0.00,0,rob ver 1B,2013-12-11 07:34:00,
2013-12-11 00:35:00,50.6,14.5,29.65,NW,304,11.0,13.9,23,-99.99,,,0.00,0,rob ver 1B,2013-12-11 07:35:00,
2013-12-11 00:36:00,50.7,14.5,29.65,NW,304,9.9,12.0,23,-99.99,,,0.00,0,rob ver 1B,2013-12-11 07:36:00,
2013-12-11 00:37:00,50.7,14.5,29.65,NW,304,10.9,12.9,23,-99.99,,,0.00,0,rob ver 1B,2013-12-11 07:37:00,
2013-12-11 00:38:00,47.2,7.1,29.62,WNW,297,10.0,12.7,18,-99.99,,,0.00,0,rob ver 1A,2013-12-11 07:38:00,
2013-12-11 00:39:00,50.8,14.6,29.65,NW,305,10.3,12.3,23,-99.99,,,0.00,0,rob ver 1B,2013-12-11 07:39:00,
2013-12-11 00:40:00,50.8,14.5,29.65,NW,306,10.6,12.1,23,-99.99,,,0.00,0,rob ver 1B,2013-12-11 07:40:00,
2013-12-11 00:41:00,50.8,14.6,29.65,NW,307,9.8,12.4,23,-99.99,,,0.00,0,rob ver 1B,2013-12-11 07:41:00,
2013-12-11 00:42:00,50.8,14.5,29.65,NW,306,10.0,12.1,23,-99.99,,,0.00,0,rob ver 1B,2013-12-11 07:42:00,
2013-12-11 00:43:00,47.2,6.8,29.62,WNW,297,10.8,12.6,18,-99.99,,,0.00,0,rob ver 1A,2013-12-11 07:43:00,
2013-12-11 00:44:00,50.8,14.6,29.65,NW,308,9.7,11.2,23,-99.99,,,0.00,0,rob ver 1B,2013-12-11 07:44:00,
2013-12-11 00:45:00,50.7,14.7,29.65,NW,310,8.8,10.3,23,-99.99,,,0.00,0,rob ver 1B,2013-12-11 07:45:00,
2013-12-11 00:46:00,50.7,14.7,29.65,NW,310,8.6,9.6,23,-99.99,,,0.00,0,rob ver 1B,2013-12-11 07:46:00,
2013-12-11 00:47:00,50.7,14.7,29.65,NW,308,8.1,9.2,23,-99.99,,,0.00,0,rob ver 1B,2013-12-11 07:47:00,
2013-12-11 00:48:00,47.5,6.6,29.62,WNW,292,11.7,14.7,18,-99.99,,,0.00,0,rob ver 1A,2013-12-11 07:48:00,
2013-12-11 00:49:00,50.7,14.6,29.65,NW,304,8.9,10.9,23,-99.99,,,0.00,0,rob ver 1B,2013-12-11 07:49:00,
2013-12-11 00:50:00,50.7,14.7,29.65,NW,305,8.3,9.8,23,-99.99,,,0.00,0,rob ver 1B,2013-12-11 07:50:00,
2013-12-11 00:51:00,50.7,14.7,29.65,NW,310,8.7,10.5,23,-99.99,,,0.00,0,rob ver 1B,2013-12-11 07:51:00,
2013-12-11 00:52:00,50.6,14.8,29.65,NW,309,8.3,9.9,23,-99.99,,,0.00,0,rob ver 1B,2013-12-11 07:52:00,
2013-12-11 00:53:00,50.6,14.8,29.65,NW,306,8.3,9.4,23,-99.99,,,0.00,0,rob ver 1B,2013-12-11 07:53:00,
2013-12-11 00:54:00,47.5,6.3,29.62,WNW,300,12.8,16.9,18,-99.99,,,0.00,0,rob ver 1A,2013-12-11 07:54:00,
2013-12-11 00:55:00,50.6,14.7,29.65,NW,304,7.8,9.4,23,-99.99,,,0.00,0,rob ver 1B,2013-12-11 07:55:00,
2013-12-11 00:56:00,50.6,14.6,29.65,WNW,300,7.8,9.8,23,-99.99,,,0.00,0,rob ver 1B,2013-12-11 07:56:00,
2013-12-11 00:57:00,50.7,14.4,29.65,WNW,294,9.6,11.4,23,-99.99,,,0.00,0,rob ver 1B,2013-12-11 07:57:00,
2013-12-11 00:58:00,50.8,14.6,29.65,WNW,296,9.6,11.3,23,-99.99,,,0.00,0,rob ver 1B,2013-12-11 07:58:00,
2013-12-11 00:59:00,47.7,6.1,29.62,WNW,297,12.5,16.0,18,-99.99,,,0.00,0,rob ver 1A,2013-12-11 07:59:00,
2013-12-11 01:00:00,50.8,14.6,29.65,WNW,299,9.2,11.1,23,-99.99,,,0.00,0,rob ver 1B,2013-12-11 08:00:00,
2013-12-11 01:01:00,50.8,14.5,29.65,WNW,300,9.8,11.7,22,-99.99,,,0.00,0,rob ver 1B,2013-12-11 08:01:00,
2013-12-11 01:02:00,50.9,14.4,29.62,WNW,296,9.7,11.4,22,-99.99,,,0.00,0,rob ver 1B,2013-12-11 08:02:00,
2013-12-11 01:03:00,51.0,14.5,29.62,WNW,296,9.5,11.9,22,-99.99,,,0.00,0,rob ver 1B,2013-12-11 08:03:00,
2013-12-11 01:04:00,47.2,6.6,29.62,WNW,295,12.1,13.8,18,-99.99,,,0.00,0,rob ver 1A,2013-12-11 08:04:00,
2013-12-11 01:05:00,51.1,14.1,29.62,WNW,297,11.3,12.9,22,-99.99,,,0.00,0,rob ver 1B,2013-12-11 08:05:00,
2013-12-11 01:06:00,51.3,14.2,29.62,WNW,295,10.4,13.2,22,-99.99,,,0.00,0,rob ver 1B,2013-12-11 08:06:00,
2013-12-11 01:07:00,51.3,14.3,29.65,WNW,295,10.0,11.3,22,-99.99,,,0.00,0,rob ver 1B,2013-12-11 08:07:00,
2013-12-11 01:08:00,51.3,14.2,29.65,WNW,292,9.8,11.3,22,-99.99,,,0.00,0,rob ver 1B,2013-12-11 08:08:00,
2013-12-11 01:09:00,46.8,7.0,29.62,WNW,294,12.0,14.9,19,-99.99,,,0.00,0,rob ver 1A,2013-12-11 08:09:00,
2013-12-11 01:10:00,51.4,14.3,29.65,WNW,291,10.0,12.4,22,-99.99,,,0.00,0,rob ver 1B,2013-12-11 08:10:00,
2013-12-11 01:11:00,51.4,14.2,29.65,WNW,290,9.7,10.7,22,-99.99,,,0.00,0,rob ver 1B,2013-12-11 08:11:00,
2013-12-11 01:12:00,51.4,14.2,29.65,WNW,287,9.6,11.7,22,-99.99,,,0.00,0,rob ver 1B,2013-12-11 08:12:00,
2013-12-11 01:13:00,51.4,14.1,29.62,WNW,291,11.0,12.6,22,-99.99,,,0.00,0,rob ver 1B,2013-12-11 08:13:00,
2013-12-11 01:14:00,46.6,6.9,29.62,WNW,296,13.0,15.7,19,-99.99,,,0.00,0,rob ver 1A,2013-12-11 08:14:00,
2013-12-11 01:15:00,51.5,14.2,29.62,WNW,287,11.7,13.9,22,-99.99,,,0.00,0,rob ver 1B,2013-12-11 08:15:00,
2013-12-11 01:16:00,51.5,14.2,29.62,WNW,287,12.4,15.0,22,-99.99,,,0.00,0,rob ver 1B,2013-12-11 08:16:00,
2013-12-11 01:17:00,51.5,14.2,29.62,WNW,289,11.6,13.7,22,-99.99,,,0.00,0,rob ver 1B,2013-12-11 08:17:00,
2013-12-11 01:18:00,51.4,14.2,29.62,WNW,288,11.7,14.1,22,-99.99,,,0.00,0,rob ver 1B,2013-12-11 08:18:00,
2013-12-11 01:19:00,46.5,6.9,29.62,WNW,301,12.6,14.8,19,-99.99,,,0.00,0,rob ver 1A,2013-12-11 08:19:00,
2013-12-11 01:20:00,51.5,14.2,29.62,WNW,286,10.8,14.1,22,-99.99,,,0.00,0,rob ver 1B,2013-12-11 08:20:00,
2013-12-11 01:21:00,51.5,14.0,29.65,WNW,289,12.7,15.6,21,-99.99,,,0.00,0,rob ver 1B,2013-12-11 08:21:00,
2013-12-11 01:22:00,51.6,14.1,29.65,WNW,289,11.9,14.6,22,-99.99,,,0.00,0,rob ver 1B,2013-12-11 08:22:00,
2013-12-11 01:23:00,51.7,14.0,29.62,WNW,290,11.9,13.8,22,-99.99,,,0.00,0,rob ver 1B,2013-12-11 08:23:00,
2013-12-11 01:24:00,46.5,7.0,29.62,NW,306,12.0,13.9,19,-99.99,,,0.00,0,rob ver 1A,2013-12-11 08:24:00,
2013-12-11 01:25:00,51.7,14.0,29.62,WNW,288,13.1,15.5,22,-99.99,,,0.00,0,rob ver 1B,2013-12-11 08:25:00,
2013-12-11 01:26:00,51.8,13.9,29.62,WNW,289,13.5,17.1,21,-99.99,,,0.00,0,rob ver 1B,2013-12-11 08:26:00,
2013-12-11 01:27:00,51.8,14.1,29.65,WNW,289,10.9,13.1,22,-99.99,,,0.00,0,rob ver 1B,2013-12-11 08:27:00,
2013-12-11 01:28:00,51.8,13.9,29.65,WNW,291,13.3,16.2,21,-99.99,,,0.00,0,rob ver 1B,2013-12-11 08:28:00,
2013-12-11 01:29:00,46.4,7.2,29.62,WNW,300,9.9,11.3,19,-99.99,,,0.00,0,rob ver 1A,2013-12-11 08:29:00,
2013-12-11 01:30:00,51.9,14.0,29.62,WNW,290,12.6,15.3,21,-99.99,,,0.00,0,rob ver 1B,2013-12-11 08:30:00,
2013-12-11 01:31:00,51.9,13.9,29.62,WNW,288,13.5,16.2,21,-99.99,,,0.00,0,rob ver 1B,2013-12-11 08:31:00,
2013-12-11 01:32:00,52.0,14.0,29.62,WNW,288,12.7,15.9,21,-99.99,,,0.00,0,rob ver 1B,2013-12-11 08:32:00,
2013-12-11 01:33:00,51.9,14.0,29.62,WNW,291,13.8,16.9,21,-99.99,,,0.00,0,rob ver 1B,2013-12-11 08:33:00,
2013-12-11 01:34:00,52.0,14.1,29.62,WNW,293,13.3,17.8,21,-99.99,,,0.00,0,rob ver 1B,2013-12-11 08:34:00,
2013-12-11 01:35:00,46.2,7.3,29.62,WNW,297,9.3,11.8,19,-99.99,,,0.00,0,rob ver 1A,2013-12-11 08:35:00,
2013-12-11 01:36:00,52.1,13.8,29.62,WNW,291,15.6,18.5,21,-99.99,,,0.00,0,rob ver 1B,2013-12-11 08:36:00,
2013-12-11 01:37:00,52.2,13.8,29.62,WNW,295,15.4,18.5,21,-99.99,,,0.00,0,rob ver 1B,2013-12-11 08:37:00,
2013-12-11 01:38:00,52.2,13.9,29.62,WNW,296,15.2,18.6,21,-99.99,,,0.00,0,rob ver 1B,2013-12-11 08:38:00,
2013-12-11 01:39:00,52.3,13.8,29.62,WNW,296,15.1,17.7,21,-99.99,,,0.00,0,rob ver 1B,2013-12-11 08:39:00,
2013-12-11 01:40:00,46.1,7.0,29.62,NW,305,11.5,14.4,19,-99.99,,,0.00,0,rob ver 1A,2013-12-11 08:40:00,
2013-12-11 01:41:00,52.4,13.9,29.62,WNW,299,14.1,17.4,21,-99.99,,,0.00,0,rob ver 1B,2013-12-11 08:41:00,
2013-12-11 01:42:00,52.4,13.8,29.62,WNW,299,13.6,16.9,21,-99.99,,,0.00,0,rob ver 1B,2013-12-11 08:42:00,
2013-12-11 01:43:00,52.4,13.9,29.62,WNW,297,13.1,17.0,21,-99.99,,,0.00,0,rob ver 1B,2013-12-11 08:43:00,
2013-12-11 01:44:00,52.3,13.8,29.62,WNW,294,13.4,15.3,21,-99.99,,,0.00,0,rob ver 1B,2013-12-11 08:44:00,
2013-12-11 01:45:00,46.1,7.1,29.62,WNW,302,11.3,14.0,19,-99.99,,,0.00,0,rob ver 1A,2013-12-11 08:45:00,
2013-12-11 01:46:00,52.3,13.9,29.62,WNW,294,12.3,14.6,21,-99.99,,,0.00,0,rob ver 1B,2013-12-11 08:46:00,
2013-12-11 01:47:00,52.3,13.8,29.62,WNW,293,11.8,14.0,21,-99.99,,,0.00,0,rob ver 1B,2013-12-11 08:47:00,
2013-12-11 01:48:00,52.3,14.0,29.65,WNW,294,10.5,13.9,21,-99.99,,,0.00,0,rob ver 1B,2013-12-11 08:48:00,
2013-12-11 01:49:00,52.2,13.9,29.62,WNW,296,13.0,15.6,21,-99.99,,,0.00,0,rob ver 1B,2013-12-11 08:49:00,
2013-12-11 01:50:00,46.0,6.9,29.62,NW,304,10.9,13.9,19,-99.99,,,0.00,0,rob ver 1A,2013-12-11 08:50:00,
2013-12-11 01:51:00,52.1,14.0,29.62,WNW,295,11.4,14.1,21,-99.99,,,0.00,0,rob ver 1B,2013-12-11 08:51:00,
2013-12-11 01:52:00,52.1,14.1,29.62,WNW,296,11.5,14.1,21,-99.99,,,0.00,0,rob ver 1B,2013-12-11 08:52:00,
2013-12-11 01:53:00,52.0,14.0,29.62,WNW,295,11.5,14.2,21,-99.99,,,0.00,0,rob ver 1B,2013-12-11 08:53:00,
2013-12-11 01:54:00,52.0,14.0,29.62,WNW,296,10.0,11.4,21,-99.99,,,0.00,0,rob ver 1B,2013-12-11 08:54:00,
2013-12-11 01:55:00,45.9,6.8,29.62,WNW,303,13.1,14.8,19,-99.99,,,0.00,0,rob ver 1A,2013-12-11 08:55:00,
2013-12-11 01:56:00,51.8,14.1,29.62,WNW,298,12.0,14.9,21,-99.99,,,0.00,0,rob ver 1B,2013-12-11 08:56:00,
2013-12-11 01:57:00,51.8,14.1,29.62,WNW,296,12.3,14.8,21,-99.99,,,0.00,0,rob ver 1B,2013-12-11 08:57:00,
2013-12-11 01:58:00,51.9,14.0,29.62,WNW,293,11.1,13.6,21,-99.99,,,0.00,0,rob ver 1B,2013-12-11 08:58:00,
2013-12-11 01:59:00,51.9,14.3,29.62,WNW,289,8.4,10.3,22,-99.99,,,0.00,0,rob ver 1B,2013-12-11 08:59:00,
2013-12-11 02:00:00,46.1,6.6,29.62,WNW,303,13.1,14.7,19,-99.99,,,0.00,0,rob ver 1A,2013-12-11 09:00:00,
2013-12-11 02:01:00,51.7,14.1,29.62,WNW,298,13.5,16.1,21,-99.99,,,0.00,0,rob ver 1B,2013-12-11 09:01:00,
2013-12-11 02:02:00,52.0,13.9,29.62,WNW,289,11.1,14.1,21,-99.99,,,0.00,0,rob ver 1B,2013-12-11 09:02:00,
2013-12-11 02:03:00,52.1,14.0,29.62,WNW,286,10.4,12.2,21,-99.99,,,0.00,0,rob ver 1B,2013-12-11 09:03:00,
2013-12-11 02:04:00,52.1,14.3,29.62,WNW,293,10.3,12.4,22,-99.99,,,0.00,0,rob ver 1B,2013-12-11 09:04:00,
2013-12-11 02:05:00,46.0,6.7,29.62,WNW,301,12.1,14.5,19,-99.99,,,0.00,0,rob ver 1A,2013-12-11 09:05:00,
2013-12-11 02:06:00,52.0,14.0,29.62,WNW,292,13.8,16.6,21,-99.99,,,0.00,0,rob ver 1B,2013-12-11 09:06:00,
2013-12-11 02:07:00,52.2,14.0,29.62,WNW,295,14.0,16.3,21,-99.99,,,0.00,0,rob ver 1B,2013-12-11 09:07:00,
2013-12-11 02:08:00,52.3,14.0,29.62,WNW,297,13.7,15.8,21,-99.99,,,0.00,0,rob ver 1B,2013-12-11 09:08:00,
2013-12-11 02:09:00,52.3,14.1,29.62,WNW,288,11.5,15.5,21,-99.99,,,0.00,0,rob ver 1B,2013-12-11 09:09:00,
2013-12-11 02:10:00,45.8,6.9,29.62,WNW,299,13.5,16.4,19,-99.99,,,0.00,0,rob ver 1A,2013-12-11 09:10:00,
2013-12-11 02:11:00,52.0,14.6,29.62,WNW,295,11.3,16.9,22,-99.99,,,0.00,0,rob ver 1B,2013-12-11 09:11:00,
2013-12-11 02:12:00,52.0,14.1,29.62,WNW,293,14.6,16.7,21,-99.99,,,0.00,0,rob ver 1B,2013-12-11 09:12:00,
2013-12-11 02:13:00,52.1,14.3,29.62,WNW,286,11.5,14.6,21,-99.99,,,0.00,0,rob ver 1B,2013-12-11 09:13:00,
2013-12-11 02:14:00,52.0,14.6,29.62,WNW,289,9.5,12.4,22,-99.99,,,0.00,0,rob ver 1B,2013-12-11 09:14:00,
2013-12-11 02:15:00,45.6,7.0,29.62,WNW,299,13.8,16.6,20,-99.99,,,0.00,0,rob ver 1A,2013-12-11 09:15:00,
2013-12-11 02:16:00,52.1,14.1,29.62,WNW,297,15.7,18.9,21,-99.99,,,0.00,0,rob ver 1B,2013-12-11 09:16:00,
2013-12-11 02:17:00,52.2,14.3,29.62,WNW,294,13.9,16.8,21,-99.99,,,0.00,0,rob ver 1B,2013-12-11 09:17:00,
2013-12-11 02:18:00,52.2,14.4,29.62,WNW,291,12.0,14.5,22,-99.99,,,0.00,0,rob ver 1B,2013-12-11 09:18:00,
2013-12-11 02:19:00,52.1,14.6,29.62,WNW,294,10.6,13.7,22,-99.99,,,0.00,0,rob ver 1B,2013-12-11 09:19:00,
2013-12-11 02:20:00,45.4,7.2,29.62,WNW,303,12.3,16.6,20,-99.99,,,0.00,0,rob ver 1A,2013-12-11 09:20:00,
2013-12-11 02:21:00,52.1,14.4,29.62,WNW,289,12.7,15.0,22,-99.99,,,0.00,0,rob ver 1B,2013-12-11 09:21:00,
2013-12-11 02:22:00,52.1,14.4,29.62,WNW,294,12.4,16.2,22,-99.99,,,0.00,0,rob ver 1B,2013-12-11 09:22:00,
2013-12-11 02:23:00,52.2,14.4,29.62,WNW,296,13.9,18.0,21,-99.99,,,0.00,0,rob ver 1B,2013-12-11 09:23:00,
2013-12-11 02:24:00,52.2,14.4,29.62,WNW,293,13.1,15.5,21,-99.99,,,0.00,0,rob ver 1B,2013-12-11 09:24:00,
2013-12-11 02:25:00,52.3,14.4,29.62,WNW,295,12.8,14.3,21,-99.99,,,0.00,0,rob ver 1B,2013-12-11 09:25:00,
2013-12-11 02:26:00,45.5,7.4,29.62,NW,307,11.4,14.5,20,-99.99,,,0.00,0,rob ver 1A,2013-12-11 09:26:00,
2013-12-11 02:27:00,52.2,14.6,29.62,WNW,293,12.4,15.2,22,-99.99,,,0.00,0,rob ver 1B,2013-12-11 09:27:00,
2013-12-11 02:28:00,52.2,14.6,29.62,WNW,294,12.2,14.4,22,-99.99,,,0.00,0,rob ver 1B,2013-12-11 09:28:00,
2013-12-11 02:29:00,52.2,14.6,29.62,WNW,298,12.5,15.8,22,-99.99,,,0.00,0,rob ver 1B,2013-12-11 09:29:00,
2013-12-11 02:30:00,52.2,14.4,29.62,WNW,301,14.5,16.4,21,-99.99,,,0.00,0,rob ver 1B,2013-12-11 09:30:00,
2013-12-11 02:31:00,45.5,7.2,29.62,NW,309,13.3,15.3,20,-99.99,,,0.00,0,rob ver 1A,2013-12-11 09:31:00,
2013-12-11 02:32:00,52.4,14.4,29.62,WNW,303,15.0,17.0,21,-99.99,,,0.00,0,rob ver 1B,2013-12-11 09:32:00,
2013-12-11 02:33:00,52.5,14.4,29.62,NW,304,15.8,20.0,21,-99.99,,,0.00,0,rob ver 1B,2013-12-11 09:33:00,
2013-12-11 02:34:00,52.5,14.4,29.62,NW,305,15.1,17.8,21,-99.99,,,0.00,0,rob ver 1B,2013-12-11 09:34:00,
2013-12-11 02:35:00,52.5,14.4,29.62,NW,306,15.8,19.1,21,-99.99,,,0.00,0,rob ver 1B,2013-12-11 09:35:00,
2013-12-11 02:36:00,45.9,6.9,29.62,NW,307,13.8,16.3,19,-99.99,,,0.00,0,rob ver 1A,2013-12-11 09:36:00,
2013-12-11 02:37:00,52.6,14.4,29.62,NW,306,15.5,19.0,21,-99.99,,,0.00,0,rob ver 1B,2013-12-11 09:37:00,
2013-12-11 02:38:00,52.6,14.4,29.62,NW,305,15.7,19.2,21,-99.99,,,0.00,0,rob ver 1B,2013-12-11 09:38:00,
2013-12-11 02:39:00,52.6,14.5,29.62,NW,305,14.6,16.8,21,-99.99,,,0.00,0,rob ver 1B,2013-12-11 09:39:00,
2013-12-11 02:40:00,52.5,14.5,29.62,NW,304,14.7,18.1,21,-99.99,,,0.00,0,rob ver 1B,2013-12-11 09:40:00,
2013-12-11 02:41:00,46.0,6.7,29.62,NW,304,14.2,18.2,19,-99.99,,,0.00,0,rob ver 1A,2013-12-11 09:41:00,
2013-12-11 02:42:00,52.5,14.5,29.62,NW,304,15.0,17.4,21,-99.99,,,0.00,0,rob ver 1B,2013-12-11 09:42:00,
2013-12-11 02:43:00,52.5,14.5,29.62,WNW,302,13.7,17.1,21,-99.99,,,0.00,0,rob ver 1B,2013-12-11 09:43:00,
2013-12-11 02:44:00,52.5,14.5,29.62,WNW,302,16.2,18.4,21,-99.99,,,0.00,0,rob ver 1B,2013-12-11 09:44:00,
2013-12-11 02:45:00,52.6,14.4,29.62,NW,304,15.3,17.4,21,-99.99,,,0.00,0,rob ver 1B,2013-12-11 09:45:00,
2013-12-11 02:46:00,45.9,6.8,29.62,WNW,299,14.4,17.9,19,-99.99,,,0.00,0,rob ver 1A,2013-12-11 09:46:00,
2013-12-11 02:47:00,52.6,14.7,29.62,WNW,301,12.5,14.3,21,-99.99,,,0.00,0,rob ver 1B,2013-12-11 09:47:00,
2013-12-11 02:48:00,52.4,14.7,29.62,WNW,302,11.8,15.1,21,-99.99,,,0.00,0,rob ver 1B,2013-12-11 09:48:00,
2013-12-11 02:49:00,52.4,14.7,29.62,WNW,300,13.1,15.7,21,-99.99,,,0.00,0,rob ver 1B,2013-12-11 09:49:00,
2013-12-11 02:50:00,52.4,14.8,29.62,WNW,300,13.0,16.2,22,-99.99,,,0.00,0,rob ver 1B,2013-12-11 09:50:00,
2013-12-11 02:51:00,46.0,6.7,29.62,WNW,302,14.1,15.9,19,-99.99,,,0.00,0,rob ver 1A,2013-12-11 09:51:00,
2013-12-11 02:52:00,52.3,14.6,29.62,WNW,301,13.2,15.5,22,-99.99,,,0.00,0,rob ver 1B,2013-12-11 09:52:00,
2013-12-11 02:53:00,52.3,14.8,29.62,WNW,302,12.1,15.2,22,-99.99,,,0.00,0,rob ver 1B,2013-12-11 09:53:00,
2013-12-11 02:54:00,52.4,14.7,29.62,WNW,301,14.0,17.8,21,-99.99,,,0.00,0,rob ver 1B,2013-12-11 09:54:00,
2013-12-11 02:55:00,52.4,14.6,29.62,WNW,300,14.6,17.8,21,-99.99,,,0.00,0,rob ver 1B,2013-12-11 09:55:00,
2013-12-11 02:56:00,45.7,6.9,29.62,NW,305,13.6,16.8,19,-99.99,,,0.00,0,rob ver 1A,2013-12-11 09:56:00,
2013-12-11 02:57:00,52.6,14.6,29.62,WNW,298,14.0,16.4,21,-99.99,,,0.00,0,rob ver 1B,2013-12-11 09:57:00,
2013-12-11 02:58:00,52.6,14.6,29.62,WNW,298,13.4,15.9,21,-99.99,,,0.00,0,rob ver 1B,2013-12-11 09:58:00,
2013-12-11 02:59:00,52.6,14.7,29.62,WNW,300,13.7,17.1,21,-99.99,,,0.00,0,rob ver 1B,2013-12-11 09:59:00,
2013-12-11 03:00:00,52.6,14.5,29.62,WNW,302,15.5,18.4,21,-99.99,,,0.00,0,rob ver 1B,2013-12-11 10:00:00,
2013-12-11 03:01:00,45.6,7.0,29.62,NW,306,12.7,15.5,20,-99.99,,,0.00,0,rob ver 1A,2013-12-11 10:01:00,
2013-12-11 03:02:00,52.7,14.6,29.62,WNW,297,14.3,17.4,21,-99.99,,,0.00,0,rob ver 1B,2013-12-11 10:02:00,
2013-12-11 03:03:00,52.7,14.5,29.62,WNW,302,15.8,20.2,21,-99.99,,,0.00,0,rob ver 1B,2013-12-11 10:03:00,
2013-12-11 03:04:00,52.8,14.5,29.62,WNW,298,14.3,16.6,21,-99.99,,,0.00,0,rob ver 1B,2013-12-11 10:04:00,
2013-12-11 03:05:00,52.8,14.5,29.62,WNW,299,14.6,18.3,21,-99.99,,,0.00,0,rob ver 1B,2013-12-11 10:05:00,
2013-12-11 03:06:00,45.5,6.9,29.62,NW,310,14.1,16.4,20,-99.99,,,0.00,0,rob ver 1A,2013-12-11 10:06:00,
2013-12-11 03:07:00,52.8,14.5,29.62,WNW,297,16.3,20.0,21,-99.99,,,0.00,0,rob ver 1B,2013-12-11 10:07:00,
2013-12-11 03:08:00,52.8,14.4,29.62,WNW,297,16.0,19.8,21,-99.99,,,0.00,0,rob ver 1B,2013-12-11 10:08:00,
2013-12-11 03:09:00,52.8,14.5,29.62,WNW,298,14.8,17.8,21,-99.99,,,0.00,0,rob ver 1B,2013-12-11 10:09:00,
2013-12-11 03:10:00,52.8,14.5,29.62,WNW,295,15.2,19.8,21,-99.99,,,0.00,0,rob ver 1B,2013-12-11 10:10:00,
2013-12-11 03:11:00,45.5,6.8,29.62,NW,307,14.9,18.1,20,-99.99,,,0.00,0,rob ver 1A,2013-12-11 10:11:00,
2013-12-11 03:12:00,52.7,14.5,29.62,WNW,299,15.1,18.9,21,-99.99,,,0.00,0,rob ver 1B,2013-12-11 10:12:00,
2013-12-11 03:13:00,52.8,14.5,29.62,WNW,297,15.2,18.2,21,-99.99,,,0.00,0,rob ver 1B,2013-12-11 10:13:00,
2013-12-11 03:14:00,52.8,14.5,29.62,WNW,297,15.0,18.0,21,-99.99,,,0.00,0,rob ver 1B,2013-12-11 10:14:00,
2013-12-11 03:15:00,52.7,14.6,29.62,WNW,298,14.5,16.7,21,-99.99,,,0.00,0,rob ver 1B,2013-12-11 10:15:00,
2013-12-11 03:16:00,45.4,6.7,29.62,NW,306,15.6,18.1,20,-99.99,,,0.00,0,rob ver 1A,2013-12-11 10:16:00,
2013-12-11 03:17:00,52.6,14.5,29.62,WNW,295,15.5,18.5,21,-99.99,,,0.00,0,rob ver 1B,2013-12-11 10:17:00,
2013-12-11 03:18:00,52.7,14.6,29.62,WNW,298,14.9,17.8,21,-99.99,,,0.00,0,rob ver 1B,2013-12-11 10:18:00,
2013-12-11 03:19:00,52.6,14.6,29.62,WNW,297,14.9,17.9,21,-99.99,,,0.00,0,rob ver 1B,2013-12-11 10:19:00,
2013-12-11 03:20:00,52.6,14.6,29.62,WNW,298,14.8,17.0,21,-99.99,,,0.00,0,rob ver 1B,2013-12-11 10:20:00,
2013-12-11 03:21:00,45.4,6.6,29.62,NW,304,16.1,18.6,19,-99.99,,,0.00,0,rob ver 1A,2013-12-11 10:21:00,
2013-12-11 03:22:00,52.5,14.6,29.62,WNW,299,13.6,16.4,22,-99.99,,,0.00,0,rob ver 1B,2013-12-11 10:22:00,
2013-12-11 03:23:00,52.5,14.7,29.62,WNW,299,12.9,15.4,21,-99.99,,,0.00,0,rob ver 1B,2013-12-11 10:23:00,
2013-12-11 03:24:00,52.5,14.6,29.62,WNW,297,13.6,16.3,21,-99.99,,,0.00,0,rob ver 1B,2013-12-11 10:24:00,
2013-12-11 03:25:00,52.5,14.6,29.62,WNW,298,13.8,16.6,21,-99.99,,,0.00,0,rob ver 1B,2013-12-11 10:25:00,
2013-12-11 03:26:00,52.5,14.7,29.62,WNW,298,13.0,16.8,21,-99.99,,,0.00,0,rob ver 1B,2013-12-11 10:26:00,
2013-12-11 03:27:00,45.4,6.7,29.62,WNW,303,16.2,20.7,19,-99.99,,,0.00,0,rob ver 1A,2013-12-11 10:27:00,
2013-12-11 03:28:00,52.5,14.6,29.62,WNW,294,13.8,17.9,21,-99.99,,,0.00,0,rob ver 1B,2013-12-11 10:28:00,
2013-12-11 03:29:00,52.5,14.6,29.62,WNW,298,13.2,15.5,21,-99.99,,,0.00,0,rob ver 1B,2013-12-11 10:29:00,
2013-12-11 03:30:00,52.5,14.6,29.62,WNW,298,12.9,15.0,21,-99.99,,,0.00,0,rob ver 1B,2013-12-11 10:30:00,
2013-12-11 03:31:00,52.4,14.6,29.62,WNW,297,13.1,16.1,22,-99.99,,,0.00,0,rob ver 1B,2013-12-11 10:31:00,
2013-12-11 03:32:00,45.5,6.7,29.59,WNW,301,18.7,21.5,19,-99.99,,,0.00,0,rob ver 1A,2013-12-11 10:32:00,
2013-12-11 03:33:00,52.4,14.7,29.62,WNW,296,12.4,15.3,21,-99.99,,,0.00,0,rob ver 1B,2013-12-11 10:33:00,
2013-12-11 03:34:00,52.3,14.7,29.62,WNW,297,12.0,14.0,21,-99.99,,,0.00,0,rob ver 1B,2013-12-11 10:34:00,
2013-12-11 03:35:00,52.3,14.7,29.62,WNW,296,12.0,14.6,22,-99.99,,,0.00,0,rob ver 1B,2013-12-11 10:35:00,
2013-12-11 03:36:00,52.2,14.7,29.62,WNW,292,12.6,14.7,22,-99.99,,,0.00,0,rob ver 1B,2013-12-11 10:36:00,
2013-12-11 03:37:00,45.2,6.9,29.62,WNW,298,17.3,21.9,20,-99.99,,,0.00,0,rob ver 1A,2013-12-11 10:37:00,
2013-12-11 03:38:00,52.2,14.8,29.62,WNW,291,11.5,13.8,22,-99.99,,,0.00,0,rob ver 1B,2013-12-11 10:38:00,
2013-12-11 03:39:00,52.1,14.8,29.62,WNW,291,11.6,13.6,22,-99.99,,,0.00,0,rob ver 1B,2013-12-11 10:39:00,
2013-12-11 03:40:00,52.0,14.9,29.62,WNW,293,11.7,14.2,22,-99.99,,,0.00,0,rob ver 1B,2013-12-11 10:40:00,
2013-12-11 03:41:00,52.0,14.8,29.62,WNW,293,11.6,13.9,22,-99.99,,,0.00,0,rob ver 1B,2013-12-11 10:41:00,
2013-12-11 03:42:00,44.8,7.2,29.62,WNW,300,16.7,21.9,21,-99.99,,,0.00,0,rob ver 1A,2013-12-11 10:42:00,
2013-12-11 03:43:00,51.9,14.9,29.62,WNW,294,11.6,15.4,22,-99.99,,,0.00,0,rob ver 1B,2013-12-11 10:43:00,
2013-12-11 03:44:00,51.9,14.8,29.62,WNW,294,12.6,14.1,22,-99.99,,,0.00,0,rob ver 1B,2013-12-11 10:44:00,
2013-12-11 03:45:00,52.0,14.8,29.62,WNW,293,13.0,15.2,22,-99.99,,,0.00,0,rob ver 1B,2013-12-11 10:45:00,
2013-12-11 03:46:00,52.0,14.8,29.62,WNW,294,12.6,15.1,22,-99.99,,,0.00,0,rob ver 1B,2013-12-11 10:46:00,
2013-12-11 03:47:00,44.5,7.4,29.62,WNW,297,16.1,20.8,21,-99.99,,,0.00,0,rob ver 1A,2013-12-11 10:47:00,
2013-12-11 03:48:00,52.1,14.9,29.62,WNW,292,11.7,13.4,22,-99.99,,,0.00,0,rob ver 1B,2013-12-11 10:48:00,
2013-12-11 03:49:00,52.1,14.8,29.62,WNW,293,13.7,16.4,22,-99.99,,,0.00,0,rob ver 1B,2013-12-11 10:49:00,
2013-12-11 03:50:00,52.1,14.8,29.62,WNW,293,13.1,15.8,22,-99.99,,,0.00,0,rob ver 1B,2013-12-11 10:50:00,
2013-12-11 03:51:00,52.1,14.8,29.62,WNW,291,12.4,14.4,22,-99.99,,,0.00,0,rob ver 1B,2013-12-11 10:51:00,
2013-12-11 03:52:00,44.4,7.4,29.62,WNW,299,16.6,19.1,21,-99.99,,,0.00,0,rob ver 1A,2013-12-11 10:52:00,
2013-12-11 03:53:00,52.1,14.8,29.62,WNW,293,12.2,15.3,22,-99.99,,,0.00,0,rob ver 1B,2013-12-11 10:53:00,
2013-12-11 03:54:00,52.1,14.9,29.62,WNW,294,11.9,14.9,22,-99.99,,,0.00,0,rob ver 1B,2013-12-11 10:54:00,
2013-12-11 03:55:00,52.1,14.8,29.62,WNW,295,12.2,13.9,22,-99.99,,,0.00,0,rob ver 1B,2013-12-11 10:55:00,
2013-12-11 03:56:00,52.1,14.8,29.62,WNW,296,12.0,14.6,22,-99.99,,,0.00,0,rob ver 1B,2013-12-11 10:56:00,
2013-12-11 03:57:00,44.3,7.6,29.62,WNW,297,15.9,19.8,21,-99.99,,,0.00,0,rob ver 1A,2013-12-11 10:57:00,
2013-12-11 03:58:00,52.1,14.8,29.62,WNW,293,12.7,15.6,22,-99.99,,,0.00,0,rob ver 1B,2013-12-11 10:58:00,
2013-12-11 03:59:00,52.0,15.0,29.62,WNW,295,11.1,13.6,22,-99.99,,,0.00,0,rob ver 1B,2013-12-11 10:59:00,
2013-12-11 04:00:00,51.9,14.8,29.62,WNW,295,11.9,14.2,22,-99.99,,,0.00,0,rob ver 1B,2013-12-11 11:00:00,
2013-12-11 04:01:00,51.9,15.0,29.62,WNW,295,10.0,12.2,22,-99.99,,,0.00,0,rob ver 1B,2013-12-11 11:01:00,
2013-12-11 04:02:00,44.3,7.5,29.62,WNW,297,16.6,19.8,21,-99.99,,,0.00,0,rob ver 1A,2013-12-11 11:02:00,
2013-12-11 04:03:00,51.8,14.9,29.62,WNW,294,11.3,15.2,22,-99.99,,,0.00,0,rob ver 1B,2013-12-11 11:03:00,
2013-12-11 04:04:00,51.8,14.8,29.62,WNW,292,12.4,14.8,22,-99.99,,,0.00,0,rob ver 1B,2013-12-11 11:04:00,
2013-12-11 04:05:00,51.9,14.7,29.62,WNW,289,12.1,15.1,22,-99.99,,,0.00,0,rob ver 1B,2013-12-11 11:05:00,
2013-12-11 04:06:00,52.0,14.8,29.62,WNW,290,10.8,15.5,22,-99.99,,,0.00,0,rob ver 1B,2013-12-11 11:06:00,
2013-12-11 04:07:00,44.2,7.6,29.62,WNW,298,15.5,19.8,21,-99.99,,,0.00,0,rob ver 1A,2013-12-11 11:07:00,
2013-12-11 04:08:00,51.9,14.8,29.62,WNW,284,10.2,12.3,22,-99.99,,,0.00,0,rob ver 1B,2013-12-11 11:08:00,
2013-12-11 04:09:00,51.9,14.9,29.62,WNW,285,9.5,11.5,22,-99.99,,,0.00,0,rob ver 1B,2013-12-11 11:09:00,
2013-12-11 04:10:00,51.9,14.8,29.62,WNW,284,10.3,12.1,22,-99.99,,,0.00,0,rob ver 1B,2013-12-11 11:10:00,
2013-12-11 04:11:00,51.9,14.8,29.62,WNW,285,10.2,13.4,22,-99.99,,,0.00,0,rob ver 1B,2013-12-11 11:11:00,
2013-12-11 04:12:00,44.2,7.6,29.62,WNW,296,15.1,19.0,21,-99.99,,,0.00,0,rob ver 1A,2013-12-11 11:12:00,
2013-12-11 04:13:00,51.9,14.8,29.62,WNW,286,11.6,13.5,22,-99.99,,,0.00,0,rob ver 1B,2013-12-11 11:13:00,
2013-12-11 04:14:00,51.8,14.8,29.62,WNW,285,10.8,13.5,22,-99.99,,,0.00,0,rob ver 1B,2013-12-11 11:14:00,
2013-12-11 04:15:00,51.8,14.8,29.62,WNW,289,11.4,14.2,22,-99.99,,,0.00,0,rob ver 1B,2013-12-11 11:15:00,
2013-12-11 04:16:00,51.8,14.8,29.62,WNW,291,10.8,13.9,22,-99.99,,,0.00,0,rob ver 1B,2013-12-11 11:16:00,
2013-12-11 04:17:00,44.4,7.4,29.62,WNW,299,15.6,19.3,21,-99.99,,,0.00,0,rob ver 1A,2013-12-11 11:17:00,
2013-12-11 04:18:00,51.8,14.6,29.62,WNW,294,13.4,16.8,22,-99.99,,,0.00,0,rob ver 1B,2013-12-11 11:18:00,
2013-12-11 04:19:00,52.0,14.6,29.62,WNW,296,14.2,17.5,22,-99.99,,,0.00,0,rob ver 1B,2013-12-11 11:19:00,
2013-12-11 04:20:00,52.1,14.5,29.62,WNW,296,14.6,17.6,22,-99.99,,,0.00,0,rob ver 1B,2013-12-11 11:20:00,
2013-12-11 04:21:00,52.1,14.5,29.62,WNW,300,15.0,19.1,22,-99.99,,,0.00,0,rob ver 1B,2013-12-11 11:21:00,
2013-12-11 04:22:00,52.1,14.5,29.62,WNW,298,14.4,17.1,22,-99.99,,,0.00,0,rob ver 1B,2013-12-11 11:22:00,
2013-12-11 04:23:00,44.5,7.5,29.62,WNW,300,14.3,18.9,21,-99.99,,,0.00,0,rob ver 1A,2013-12-11 11:23:00,
2013-12-11 04:24:00,52.1,14.5,29.62,WNW,292,13.9,15.7,22,-99.99,,,0.00,0,rob ver 1B,2013-12-11 11:24:00,
2013-12-11 04:25:00,52.1,14.6,29.62,WNW,294,13.2,16.4,22,-99.99,,,0.00,0,rob ver 1B,2013-12-11 11:25:00,
2013-12-11 04:26:00,52.1,14.6,29.62,WNW,290,13.2,15.8,22,-99.99,,,0.00,0,rob ver 1B,2013-12-11 11:26:00,
2013-12-11 04:27:00,52.0,14.7,29.62,WNW,293,12.1,14.1,22,-99.99,,,0.00,0,rob ver 1B,2013-12-11 11:27:00,
2013-12-11 04:28:00,44.5,7.4,29.62,WNW,299,15.3,19.7,21,-99.99,,,0.00,0,rob ver 1A,2013-12-11 11:28:00,
2013-12-11 04:29:00,51.9,14.8,29.62,WNW,295,12.0,16.5,22,-99.99,,,0.00,0,rob ver 1B,2013-12-11 11:29:00,
2013-12-11 04:30:00,51.8,14.7,29.62,WNW,297,11.9,14.8,22,-99.99,,,0.00,0,rob ver 1B,2013-12-11 11:30:00,
2013-12-11 04:31:00,51.7,14.7,29.62,WNW,296,12.1,14.5,22,-99.99,,,0.00,0,rob ver 1B,2013-12-11 11:31:00,
2013-12-11 04:32:00,51.6,14.8,29.62,WNW,301,11.0,13.7,22,-99.99,,,0.00,0,rob ver 1B,2013-12-11 11:32:00,
2013-12-11 04:33:00,44.4,7.5,29.62,WNW,294,13.6,17.1,21,-99.99,,,0.00,0,rob ver 1A,2013-12-11 11:33:00,
2013-12-11 04:34:00,51.5,14.9,29.62,WNW,298,10.6,13.5,22,-99.99,,,0.00,0,rob ver 1B,2013-12-11 11:34:00,
2013-12-11 04:35:00,51.5,14.9,29.62,WNW,300,10.8,13.3,23,-99.99,,,0.00,0,rob ver 1B,2013-12-11 11:35:00,
2013-12-11 04:36:00,51.4,15.0,29.62,WNW,302,9.5,11.2,23,-99.99,,,0.00,0,rob ver 1B,2013-12-11 11:36:00,
2013-12-11 04:37:00,51.3,14.9,29.62,NW,304,11.4,16.4,22,-99.99,,,0.00,0,rob ver 1B,2013-12-11 11:37:00,
2013-12-11 04:38:00,44.5,7.3,29.62,WNW,293,14.6,17.5,21,-99.99,,,0.00,0,rob ver 1A,2013-12-11 11:38:00,
2013-12-11 04:39:00,51.4,14.9,29.62,WNW,300,10.7,12.8,23,-99.99,,,0.00,0,rob ver 1B,2013-12-11 11:39:00,
2013-12-11 04:40:00,51.4,14.8,29.62,WNW,303,12.6,16.3,22,-99.99,,,0.00,0,rob ver 1B,2013-12-11 11:40:00,
2013-12-11 04:41:00,51.6,14.7,29.62,WNW,302,13.2,16.6,22,-99.99,,,0.00,0,rob ver 1B,2013-12-11 11:41:00,
2013-12-11 04:42:00,51.7,14.7,29.59,WNW,300,13.0,16.2,22,-99.99,,,0.00,0,rob ver 1B,2013-12-11 11:42:00,
2013-12-11 04:43:00,44.5,7.5,29.62,WNW,289,12.8,15.4,21,-99.99,,,0.00,0,rob ver 1A,2013-12-11 11:43:00,
2013-12-11 04:44:00,51.7,14.8,29.62,WNW,303,12.7,15.7,22,-99.99,,,0.00,0,rob ver 1B,2013-12-11 11:44:00,
2013-12-11 04:45:00,51.7,14.8,29.62,WNW,298,13.2,15.3,22,-99.99,,,0.00,0,rob ver 1B,2013-12-11 11:45:00,
2013-12-11 04:46:00,51.7,14.9,29.62,WNW,297,10.7,13.5,22,-99.99,,,0.00,0,rob ver 1B,2013-12-11 11:46:00,
2013-12-11 04:47:00,51.6,15.0,29.62,WNW,297,10.0,12.0,23,-99.99,,,0.00,0,rob ver 1B,2013-12-11 11:47:00,
2013-12-11 04:48:00,44.0,7.7,29.62,WNW,291,12.7,15.2,22,-99.99,,,0.00,0,rob ver 1A,2013-12-11 11:48:00,
2013-12-11 04:49:00,51.5,15.0,29.62,WNW,296,10.2,12.3,23,-99.99,,,0.00,0,rob ver 1B,2013-12-11 11:49:00,
2013-12-11 04:50:00,51.5,15.0,29.62,WNW,295,10.3,13.7,23,-99.99,,,0.00,0,rob ver 1B,2013-12-11 11:50:00,
2013-12-11 04:51:00,51.5,15.0,29.62,WNW,297,11.4,14.4,23,-99.99,,,0.00,0,rob ver 1B,2013-12-11 11:51:00,
2013-12-11 04:52:00,51.4,15.1,29.62,WNW,299,10.1,12.8,23,-99.99,,,0.00,0,rob ver 1B,2013-12-11 11:52:00,
2013-12-11 04:53:00,44.1,7.6,29.62,WNW,296,13.9,16.8,21,-99.99,,,0.00,0,rob ver 1A,2013-12-11 11:53:00,
2013-12-11 04:54:00,51.4,15.1,29.62,WNW,302,11.0,14.2,23,-99.99,,,0.00,0,rob ver 1B,2013-12-11 11:54:00,
2013-12-11 04:55:00,51.4,15.0,29.62,NW,304,11.8,13.3,23,-99.99,,,0.00,0,rob ver 1B,2013-12-11 11:55:00,
2013-12-11 04:56:00,51.4,15.0,29.59,WNW,301,11.3,13.5,23,-99.99,,,0.00,0,rob ver 1B,2013-12-11 11:56:00,
2013-12-11 04:57:00,51.5,15.0,29.62,WNW,301,11.1,14.8,23,-99.99,,,0.00,0,rob ver 1B,2013-12-11 11:57:00,
2013-12-11 04:58:00,44.1,7.8,29.62,WNW,295,12.7,14.7,22,-99.99,,,0.00,0,rob ver 1A,2013-12-11 11:58:00,
2013-12-11 04:59:00,51.5,15.0,29.59,NW,305,12.0,14.5,22,-99.99,,,0.00,0,rob ver 1B,2013-12-11 11:59:00,
2013-12-11 05:00:00,51.5,15.0,29.59,NW,307,11.2,14.4,23,-99.99,,,0.00,0,rob ver 1B,2013-12-11 12:00:00,
2013-12-11 05:01:00,51.5,15.0,29.62,NW,308,11.9,14.9,23,-99.99,,,0.00,0,rob ver 1B,2013-12-11 12:01:00,
2013-12-11 05:02:00,51.5,14.9,29.59,NW,305,12.1,14.1,23,-99.99,,,0.00,0,rob ver 1B,2013-12-11 12:02:00,
2013-12-11 05:03:00,44.1,7.7,29.62,WNW,301,12.3,17.6,21,-99.99,,,0.00,0,rob ver 1A,2013-12-11 12:03:00,
2013-12-11 05:04:00,51.5,15.0,29.59,NW,306,12.4,17.0,23,-99.99,,,0.00,0,rob ver 1B,2013-12-11 12:04:00,
2013-12-11 05:05:00,51.5,14.8,29.59,NW,306,14.1,16.6,22,-99.99,,,0.00,0,rob ver 1B,2013-12-11 12:05:00,
2013-12-11 05:06:00,51.7,14.9,29.59,NW,306,12.6,14.2,22,-99.99,,,0.00,0,rob ver 1B,2013-12-11 12:06:00,
2013-12-11 05:07:00,51.6,14.9,29.59,NW,306,12.6,14.7,22,-99.99,,,0.00,0,rob ver 1B,2013-12-11 12:07:00,
2013-12-11 05:08:00,51.6,15.1,29.59,NW,306,12.0,14.0,23,-99.99,,,0.00,0,rob ver 1B,2013-12-11 12:08:00,
2013-12-11 05:09:00,44.3,7.4,29.62,WNW,303,13.9,16.6,21,-99.99,,,0.00,0,rob ver 1A,2013-12-11 12:09:00,
2013-12-11 05:10:00,51.5,14.9,29.59,NW,306,11.9,14.5,23,-99.99,,,0.00,0,rob ver 1B,2013-12-11 12:10:00,
2013-12-11 05:11:00,51.4,15.1,29.59,NW,305,10.6,13.1,23,-99.99,,,0.00,0,rob ver 1B,2013-12-11 12:11:00,
2013-12-11 05:12:00,51.3,15.1,29.59,NW,307,12.4,17.4,23,-99.99,,,0.00,0,rob ver 1B,2013-12-11 12:12:00,
2013-12-11 05:13:00,51.3,15.2,29.59,NW,306,11.7,14.6,23,-99.99,,,0.00,0,rob ver 1B,2013-12-11 12:13:00,
2013-12-11 05:14:00,44.4,7.7,29.62,WNW,298,12.9,15.7,21,-99.99,,,0.00,0,rob ver 1A,2013-12-11 12:14:00,
2013-12-11 05:15:00,51.2,15.2,29.59,NW,309,11.1,13.2,23,-99.99,,,0.00,0,rob ver 1B,2013-12-11 12:15:00,
2013-12-11 05:16:00,51.2,15.2,29.59,NW,309,12.7,14.0,23,-99.99,,,0.00,0,rob ver 1B,2013-12-11 12:16:00,
2013-12-11 05:17:00,51.2,15.1,29.59,NW,308,13.1,16.0,23,-99.99,,,0.00,0,rob ver 1B,2013-12-11 12:17:00,
2013-12-11 05:18:00,51.2,15.1,29.59,NW,306,12.3,14.8,23,-99.99,,,0.00,0,rob ver 1B,2013-12-11 12:18:00,
2013-12-11 05:19:00,44.4,7.6,29.62,NW,304,13.9,17.5,21,-99.99,,,0.00,0,rob ver 1A,2013-12-11 12:19:00,
2013-12-11 05:20:00,51.1,15.2,29.59,NW,307,12.6,15.8,23,-99.99,,,0.00,0,rob ver 1B,2013-12-11 12:20:00,
2013-12-11 05:21:00,51.2,15.0,29.59,WNW,303,14.1,17.3,23,-99.99,,,0.00,0,rob ver 1B,2013-12-11 12:21:00,
2013-12-11 05:22:00,51.3,15.0,29.59,WNW,302,13.6,16.9,23,-99.99,,,0.00,0,rob ver 1B,2013-12-11 12:22:00,
2013-12-11 05:23:00,51.3,15.0,29.59,NW,305,12.3,15.9,23,-99.99,,,0.00,0,rob ver 1B,2013-12-11 12:23:00,
2013-12-11 05:24:00,44.5,7.6,29.62,WNW,300,14.0,18.0,21,-99.99,,,0.00,0,rob ver 1A,2013-12-11 12:24:00,
2013-12-11 05:25:00,51.2,15.1,29.59,WNW,301,12.7,15.0,23,-99.99,,,0.00,0,rob ver 1B,2013-12-11 12:25:00,
2013-12-11 05:26:00,51.2,15.1,29.59,WNW,303,12.5,14.6,23,-99.99,,,0.00,0,rob ver 1B,2013-12-11 12:26:00,
2013-12-11 05:27:00,51.1,15.1,29.59,NW,304,13.1,16.6,23,-99.99,,,0.00,0,rob ver 1B,2013-12-11 12:27:00,
2013-12-11 05:28:00,51.1,15.0,29.59,NW,306,13.3,15.9,23,-99.99,,,0.00,0,rob ver 1B,2013-12-11 12:28:00,
2013-12-11 05:29:00,44.4,7.6,29.62,NW,304,13.8,17.6,21,-99.99,,,0.00,0,rob ver 1A,2013-12-11 12:29:00,
2013-12-11 05:30:00,51.2,15.1,29.59,WNW,303,13.7,17.3,23,-99.99,,,0.00,0,rob ver 1B,2013-12-11 12:30:00,
2013-12-11 05:31:00,51.2,15.1,29.59,NW,304,13.1,16.3,23,-99.99,,,0.00,0,rob ver 1B,2013-12-11 12:31:00,
2013-12-11 05:32:00,51.2,15.0,29.59,NW,305,13.3,15.8,23,-99.99,,,0.00,0,rob ver 1B,2013-12-11 12:32:00,
2013-12-11 05:33:00,51.2,15.0,29.59,NW,306,12.9,15.3,23,-99.99,,,0.00,0,rob ver 1B,2013-12-11 12:33:00,
2013-12-11 05:34:00,44.6,7.5,29.62,WNW,303,14.0,17.8,21,-99.99,,,0.00,0,rob ver 1A,2013-12-11 12:34:00,
2013-12-11 05:35:00,51.2,15.1,29.59,NW,307,11.4,13.6,23,-99.99,,,0.00,0,rob ver 1B,2013-12-11 12:35:00,
2013-12-11 05:36:00,51.1,15.2,29.59,NW,307,12.7,14.7,23,-99.99,,,0.00,0,rob ver 1B,2013-12-11 12:36:00,
2013-12-11 05:37:00,51.0,15.2,29.59,WNW,302,11.8,14.6,23,-99.99,,,0.00,0,rob ver 1B,2013-12-11 12:37:00,
2013-12-11 05:38:00,51.0,15.2,29.59,NW,305,12.1,14.4,23,-99.99,,,0.00,0,rob ver 1B,2013-12-11 12:38:00,
2013-12-11 05:39:00,44.4,7.6,29.62,WNW,300,15.5,17.4,21,-99.99,,,0.00,0,rob ver 1A,2013-12-11 12:39:00,
2013-12-11 05:40:00,50.8,15.4,29.59,WNW,303,11.3,13.1,23,-99.99,,,0.00,0,rob ver 1B,2013-12-11 12:40:00,
2013-12-11 05:41:00,50.7,15.4,29.59,WNW,303,10.8,13.0,24,-99.99,,,0.00,0,rob ver 1B,2013-12-11 12:41:00,
2013-12-11 05:42:00,50.7,15.4,29.59,WNW,300,10.5,13.9,24,-99.99,,,0.00,0,rob ver 1B,2013-12-11 12:42:00,
2013-12-11 05:43:00,50.6,15.5,29.59,WNW,300,10.2,13.2,24,-99.99,,,0.00,0,rob ver 1B,2013-12-11 12:43:00,
2013-12-11 05:44:00,44.3,7.6,29.62,WNW,303,15.7,18.6,21,-99.99,,,0.00,0,rob ver 1A,2013-12-11 12:44:00,
2013-12-11 05:45:00,50.4,15.6,29.59,WNW,297,10.3,12.3,24,-99.99,,,0.00,0,rob ver 1B,2013-12-11 12:45:00,
2013-12-11 05:46:00,50.3,15.5,29.59,WNW,298,10.9,13.0,24,-99.99,,,0.00,0,rob ver 1B,2013-12-11 12:46:00,
2013-12-11 05:47:00,50.3,15.6,29.59,WNW,296,10.3,11.8,24,-99.99,,,0.00,0,rob ver 1B,2013-12-11 12:47:00,
2013-12-11 05:48:00,50.3,15.6,29.59,WNW,296,10.2,12.3,24,-99.99,,,0.00,0,rob ver 1B,2013-12-11 12:48:00,
2013-12-11 05:49:00,44.3,7.8,29.62,WNW,302,14.0,19.5,22,-99.99,,,0.00,0,rob ver 1A,2013-12-11 12:49:00,
2013-12-11 05:50:00,50.2,15.7,29.62,WNW,295,9.9,12.9,24,-99.99,,,0.00,0,rob ver 1B,2013-12-11 12:50:00,
2013-12-11 05:51:00,50.2,15.6,29.59,WNW,297,10.4,13.0,24,-99.99,,,0.00,0,rob ver 1B,2013-12-11 12:51:00,
2013-12-11 05:52:00,50.2,15.6,29.59,WNW,296,10.5,12.5,24,-99.99,,,0.00,0,rob ver 1B,2013-12-11 12:52:00,
2013-12-11 05:53:00,50.2,15.6,29.62,WNW,297,10.4,12.2,24,-99.99,,,0.00,0,rob ver 1B,2013-12-11 12:53:00,
2013-12-11 05:54:00,50.2,15.5,29.59,WNW,299,11.3,14.7,24,-99.99,,,0.00,0,rob ver 1B,2013-12-11 12:54:00,
2013-12-11 05:55:00,44.0,8.0,29.62,WNW,300,13.9,16.3,22,-99.99,,,0.00,0,rob ver 1A,2013-12-11 12:55:00,
2013-12-11 05:56:00,50.2,15.5,29.59,WNW,299,11.9,15.4,24,-99.99,,,0.00,0,rob ver 1B,2013-12-11 12:56:00,
2013-12-11 05:57:00,50.2,15.5,29.59,WNW,299,11.9,14.0,24,-99.99,,,0.00,0,rob ver 1B,2013-12-11 12:57:00,
2013-12-11 05:58:00,50.3,15.5,29.59,WNW,298,10.9,12.5,24,-99.99,,,0.00,0,rob ver 1B,2013-12-11 12:58:00,
2013-12-11 05:59:00,50.2,15.6,29.62,WNW,298,11.1,14.4,24,-99.99,,,0.00,0,rob ver 1B,2013-12-11 12:59:00,
2013-12-11 06:00:00,43.6,8.2,29.62,WNW,300,12.0,14.5,22,-99.99,,,0.00,0,rob ver 1A,2013-12-11 13:00:00,
2013-12-11 06:01:00,50.3,15.6,29.59,WNW,295,10.9,13.6,24,-99.99,,,0.00,0,rob ver 1B,2013-12-11 13:01:00,
2013-12-11 06:02:00,50.2,15.5,29.59,WNW,295,11.2,13.8,24,-99.99,,,0.00,0,rob ver 1B,2013-12-11 13:02:00,
2013-12-11 06:03:00,50.2,15.6,29.62,WNW,298,10.7,14.2,24,-99.99,,,0.00,0,rob ver 1B,2013-12-11 13:03:00,
2013-12-11 06:04:00,50.3,15.5,29.62,WNW,297,11.7,13.7,24,-99.99,,,0.00,0,rob ver 1B,2013-12-11 13:04:00,
2013-12-11 06:05:00,43.6,8.3,29.62,WNW,299,12.2,14.0,23,-99.99,,,0.00,0,rob ver 1A,2013-12-11 13:05:00,
2013-12-11 06:06:00,50.2,15.6,29.62,WNW,298,11.4,13.4,24,-99.99,,,0.00,0,rob ver 1B,2013-12-11 13:06:00,
2013-12-11 06:07:00,50.2,15.6,29.62,WNW,299,10.8,13.3,25,-99.99,,,0.00,0,rob ver 1B,2013-12-11 13:07:00,
2013-12-11 06:08:00,50.2,15.7,29.62,WNW,300,9.6,11.4,25,-99.99,,,0.00,0,rob ver 1B,2013-12-11 13:08:00,
2013-12-11 06:09:00,50.1,15.6,29.62,WNW,302,10.0,13.0,25,-99.99,,,0.00,0,rob ver 1B,2013-12-11 13:09:00,
2013-12-11 06:10:00,43.3,8.6,29.62,WNW,302,11.6,13.8,23,-99.99,,,0.00,0,rob ver 1A,2013-12-11 13:10:00,
2013-12-11 06:11:00,50.1,15.7,29.62,WNW,301,9.9,12.4,24,-99.99,,,0.00,0,rob ver 1B,2013-12-11 13:11:00,
2013-12-11 06:12:00,50.1,15.7,29.62,WNW,302,10.2,11.7,24,-99.99,,,0.00,0,rob ver 1B,2013-12-11 13:12:00,
2013-12-11 06:13:00,50.1,15.7,29.62,NW,304,10.2,12.5,24,-99.99,,,0.00,0,rob ver 1B,2013-12-11 13:13:00,
2013-12-11 06:14:00,50.2,15.6,29.62,NW,304,10.4,12.5,24,-99.99,,,0.00,0,rob ver 1B,2013-12-11 13:14:00,
2013-12-11 06:15:00,43.2,8.7,29.62,WNW,300,12.8,15.3,23,-99.99,,,0.00,0,rob ver 1A,2013-12-11 13:15:00,
2013-12-11 06:16:00,50.2,15.5,29.62,NW,307,11.5,14.8,24,-99.99,,,0.00,0,rob ver 1B,2013-12-11 13:16:00,
2013-12-11 06:17:00,50.3,15.6,29.62,NW,305,10.6,13.1,24,-99.99,,,0.00,0,rob ver 1B,2013-12-11 13:17:00,
2013-12-11 06:18:00,50.3,15.7,29.62,NW,307,11.1,13.6,24,-99.99,,,0.00,0,rob ver 1B,2013-12-11 13:18:00,
2013-12-11 06:19:00,50.3,15.6,29.62,NW,308,11.3,13.5,24,-99.99,,,0.00,0,rob ver 1B,2013-12-11 13:19:00,
2013-12-11 06:20:00,43.3,8.7,29.62,WNW,296,12.8,15.5,23,-99.99,,,0.00,0,rob ver 1A,2013-12-11 13:20:00,
2013-12-11 06:21:00,50.3,15.7,29.62,NW,310,11.6,13.0,24,-99.99,,,0.00,0,rob ver 1B,2013-12-11 13:21:00,
2013-12-11 06:22:00,50.3,15.6,29.62,NW,309,11.9,14.3,24,-99.99,,,0.00,0,rob ver 1B,2013-12-11 13:22:00,
2013-12-11 06:23:00,50.3,15.7,29.62,NW,309,11.8,13.7,24,-99.99,,,0.00,0,rob ver 1B,2013-12-11 13:23:00,
2013-12-11 06:24:00,50.3,15.8,29.62,NW,311,11.2,12.4,24,-99.99,,,0.00,0,rob ver 1B,2013-12-11 13:24:00,
2013-12-11 06:25:00,43.2,8.7,29.65,WNW,300,11.9,14.3,24,-99.99,,,0.00,0,rob ver 1A,2013-12-11 13:25:00,
2013-12-11 06:26:00,50.3,15.8,29.62,NW,310,10.0,11.5,25,-99.99,,,0.00,0,rob ver 1B,2013-12-11 13:26:00,
2013-12-11 06:27:00,50.2,15.9,29.62,NW,310,9.4,11.8,25,-99.99,,,0.00,0,rob ver 1B,2013-12-11 13:27:00,
2013-12-11 06:28:00,50.2,15.8,29.62,NW,311,9.7,11.6,25,-99.99,,,0.00,0,rob ver 1B,2013-12-11 13:28:00,
2013-12-11 06:29:00,50.1,15.8,29.62,NW,307,9.5,11.4,25,-99.99,,,0.00,0,rob ver 1B,2013-12-11 13:29:00,
2013-12-11 06:30:00,43.0,8.9,29.65,WNW,302,12.7,15.7,24,-99.99,,,0.00,0,rob ver 1A,2013-12-11 13:30:00,
2013-12-11 06:31:00,50.2,15.8,29.62,WNW,300,9.5,11.7,25,-99.99,,,0.00,0,rob ver 1B,2013-12-11 13:31:00,
2013-12-11 06:32:00,50.1,16.1,29.62,WNW,292,7.2,8.3,25,-99.99,,,0.00,0,rob ver 1B,2013-12-11 13:32:00,
2013-12-11 06:33:00,49.9,16.0,29.62,WNW,290,7.7,8.8,25,-99.99,,,0.00,0,rob ver 1B,2013-12-11 13:33:00,
2013-12-11 06:34:00,49.8,16.0,29.62,WNW,289,7.4,9.0,25,-99.99,,,0.00,0,rob ver 1B,2013-12-11 13:34:00,
2013-12-11 06:35:00,43.2,8.7,29.65,NW,305,13.1,16.4,23,-99.99,,,0.00,0,rob ver 1A,2013-12-11 13:35:00,
2013-12-11 06:36:00,49.6,16.1,29.62,West,281,7.4,9.6,25,-99.99,,,0.00,0,rob ver 1B,2013-12-11 13:36:00,
2013-12-11 06:37:00,49.5,16.2,29.62,West,278,6.6,7.8,26,-99.99,,,0.00,0,rob ver 1B,2013-12-11 13:37:00,
2013-12-11 06:38:00,49.4,16.2,29.62,West,278,6.7,9.1,26,-99.99,,,0.00,0,rob ver 1B,2013-12-11 13:38:00,
2013-12-11 06:39:00,49.3,16.3,29.62,WNW,282,6.6,7.7,26,-99.99,,,0.00,0,rob ver 1B,2013-12-11 13:39:00,
2013-12-11 06:40:00,43.2,8.8,29.65,NW,305,13.0,15.5,24,-99.99,,,0.00,0,rob ver 1A,2013-12-11 13:40:00,
2013-12-11 06:41:00,49.2,16.2,29.62,WNW,289,7.5,8.8,26,-99.99,,,0.00,0,rob ver 1B,2013-12-11 13:41:00,
2013-12-11 06:42:00,49.2,16.3,29.62,WNW,289,7.1,8.7,26,-99.99,,,0.00,0,rob ver 1B,2013-12-11 13:42:00,
2013-12-11 06:43:00,49.2,16.4,29.62,WNW,291,6.5,7.6,26,-99.99,,,0.00,0,rob ver 1B,2013-12-11 13:43:00,
2013-12-11 06:44:00,49.1,16.3,29.62,WNW,296,6.5,7.9,26,-99.99,,,0.00,0,rob ver 1B,2013-12-11 13:44:00,
2013-12-11 06:45:00,49.1,16.3,29.62,WNW,297,6.9,8.2,26,-99.99,,,0.00,0,rob ver 1B,2013-12-11 13:45:00,
2013-12-11 06:46:00,43.1,8.8,29.65,NW,307,13.1,15.9,23,-99.99,,,0.00,0,rob ver 1A,2013-12-11 13:46:00,
2013-12-11 06:47:00,49.0,16.3,29.62,WNW,298,7.7,9.3,26,-99.99,,,0.00,0,rob ver 1B,2013-12-11 13:47:00,
2013-12-11 06:48:00,49.0,16.4,29.62,WNW,297,7.4,8.3,26,-99.99,,,0.00,0,rob ver 1B,2013-12-11 13:48:00,
2013-12-11 06:49:00,49.0,16.3,29.62,WNW,296,7.8,9.1,26,-99.99,,,0.00,0,rob ver 1B,2013-12-11 13:49:00,
2013-12-11 06:50:00,49.0,16.4,29.62,WNW,294,7.2,8.5,27,-99.99,,,0.00,0,rob ver 1B,2013-12-11 13:50:00,
2013-12-11 06:51:00,43.1,8.9,29.65,NW,304,12.6,14.8,24,-99.99,,,0.00,0,rob ver 1A,2013-12-11 13:51:00,
2013-12-11 06:52:00,49.0,16.3,29.62,WNW,295,8.0,9.7,26,-99.99,,,0.00,0,rob ver 1B,2013-12-11 13:52:00,
2013-12-11 06:53:00,49.0,16.4,29.62,WNW,294,7.4,8.6,26,-99.99,,,0.00,0,rob ver 1B,2013-12-11 13:53:00,
2013-12-11 06:54:00,49.0,16.4,29.62,WNW,291,7.5,8.5,26,-99.99,,,0.00,0,rob ver 1B,2013-12-11 13:54:00,
2013-12-11 06:55:00,48.9,16.5,29.62,WNW,290,6.7,7.3,27,-99.99,,,0.00,0,rob ver 1B,2013-12-11 13:55:00,
2013-12-11 06:56:00,43.0,8.9,29.65,WNW,302,12.6,15.4,24,-99.99,,,0.00,0,rob ver 1A,2013-12-11 13:56:00,
2013-12-11 06:57:00,48.7,16.4,29.62,WNW,286,7.0,8.3,27,-99.99,,,0.00,0,rob ver 1B,2013-12-11 13:57:00,
2013-12-11 06:58:00,48.7,16.4,29.62,WNW,282,7.0,8.3,27,-99.99,,,0.00,0,rob ver 1B,2013-12-11 13:58:00,
2013-12-11 06:59:00,48.7,16.4,29.62,West,278,7.0,8.3,27,-99.99,,,0.00,0,rob ver 1B,2013-12-11 13:59:00,
2013-12-11 07:00:00,48.7,16.4,29.62,West,274,6.6,8.4,27,-99.99,,,0.00,0,rob ver 1B,2013-12-11 14:00:00,
2013-12-11 07:01:00,43.1,8.9,29.65,NW,306,13.1,15.9,23,-99.99,,,0.00,0,rob ver 1A,2013-12-11 14:01:00,
2013-12-11 07:02:00,48.5,16.2,29.62,West,277,7.3,9.8,27,-99.99,,,0.00,0,rob ver 1B,2013-12-11 14:02:00,
2013-12-11 07:03:00,48.6,16.1,29.62,West,279,8.0,9.7,26,-99.99,,,0.00,0,rob ver 1B,2013-12-11 14:03:00,
2013-12-11 07:04:00,48.7,16.0,29.62,WNW,285,9.0,10.7,26,-99.99,,,0.00,0,rob ver 1B,2013-12-11 14:04:00,
2013-12-11 07:05:00,48.7,16.1,29.62,WNW,286,8.0,9.2,26,-99.99,,,0.00,0,rob ver 1B,2013-12-11 14:05:00,
2013-12-11 07:06:00,43.3,8.8,29.65,NW,304,13.0,16.2,24,-99.99,,,0.00,0,rob ver 1A,2013-12-11 14:06:00,
2013-12-11 07:07:00,48.8,16.0,29.62,WNW,290,8.2,10.4,26,-99.99,,,0.00,0,rob ver 1B,2013-12-11 14:07:00,
2013-12-11 07:08:00,48.8,16.1,29.62,WNW,291,8.5,10.9,26,-99.99,,,0.00,0,rob ver 1B,2013-12-11 14:08:00,
2013-12-11 07:09:00,48.7,16.0,29.62,WNW,290,8.2,9.8,26,-99.99,,,0.00,0,rob ver 1B,2013-12-11 14:09:00,
2013-12-11 07:10:00,48.8,15.9,29.62,WNW,293,8.9,11.1,26,-99.99,,,0.00,0,rob ver 1B,2013-12-11 14:10:00,
2013-12-11 07:11:00,43.6,8.6,29.65,NW,307,14.4,20.0,23,-99.99,,,0.00,0,rob ver 1A,2013-12-11 14:11:00,
2013-12-11 07:12:00,48.7,16.0,29.62,WNW,291,8.2,9.8,26,-99.99,,,0.00,0,rob ver 1B,2013-12-11 14:12:00,
2013-12-11 07:13:00,48.7,16.0,29.62,WNW,288,9.3,11.8,26,-99.99,,,0.00,0,rob ver 1B,2013-12-11 14:13:00,
2013-12-11 07:14:00,48.7,15.9,29.62,WNW,283,8.6,10.7,26,-99.99,,,0.00,0,rob ver 1B,2013-12-11 14:14:00,
2013-12-11 07:15:00,48.7,15.9,29.62,West,281,8.5,9.7,26,-99.99,,,0.00,.165,rob ver 1B,2013-12-11 14:15:00,
2013-12-11 07:16:00,43.8,8.5,29.65,NW,306,14.4,17.4,23,-99.99,,,0.00,.66,rob ver 1A,2013-12-11 14:16:00,
2013-12-11 07:17:00,48.7,15.9,29.62,West,274,8.7,10.1,26,-99.99,,,0.00,.33,rob ver 1B,2013-12-11 14:17:00,
2013-12-11 07:18:00,48.6,15.9,29.62,West,272,8.7,11.9,26,-99.99,,,0.00,.33,rob ver 1B,2013-12-11 14:18:00,
2013-12-11 07:19:00,48.7,15.9,29.62,West,270,8.2,10.0,27,-99.99,,,0.00,.33,rob ver 1B,2013-12-11 14:19:00,
2013-12-11 07:20:00,48.6,16.0,29.62,West,269,8.1,9.1,26,-99.99,,,0.00,.99,rob ver 1B,2013-12-11 14:20:00,
2013-12-11 07:21:00,43.9,8.5,29.65,WNW,303,14.9,18.5,22,-99.99,,,0.00,1.321,rob ver 1A,2013-12-11 14:21:00,
2013-12-11 07:22:00,48.5,16.1,29.65,West,273,8.5,10.0,27,-99.99,,,0.00,1.485,rob ver 1B,2013-12-11 14:22:00,
2013-12-11 07:23:00,48.4,16.1,29.62,West,276,8.7,10.2,27,-99.99,,,0.00,1.65,rob ver 1B,2013-12-11 14:23:00,
2013-12-11 07:24:00,48.4,16.2,29.65,West,279,8.0,9.6,27,-99.99,,,0.00,1.815,rob ver 1B,2013-12-11 14:24:00,
2013-12-11 07:25:00,48.3,16.3,29.65,WNW,282,7.6,8.9,27,-99.99,,,0.00,2.311,rob ver 1B,2013-12-11 14:25:00,
2013-12-11 07:26:00,43.5,8.7,29.65,NW,305,12.3,14.7,23,-99.99,,,0.00,4.292,rob ver 1A,2013-12-11 14:26:00,
2013-12-11 07:27:00,48.3,16.3,29.62,WNW,286,7.1,8.8,27,-99.99,,,0.00,3.301,rob ver 1B,2013-12-11 14:27:00,
2013-12-11 07:28:00,48.2,16.2,29.62,WNW,287,7.5,9.4,27,-99.99,,,0.00,4.126,rob ver 1B,2013-12-11 14:28:00,
2013-12-11 07:29:00,48.3,16.0,29.62,WNW,288,8.3,11.0,27,-99.99,,,0.00,4.456,rob ver 1B,2013-12-11 14:29:00,
2013-12-11 07:30:00,48.4,16.1,29.62,WNW,289,7.7,9.2,27,-99.99,,,0.00,5.446,rob ver 1B,2013-12-11 14:30:00,
2013-12-11 07:31:00,48.4,16.1,29.62,WNW,290,7.2,8.7,27,-99.99,,,0.00,6.272,rob ver 1B,2013-12-11 14:31:00,
2013-12-11 07:32:00,43.1,8.9,29.68,WNW,303,11.1,13.2,24,-99.99,,,0.00,7.43,rob ver 1A,2013-12-11 14:32:00,
2013-12-11 07:33:00,48.4,16.2,29.62,WNW,293,6.3,7.6,27,-99.99,,,0.00,7.59,rob ver 1B,2013-12-11 14:33:00,
2013-12-11 07:34:00,48.4,16.2,29.62,WNW,291,6.1,7.5,27,-99.99,,,0.00,9.57,rob ver 1B,2013-12-11 14:34:00,
2013-12-11 07:35:00,48.4,16.2,29.62,WNW,290,6.4,7.7,27,-99.99,,,0.00,12.38,rob ver 1B,2013-12-11 14:35:00,
2013-12-11 07:36:00,48.4,16.2,29.62,WNW,289,6.7,8.1,27,-99.99,,,0.00,14.85,rob ver 1B,2013-12-11 14:36:00,
2013-12-11 07:37:00,43.1,9.1,29.68,WNW,298,11.3,13.4,24,-99.99,,,0.00,20.14,rob ver 1A,2013-12-11 14:37:00,
2013-12-11 07:38:00,48.5,16.2,29.62,WNW,295,6.2,7.4,27,-99.99,,,0.00,22.78,rob ver 1B,2013-12-11 14:38:00,
2013-12-11 07:39:00,48.6,16.2,29.62,WNW,294,6.1,7.6,27,-99.99,,,0.00,25.42,rob ver 1B,2013-12-11 14:39:00,
2013-12-11 07:40:00,48.7,16.3,29.62,WNW,292,6.2,7.6,26,-99.99,,,0.00,28.72,rob ver 1B,2013-12-11 14:40:00,
2013-12-11 07:41:00,48.8,16.2,29.65,WNW,292,6.6,7.7,26,-99.99,,,0.00,31.36,rob ver 1B,2013-12-11 14:41:00,
2013-12-11 07:42:00,43.3,9.3,29.68,WNW,292,10.3,12.1,24,-99.99,,,0.00,34.67,rob ver 1A,2013-12-11 14:42:00,
2013-12-11 07:43:00,48.9,16.3,29.62,WNW,291,7.0,8.7,27,-99.99,,,0.00,35.32,rob ver 1B,2013-12-11 14:43:00,
2013-12-11 07:44:00,49.0,16.3,29.62,WNW,291,7.0,8.2,26,-99.99,,,0.00,37.96,rob ver 1B,2013-12-11 14:44:00,
2013-12-11 07:45:00,49.1,16.4,29.65,WNW,290,6.5,7.9,26,-99.99,,,0.00,41.26,rob ver 1B,2013-12-11 14:45:00,
2013-12-11 07:46:00,49.1,16.4,29.62,WNW,290,7.3,8.9,26,-99.99,,,0.00,44.56,rob ver 1B,2013-12-11 14:46:00,
2013-12-11 07:47:00,43.2,9.5,29.68,WNW,295,11.4,13.5,24,-99.99,,,0.00,47.55,rob ver 1A,2013-12-11 14:47:00,
2013-12-11 07:48:00,49.2,16.4,29.65,WNW,282,5.9,7.0,26,-99.99,,,0.00,50.83,rob ver 1B,2013-12-11 14:48:00,
2013-12-11 07:49:00,49.3,16.3,29.62,WNW,284,7.4,8.9,26,-99.99,,,0.00,53.64,rob ver 1B,2013-12-11 14:49:00,
2013-12-11 07:50:00,49.4,16.4,29.62,WNW,288,7.3,8.2,26,-99.99,,,0.00,56.28,rob ver 1B,2013-12-11 14:50:00,
2013-12-11 07:51:00,49.5,16.4,29.65,WNW,288,7.7,10.5,26,-99.99,,,0.00,59.25,rob ver 1B,2013-12-11 14:51:00,
2013-12-11 07:52:00,43.2,9.6,29.68,WNW,292,10.9,13.3,24,-99.99,,,0.00,59.76,rob ver 1A,2013-12-11 14:52:00,
2013-12-11 07:53:00,49.6,16.3,29.62,WNW,286,8.0,10.0,26,-99.99,,,0.00,65.03,rob ver 1B,2013-12-11 14:53:00,
2013-12-11 07:54:00,49.7,16.3,29.62,WNW,285,8.3,9.5,26,-99.99,,,0.00,67.67,rob ver 1B,2013-12-11 14:54:00,
2013-12-11 07:55:00,49.8,16.4,29.65,WNW,289,8.4,10.6,26,-99.99,,,0.00,71,rob ver 1B,2013-12-11 14:55:00,
2013-12-11 07:56:00,49.8,16.5,29.62,WNW,284,8.3,10.8,26,-99.99,,,0.00,74.3,rob ver 1B,2013-12-11 14:56:00,
2013-12-11 07:57:00,43.5,9.4,29.68,WNW,294,12.5,14.7,24,-99.99,,,0.00,75,rob ver 1A,2013-12-11 14:57:00,
2013-12-11 07:58:00,49.9,16.6,29.65,West,277,8.4,10.1,26,-99.99,,,0.00,80.2,rob ver 1B,2013-12-11 14:58:00,
2013-12-11 07:59:00,49.9,16.6,29.62,West,275,9.1,11.1,26,-99.99,,,0.00,82.2,rob ver 1B,2013-12-11 14:59:00,
2013-12-11 08:00:00,49.9,16.8,29.62,West,269,7.9,10.0,27,-99.99,,,0.00,84.2,rob ver 1B,2013-12-11 15:00:00,
2013-12-11 08:01:00,49.8,18.0,29.65,WSW,254,5.5,6.6,28,-99.99,,,0.00,86.8,rob ver 1B,2013-12-11 15:01:00,
2013-12-11 08:02:00,43.9,9.5,29.68,WNW,292,11.2,13.2,23,-99.99,,,0.00,91,rob ver 1A,2013-12-11 15:02:00,
2013-12-11 08:03:00,49.4,18.0,29.65,West,259,5.9,6.9,28,-99.99,,,0.00,92.1,rob ver 1B,2013-12-11 15:03:00,
2013-12-11 08:04:00,49.3,18.0,29.65,West,263,5.3,6.7,28,-99.99,,,0.00,95.4,rob ver 1B,2013-12-11 15:04:00,
2013-12-11 08:05:00,49.2,17.9,29.65,West,268,6.2,7.8,28,-99.99,,,0.00,99.4,rob ver 1B,2013-12-11 15:05:00,
2013-12-11 08:06:00,49.2,17.9,29.65,West,270,6.3,7.6,28,-99.99,,,0.00,103,rob ver 1B,2013-12-11 15:06:00,
2013-12-11 08:07:00,44.2,9.3,29.68,WNW,290,12.1,13.8,23,-99.99,,,0.00,110.6,rob ver 1A,2013-12-11 15:07:00,
2013-12-11 08:08:00,49.3,17.9,29.65,WNW,283,5.7,6.7,28,-99.99,,,0.00,108.9,rob ver 1B,2013-12-11 15:08:00,
2013-12-11 08:09:00,49.4,18.0,29.65,WNW,287,5.5,6.4,28,-99.99,,,0.00,109.9,rob ver 1B,2013-12-11 15:09:00,
2013-12-11 08:10:00,49.4,18.1,29.65,WNW,296,5.4,6.8,28,-99.99,,,0.00,108.9,rob ver 1B,2013-12-11 15:10:00,
2013-12-11 08:11:00,49.5,18.1,29.65,WNW,300,5.1,6.0,28,-99.99,,,0.00,76.9,rob ver 1B,2013-12-11 15:11:00,
2013-12-11 08:12:00,44.7,9.1,29.68,WNW,290,12.7,15.5,22,-99.99,,,0.00,112.1,rob ver 1A,2013-12-11 15:12:00,
2013-12-11 08:13:00,49.3,18.4,29.65,WNW,299,4.2,5.1,29,-99.99,,,0.00,49.68,rob ver 1B,2013-12-11 15:13:00,
2013-12-11 08:14:00,44.9,9.2,29.68,WNW,292,12.3,15.5,22,-99.99,,,0.00,139,rob ver 1A,2013-12-11 15:14:00,
2013-12-11 08:15:00,49.0,18.4,29.65,WNW,293,4.1,4.6,28,-99.99,,,0.00,49.84,rob ver 1B,2013-12-11 15:15:00,
2013-12-11 08:16:00,49.0,18.5,29.65,WNW,291,3.9,4.7,29,-99.99,,,0.00,49.84,rob ver 1B,2013-12-11 15:16:00,
2013-12-11 08:17:00,49.0,18.4,29.65,WNW,294,4.1,4.9,29,-99.99,,,0.00,50.83,rob ver 1B,2013-12-11 15:17:00,
2013-12-11 08:18:00,49.0,18.4,29.65,WNW,286,4.0,5.5,29,-99.99,,,0.00,51.82,rob ver 1B,2013-12-11 15:18:00,
2013-12-11 08:19:00,45.4,9.2,29.68,WNW,292,12.5,15.1,22,-99.99,,,0.00,151.5,rob ver 1A,2013-12-11 15:19:00,
2013-12-11 08:20:00,49.2,18.5,29.65,WNW,283,3.9,5.8,29,-99.99,,,0.00,53.8,rob ver 1B,2013-12-11 15:20:00,
2013-12-11 08:21:00,49.2,17.8,29.65,WNW,290,5.9,7.6,28,-99.99,,,0.00,54.8,rob ver 1B,2013-12-11 15:21:00,
2013-12-11 08:22:00,49.3,17.7,29.65,WNW,289,6.5,7.9,28,-99.99,,,0.00,55.62,rob ver 1B,2013-12-11 15:22:00,
2013-12-11 08:23:00,49.4,17.7,29.65,WNW,288,6.1,7.3,27,-99.99,,,0.00,55.79,rob ver 1B,2013-12-11 15:23:00,
2013-12-11 08:24:00,49.4,17.9,29.65,WNW,288,6.1,7.4,28,-99.99,,,0.00,57.11,rob ver 1B,2013-12-11 15:24:00,
2013-12-11 08:25:00,45.6,9.6,29.68,WNW,289,11.6,13.7,22,-99.99,,,0.00,162.8,rob ver 1A,2013-12-11 15:25:00,
2013-12-11 08:26:00,49.5,17.8,29.65,WNW,292,5.9,6.7,28,-99.99,,,0.00,62.06,rob ver 1B,2013-12-11 15:26:00,
2013-12-11 08:27:00,49.5,17.7,29.65,WNW,289,6.6,8.1,28,-99.99,,,0.00,63.71,rob ver 1B,2013-12-11 15:27:00,
2013-12-11 08:28:00,49.6,17.8,29.65,WNW,290,6.5,8.2,27,-99.99,,,0.00,66.34,rob ver 1B,2013-12-11 15:28:00,
2013-12-11 08:29:00,49.6,17.6,29.65,WNW,290,7.3,8.4,28,-99.99,,,0.00,67.83,rob ver 1B,2013-12-11 15:29:00,
2013-12-11 08:30:00,46.0,9.2,29.68,WNW,288,13.5,16.8,21,-99.99,,,0.00,177.5,rob ver 1A,2013-12-11 15:30:00,
2013-12-11 08:31:00,49.7,17.7,29.65,WNW,297,7.6,9.5,27,-99.99,,,0.00,71.6,rob ver 1B,2013-12-11 15:31:00,
2013-12-11 08:32:00,49.7,17.6,29.65,WNW,295,7.8,10.0,27,-99.99,,,0.00,73.6,rob ver 1B,2013-12-11 15:32:00,
2013-12-11 08:33:00,49.8,17.7,29.65,WNW,292,7.9,9.0,27,-99.99,,,0.00,75.6,rob ver 1B,2013-12-11 15:33:00,
2013-12-11 08:34:00,49.9,17.6,29.65,WNW,288,8.1,10.2,27,-99.99,,,0.00,77.6,rob ver 1B,2013-12-11 15:34:00,
2013-12-11 08:35:00,46.4,9.1,29.68,WNW,290,13.2,15.7,21,-99.99,,,0.00,190.5,rob ver 1A,2013-12-11 15:35:00,
2013-12-11 08:36:00,50.0,17.7,29.65,WNW,294,8.0,10.5,27,-99.99,,,0.00,78.2,rob ver 1B,2013-12-11 15:36:00,
2013-12-11 08:37:00,50.0,17.5,29.65,WNW,292,8.5,9.6,26,-99.99,,,0.00,77.6,rob ver 1B,2013-12-11 15:37:00,
2013-12-11 08:38:00,50.1,17.5,29.65,WNW,289,8.3,10.3,26,-99.99,,,0.00,77.2,rob ver 1B,2013-12-11 15:38:00,
2013-12-11 08:39:00,50.2,17.4,29.65,WNW,288,8.6,10.4,27,-99.99,,,0.00,77.9,rob ver 1B,2013-12-11 15:39:00,
2013-12-11 08:40:00,46.8,9.2,29.68,WNW,294,12.1,14.5,21,-99.99,,,0.00,200.4,rob ver 1A,2013-12-11 15:40:00,
2013-12-11 08:41:00,50.3,17.6,29.65,WNW,286,7.8,9.0,26,-99.99,,,0.00,83.5,rob ver 1B,2013-12-11 15:41:00,
2013-12-11 08:42:00,50.3,17.4,29.65,WNW,288,7.5,9.3,26,-99.99,,,0.00,87.5,rob ver 1B,2013-12-11 15:42:00,
2013-12-11 08:43:00,50.4,17.2,29.65,WNW,288,8.8,10.2,26,-99.99,,,0.00,92.1,rob ver 1B,2013-12-11 15:43:00,
2013-12-11 08:44:00,50.5,17.4,29.65,WNW,288,8.0,10.3,26,-99.99,,,0.00,96.1,rob ver 1B,2013-12-11 15:44:00,
2013-12-11 08:45:00,47.1,9.2,29.68,WNW,297,14.5,17.2,21,-99.99,,,0.00,223.5,rob ver 1A,2013-12-11 15:45:00,
2013-12-11 08:46:00,50.6,17.4,29.65,WNW,286,8.3,10.3,26,-99.99,,,0.00,104.6,rob ver 1B,2013-12-11 15:46:00,
2013-12-11 08:47:00,50.7,17.1,29.65,West,280,8.7,11.2,25,-99.99,,,0.00,108.8,rob ver 1B,2013-12-11 15:47:00,
2013-12-11 08:48:00,50.8,17.2,29.65,WNW,284,8.5,9.6,26,-99.99,,,0.00,112.4,rob ver 1B,2013-12-11 15:48:00,
2013-12-11 08:49:00,50.8,17.3,29.65,WNW,286,9.0,10.5,26,-99.99,,,0.00,115.2,rob ver 1B,2013-12-11 15:49:00,
2013-12-11 08:50:00,47.2,9.1,29.68,WNW,296,14.1,17.9,20,-99.99,,,0.00,176.6,rob ver 1A,2013-12-11 15:50:00,
2013-12-11 08:51:00,51.0,17.4,29.65,WNW,284,7.7,10.0,26,-99.99,,,0.00,120.5,rob ver 1B,2013-12-11 15:51:00,
2013-12-11 08:52:00,51.0,17.2,29.65,West,281,9.1,11.5,25,-99.99,,,0.00,122.9,rob ver 1B,2013-12-11 15:52:00,
2013-12-11 08:53:00,51.1,17.5,29.65,WNW,282,8.0,9.2,26,-99.99,,,0.00,124.4,rob ver 1B,2013-12-11 15:53:00,
2013-12-11 08:54:00,51.2,17.4,29.65,WNW,284,8.8,12.1,26,-99.99,,,0.00,125.6,rob ver 1B,2013-12-11 15:54:00,
2013-12-11 08:55:00,47.5,8.7,29.68,WNW,296,16.7,21.1,20,-99.99,,,0.00,123.1,rob ver 1A,2013-12-11 15:55:00,
2013-12-11 08:56:00,51.3,17.3,29.65,WNW,288,9.0,10.5,25,-99.99,,,0.00,123.9,rob ver 1B,2013-12-11 15:56:00,
2013-12-11 08:57:00,51.4,17.2,29.65,WNW,286,8.9,11.1,25,-99.99,,,0.00,121.8,rob ver 1B,2013-12-11 15:57:00,
2013-12-11 08:58:00,51.4,17.1,29.65,WNW,284,8.8,11.3,25,-99.99,,,0.00,118.5,rob ver 1B,2013-12-11 15:58:00,
2013-12-11 08:59:00,51.5,17.4,29.65,WNW,286,7.8,9.5,25,-99.99,,,0.00,116.5,rob ver 1B,2013-12-11 15:59:00,
2013-12-11 09:00:00,47.5,10.4,29.68,WNW,282,10.9,13.4,22,-99.99,,,0.00,194.5,rob ver 1A,2013-12-11 16:00:00,
2013-12-11 09:01:00,51.6,17.2,29.65,WNW,296,9.5,11.4,25,-99.99,,,0.00,115.2,rob ver 1B,2013-12-11 16:01:00,
2013-12-11 09:02:00,51.6,17.3,29.65,WNW,294,8.6,10.3,25,-99.99,,,0.00,115.8,rob ver 1B,2013-12-11 16:02:00,
2013-12-11 09:03:00,51.7,17.2,29.65,WNW,291,8.7,10.3,25,-99.99,,,0.00,117.2,rob ver 1B,2013-12-11 16:03:00,
2013-12-11 09:04:00,51.7,17.2,29.65,WNW,287,7.8,9.5,25,-99.99,,,0.00,118.5,rob ver 1B,2013-12-11 16:04:00,
2013-12-11 09:05:00,47.3,10.7,29.68,West,277,10.8,12.8,22,-99.99,,,0.00,169.4,rob ver 1A,2013-12-11 16:05:00,
2013-12-11 09:06:00,51.7,17.7,29.65,WNW,290,7.2,9.1,25,-99.99,,,0.00,120.1,rob ver 1B,2013-12-11 16:06:00,
2013-12-11 09:07:00,51.8,17.7,29.65,WNW,290,7.8,9.7,25,-99.99,,,0.00,119.8,rob ver 1B,2013-12-11 16:07:00,
2013-12-11 09:08:00,51.8,17.7,29.65,WNW,291,7.9,9.6,25,-99.99,,,0.00,120.5,rob ver 1B,2013-12-11 16:08:00,
2013-12-11 09:09:00,51.8,17.5,29.65,WNW,292,8.2,9.3,25,-99.99,,,0.00,119.8,rob ver 1B,2013-12-11 16:09:00,
2013-12-11 09:10:00,47.2,10.1,29.68,West,273,12.3,15.2,22,-99.99,,,0.00,147.6,rob ver 1A,2013-12-11 16:10:00,
2013-12-11 09:11:00,51.9,17.5,29.65,WNW,291,8.4,10.2,25,-99.99,,,0.00,120.3,rob ver 1B,2013-12-11 16:11:00,
2013-12-11 09:12:00,51.9,17.6,29.65,WNW,287,8.2,9.5,25,-99.99,,,0.00,122.4,rob ver 1B,2013-12-11 16:12:00,
2013-12-11 09:13:00,51.9,17.7,29.65,WNW,286,7.6,8.9,25,-99.99,,,0.00,126.4,rob ver 1B,2013-12-11 16:13:00,
2013-12-11 09:14:00,51.9,18.0,29.65,WNW,284,7.4,9.4,26,-99.99,,,0.00,129.7,rob ver 1B,2013-12-11 16:14:00,
2013-12-11 09:15:00,47.4,10.2,29.68,West,279,12.2,13.8,22,-99.99,,,0.00,161.6,rob ver 1A,2013-12-11 16:15:00,
2013-12-11 09:16:00,52.0,17.7,29.65,WNW,288,7.8,9.3,25,-99.99,,,0.00,134.8,rob ver 1B,2013-12-11 16:16:00,
2013-12-11 09:17:00,52.0,17.3,29.65,WNW,291,9.2,11.1,24,-99.99,,,0.00,136,rob ver 1B,2013-12-11 16:17:00,
2013-12-11 09:18:00,52.1,17.5,29.65,WNW,291,8.3,10.6,25,-99.99,,,0.00,135.8,rob ver 1B,2013-12-11 16:18:00,
2013-12-11 09:19:00,52.1,17.4,29.65,WNW,295,8.4,10.0,25,-99.99,,,0.00,134.5,rob ver 1B,2013-12-11 16:19:00,
2013-12-11 09:20:00,47.7,10.6,29.68,West,279,12.3,14.4,21,-99.99,,,0.00,189.5,rob ver 1A,2013-12-11 16:20:00,
2013-12-11 09:21:00,52.2,17.5,29.65,WNW,300,8.2,9.2,25,-99.99,,,0.00,131.7,rob ver 1B,2013-12-11 16:21:00,
2013-12-11 09:22:00,52.2,17.2,29.65,WNW,299,9.3,10.5,24,-99.99,,,0.00,131.7,rob ver 1B,2013-12-11 16:22:00,
2013-12-11 09:23:00,52.2,17.7,29.65,WNW,298,6.9,8.4,25,-99.99,,,0.00,133,rob ver 1B,2013-12-11 16:23:00,
2013-12-11 09:24:00,52.3,17.2,29.65,WNW,297,8.9,11.1,24,-99.99,,,0.00,133.7,rob ver 1B,2013-12-11 16:24:00,
2013-12-11 09:25:00,52.3,17.0,29.65,WNW,296,8.3,9.8,24,-99.99,,,0.00,134.3,rob ver 1B,2013-12-11 16:25:00,
2013-12-11 09:26:00,48.2,10.9,29.68,WNW,282,11.0,13.7,22,-99.99,,,0.00,257.2,rob ver 1A,2013-12-11 16:26:00,
2013-12-11 09:27:00,52.4,17.3,29.65,WNW,294,8.2,10.6,24,-99.99,,,0.00,135.3,rob ver 1B,2013-12-11 16:27:00,
2013-12-11 09:28:00,52.5,17.0,29.65,WNW,293,9.1,10.6,24,-99.99,,,0.00,136.3,rob ver 1B,2013-12-11 16:28:00,
2013-12-11 09:29:00,52.5,17.4,29.65,WNW,289,8.2,10.0,24,-99.99,,,0.00,137.6,rob ver 1B,2013-12-11 16:29:00,
2013-12-11 09:30:00,52.5,17.1,29.65,WNW,283,8.9,10.7,24,-99.99,,,0.00,139.1,rob ver 1B,2013-12-11 16:30:00,
2013-12-11 09:31:00,48.4,11.3,29.71,WNW,283,11.9,13.7,21,-99.99,,,0.00,267.1,rob ver 1A,2013-12-11 16:31:00,
2013-12-11 09:32:00,52.5,17.0,29.65,WNW,285,9.6,11.7,24,-99.99,,,0.00,142.6,rob ver 1B,2013-12-11 16:32:00,
2013-12-11 09:33:00,52.6,17.1,29.65,WNW,284,9.2,12.1,24,-99.99,,,0.00,144.2,rob ver 1B,2013-12-11 16:33:00,
2013-12-11 09:34:00,52.6,17.0,29.65,WNW,283,10.0,11.7,24,-99.99,,,0.00,145.5,rob ver 1B,2013-12-11 16:34:00,
2013-12-11 09:35:00,52.6,17.2,29.65,WNW,285,9.6,11.0,24,-99.99,,,0.00,147,rob ver 1B,2013-12-11 16:35:00,
2013-12-11 09:36:00,49.0,11.6,29.71,West,278,11.0,13.0,21,-99.99,,,0.00,236.7,rob ver 1A,2013-12-11 16:36:00,
2013-12-11 09:37:00,52.7,17.3,29.65,WNW,290,10.2,12.5,24,-99.99,,,0.00,150,rob ver 1B,2013-12-11 16:37:00,
2013-12-11 09:38:00,52.7,17.3,29.65,WNW,289,9.9,11.4,24,-99.99,,,0.00,151.5,rob ver 1B,2013-12-11 16:38:00,
2013-12-11 09:39:00,52.7,17.3,29.65,WNW,292,9.3,11.1,24,-99.99,,,0.00,152.8,rob ver 1B,2013-12-11 16:39:00,
2013-12-11 09:40:00,52.8,17.6,29.65,WNW,290,8.3,10.5,24,-99.99,,,0.00,154.5,rob ver 1B,2013-12-11 16:40:00,
2013-12-11 09:41:00,50.1,10.8,29.71,WNW,298,13.9,18.6,18,-99.99,,,0.00,338.8,rob ver 1A,2013-12-11 16:41:00,
2013-12-11 09:42:00,52.9,17.8,29.65,WNW,286,8.0,9.5,24,-99.99,,,0.00,160.7,rob ver 1B,2013-12-11 16:42:00,
2013-12-11 09:43:00,52.9,17.6,29.65,WNW,286,9.4,12.1,24,-99.99,,,0.00,164.7,rob ver 1B,2013-12-11 16:43:00,
2013-12-11 09:44:00,53.0,17.4,29.65,WNW,288,10.2,12.0,24,-99.99,,,0.00,169.6,rob ver 1B,2013-12-11 16:44:00,
2013-12-11 09:45:00,53.0,17.3,29.65,WNW,291,10.1,12.4,24,-99.99,,,0.00,173.6,rob ver 1B,2013-12-11 16:45:00,
2013-12-11 09:46:00,51.2,9.3,29.71,NW,306,15.3,17.9,18,-99.99,,,0.00,355,rob ver 1A,2013-12-11 16:46:00,
2013-12-11 09:47:00,53.0,17.6,29.65,WNW,285,10.0,11.7,24,-99.99,,,0.00,181.2,rob ver 1B,2013-12-11 16:47:00,
2013-12-11 09:48:00,53.1,17.9,29.65,WNW,283,9.2,10.7,24,-99.99,,,0.00,184.8,rob ver 1B,2013-12-11 16:48:00,
2013-12-11 09:49:00,53.2,17.8,29.65,West,281,9.3,10.7,24,-99.99,,,0.00,187.8,rob ver 1B,2013-12-11 16:49:00,
2013-12-11 09:50:00,53.2,17.8,29.65,WNW,283,9.4,11.7,24,-99.99,,,0.00,192.7,rob ver 1B,2013-12-11 16:50:00,
2013-12-11 09:51:00,51.9,9.1,29.71,WNW,303,16.8,19.8,17,-99.99,,,0.00,483.4,rob ver 1A,2013-12-11 16:51:00,
2013-12-11 09:52:00,53.2,17.4,29.65,WNW,285,11.2,13.3,24,-99.99,,,0.00,195.4,rob ver 1B,2013-12-11 16:52:00,
2013-12-11 09:53:00,53.2,17.5,29.65,WNW,291,11.5,13.2,24,-99.99,,,0.00,197.7,rob ver 1B,2013-12-11 16:53:00,
2013-12-11 09:54:00,53.3,17.7,29.65,West,281,10.5,12.0,24,-99.99,,,0.00,198.3,rob ver 1B,2013-12-11 16:54:00,
2013-12-11 09:55:00,53.3,17.7,29.65,WNW,283,10.2,12.0,24,-99.99,,,0.00,200.7,rob ver 1B,2013-12-11 16:55:00,
2013-12-11 09:56:00,52.3,9.2,29.71,WNW,301,15.8,19.1,17,-99.99,,,0.00,533.4,rob ver 1A,2013-12-11 16:56:00,
2013-12-11 09:57:00,53.5,17.7,29.65,West,281,10.5,12.3,24,-99.99,,,0.00,208.9,rob ver 1B,2013-12-11 16:57:00,
2013-12-11 09:58:00,53.7,17.5,29.65,West,279,10.5,13.6,23,-99.99,,,0.00,214.8,rob ver 1B,2013-12-11 16:58:00,
2013-12-11 09:59:00,53.7,17.5,29.68,West,277,10.6,12.0,23,-99.99,,,0.00,206.6,rob ver 1B,2013-12-11 16:59:00,
2013-12-11 10:00:00,53.9,17.7,29.68,WNW,283,11.0,12.9,23,-99.99,,,0.00,206.3,rob ver 1B,2013-12-11 17:00:00,
2013-12-11 10:01:00,52.6,9.2,29.71,WNW,300,16.1,21.6,16,-99.99,,,0.00,511.1,rob ver 1A,2013-12-11 17:01:00,
2013-12-11 10:02:00,53.9,18.0,29.68,West,270,9.6,11.3,24,-99.99,,,0.00,207.6,rob ver 1B,2013-12-11 17:02:00,
2013-12-11 10:03:00,54.0,17.6,29.68,West,275,9.9,12.4,23,-99.99,,,0.00,208.2,rob ver 1B,2013-12-11 17:03:00,
2013-12-11 10:04:00,54.1,17.7,29.68,West,278,10.2,13.0,23,-99.99,,,0.00,207.6,rob ver 1B,2013-12-11 17:04:00,
2013-12-11 10:05:00,54.1,17.7,29.68,West,277,10.5,12.4,23,-99.99,,,0.00,207.9,rob ver 1B,2013-12-11 17:05:00,
2013-12-11 10:06:00,52.6,8.8,29.71,WNW,294,17.6,20.5,16,-99.99,,,0.00,501.2,rob ver 1A,2013-12-11 17:06:00,
2013-12-11 10:07:00,54.2,17.6,29.68,WNW,282,10.1,11.9,23,-99.99,,,0.00,209.9,rob ver 1B,2013-12-11 17:07:00,
2013-12-11 10:08:00,54.2,17.8,29.68,WNW,284,9.6,12.0,23,-99.99,,,0.00,210.6,rob ver 1B,2013-12-11 17:08:00,
2013-12-11 10:09:00,54.2,17.7,29.68,West,277,10.3,11.8,23,-99.99,,,0.00,209.9,rob ver 1B,2013-12-11 17:09:00,
2013-12-11 10:10:00,54.3,17.7,29.68,West,274,10.7,13.3,23,-99.99,,,0.00,208.6,rob ver 1B,2013-12-11 17:10:00,
2013-12-11 10:11:00,52.5,8.3,29.71,WNW,301,19.6,26.1,16,-99.99,,,0.00,491.8,rob ver 1A,2013-12-11 17:11:00,
2013-12-11 10:12:00,54.2,17.8,29.68,West,278,9.6,11.3,23,-99.99,,,0.00,204.9,rob ver 1B,2013-12-11 17:12:00,
2013-12-11 10:13:00,54.3,18.0,29.68,West,279,9.4,11.4,23,-99.99,,,0.00,203.5,rob ver 1B,2013-12-11 17:13:00,
2013-12-11 10:14:00,54.4,17.6,29.68,West,279,11.0,12.3,23,-99.99,,,0.00,202.6,rob ver 1B,2013-12-11 17:14:00,
2013-12-11 10:15:00,54.3,17.7,29.68,West,279,9.6,11.3,23,-99.99,,,0.00,204.9,rob ver 1B,2013-12-11 17:15:00,
2013-12-11 10:16:00,54.4,17.7,29.68,West,274,10.0,11.3,23,-99.99,,,0.00,207.9,rob ver 1B,2013-12-11 17:16:00,
2013-12-11 10:17:00,53.1,7.7,29.68,WNW,293,21.7,25.6,15,-99.99,,,0.00,487.6,rob ver 1A,2013-12-11 17:17:00,
2013-12-11 10:18:00,54.4,17.9,29.68,West,281,9.7,11.6,23,-99.99,,,0.00,216,rob ver 1B,2013-12-11 17:18:00,
2013-12-11 10:19:00,54.5,17.8,29.68,WNW,282,9.9,11.6,23,-99.99,,,0.00,221.8,rob ver 1B,2013-12-11 17:19:00,
2013-12-11 10:20:00,54.6,18.1,29.68,West,277,9.2,11.8,23,-99.99,,,0.00,227.1,rob ver 1B,2013-12-11 17:20:00,
2013-12-11 10:21:00,54.7,17.5,29.68,West,277,11.4,12.8,23,-99.99,,,0.00,233,rob ver 1B,2013-12-11 17:21:00,
2013-12-11 10:22:00,53.4,8.6,29.71,NW,304,16.6,22.1,15,-99.99,,,0.00,499,rob ver 1A,2013-12-11 17:22:00,
2013-12-11 10:23:00,54.8,17.8,29.68,West,276,9.2,11.1,23,-99.99,,,0.00,240.1,rob ver 1B,2013-12-11 17:23:00,
2013-12-11 10:24:00,54.9,17.5,29.68,West,271,10.5,13.1,22,-99.99,,,0.00,242.9,rob ver 1B,2013-12-11 17:24:00,
2013-12-11 10:25:00,55.0,17.5,29.68,West,275,10.5,13.0,22,-99.99,,,0.00,246.4,rob ver 1B,2013-12-11 17:25:00,
2013-12-11 10:26:00,55.1,17.4,29.68,WNW,282,10.6,12.1,22,-99.99,,,0.00,266.7,rob ver 1B,2013-12-11 17:26:00,
2013-12-11 10:27:00,53.2,7.6,29.71,WNW,297,18.1,22.1,15,-99.99,,,0.00,483.3,rob ver 1A,2013-12-11 17:27:00,
2013-12-11 10:28:00,55.2,17.7,29.68,WNW,285,8.9,10.9,22,-99.99,,,0.00,247.4,rob ver 1B,2013-12-11 17:28:00,
2013-12-11 10:29:00,55.3,17.8,29.68,West,278,8.8,10.9,22,-99.99,,,0.00,247.5,rob ver 1B,2013-12-11 17:29:00,
2013-12-11 10:30:00,55.4,17.8,29.68,West,276,9.3,11.2,22,-99.99,,,0.00,257.4,rob ver 1B,2013-12-11 17:30:00,
2013-12-11 10:31:00,55.5,17.7,29.68,WNW,290,10.4,12.1,22,-99.99,,,0.00,301.6,rob ver 1B,2013-12-11 17:31:00,
2013-12-11 10:32:00,54.0,7.7,29.71,WNW,290,17.0,20.3,15,-99.99,,,0.00,527.1,rob ver 1A,2013-12-11 17:32:00,
2013-12-11 10:33:00,55.6,17.8,29.68,WNW,284,9.8,12.3,22,-99.99,,,0.00,277.2,rob ver 1B,2013-12-11 17:33:00,
2013-12-11 10:34:00,55.8,17.9,29.68,WNW,285,9.6,11.5,22,-99.99,,,0.00,252.1,rob ver 1B,2013-12-11 17:34:00,
2013-12-11 10:35:00,55.9,17.9,29.68,WNW,285,8.6,10.0,22,-99.99,,,0.00,255.9,rob ver 1B,2013-12-11 17:35:00,
2013-12-11 10:36:00,56.0,18.1,29.65,WNW,284,9.5,11.9,22,-99.99,,,0.00,355.1,rob ver 1B,2013-12-11 17:36:00,
2013-12-11 10:37:00,54.5,7.7,29.71,WNW,294,17.2,20.1,14,-99.99,,,0.00,531.4,rob ver 1A,2013-12-11 17:37:00,
2013-12-11 10:38:00,56.5,18.8,29.65,WNW,286,7.8,8.7,22,-99.99,,,0.00,356.4,rob ver 1B,2013-12-11 17:38:00,
2013-12-11 10:39:00,56.8,18.6,29.65,West,281,8.9,11.1,21,-99.99,,,0.00,254.8,rob ver 1B,2013-12-11 17:39:00,
2013-12-11 10:40:00,56.9,18.3,29.65,WNW,284,9.5,11.9,22,-99.99,,,0.00,274.6,rob ver 1B,2013-12-11 17:40:00,
2013-12-11 10:41:00,56.8,18.4,29.65,West,281,9.1,10.8,21,-99.99,,,0.00,549.1,rob ver 1B,2013-12-11 17:41:00,
2013-12-11 10:42:00,54.5,7.7,29.71,WNW,292,17.9,22.9,14,-99.99,,,0.00,480.5,rob ver 1A,2013-12-11 17:42:00,
2013-12-11 10:43:00,56.6,18.3,29.65,West,268,10.2,11.5,22,-99.99,,,0.00,462.5,rob ver 1B,2013-12-11 17:43:00,
2013-12-11 10:44:00,56.6,18.4,29.65,West,272,9.6,11.5,22,-99.99,,,0.00,579,rob ver 1B,2013-12-11 17:44:00,
2013-12-11 10:45:00,56.8,18.7,29.65,West,268,9.6,11.5,22,-99.99,,,0.00,580.3,rob ver 1B,2013-12-11 17:45:00,
2013-12-11 10:46:00,57.1,18.7,29.65,West,269,9.7,11.0,21,-99.99,,,0.00,543,rob ver 1B,2013-12-11 17:46:00,
2013-12-11 10:47:00,54.1,7.4,29.71,WNW,297,19.6,24.4,15,-99.99,,,0.00,219.8,rob ver 1A,2013-12-11 17:47:00,
2013-12-11 10:48:00,53.9,7.6,29.71,WNW,298,16.9,21.3,15,-99.99,,,0.00,313.7,rob ver 1A,2013-12-11 17:48:00,
2013-12-11 10:49:00,57.5,18.7,29.65,West,262,11.0,13.2,21,-99.99,,,0.00,367.6,rob ver 1B,2013-12-11 17:49:00,
2013-12-11 10:50:00,57.5,18.7,29.65,West,266,11.0,13.2,21,-99.99,,,0.00,553.1,rob ver 1B,2013-12-11 17:50:00,
2013-12-11 10:51:00,57.6,18.3,29.65,West,267,11.9,13.8,21,-99.99,,,0.00,562.8,rob ver 1B,2013-12-11 17:51:00,
2013-12-11 10:52:00,57.8,18.6,29.65,West,268,10.7,13.0,21,-99.99,,,0.00,568.4,rob ver 1B,2013-12-11 17:52:00,
2013-12-11 10:53:00,54.0,7.6,29.71,WNW,295,16.7,19.3,15,-99.99,,,0.00,397,rob ver 1A,2013-12-11 17:53:00,
2013-12-11 10:54:00,58.1,18.4,29.65,West,274,10.6,12.8,20,-99.99,,,0.00,271.9,rob ver 1B,2013-12-11 17:54:00,
2013-12-11 10:55:00,58.2,18.4,29.65,West,277,9.8,11.4,20,-99.99,,,0.00,311.9,rob ver 1B,2013-12-11 17:55:00,
2013-12-11 10:56:00,58.2,18.0,29.65,West,278,11.7,13.8,20,-99.99,,,0.00,273.2,rob ver 1B,2013-12-11 17:56:00,
2013-12-11 10:57:00,58.1,18.2,29.65,West,273,11.0,13.2,21,-99.99,,,0.00,250.1,rob ver 1B,2013-12-11 17:57:00,
2013-12-11 10:58:00,58.0,17.8,29.65,West,280,12.7,14.7,20,-99.99,,,0.00,287.1,rob ver 1B,2013-12-11 17:58:00,
2013-12-11 10:59:00,54.4,7.7,29.71,WNW,302,17.8,20.6,14,-99.99,,,0.00,598.8,rob ver 1A,2013-12-11 17:59:00,
2013-12-11 11:00:00,58.1,17.7,29.65,West,274,12.1,14.8,20,-99.99,,,0.00,513,rob ver 1B,2013-12-11 18:00:00,
2013-12-11 11:01:00,58.2,17.4,29.65,West,275,12.2,14.5,19,-99.99,,,0.00,365.5,rob ver 1B,2013-12-11 18:01:00,
2013-12-11 11:02:00,58.4,17.9,29.65,WNW,286,11.5,13.8,20,-99.99,,,0.00,191.1,rob ver 1B,2013-12-11 18:02:00,
2013-12-11 11:03:00,58.5,18.0,29.65,West,281,10.9,14.1,19,-99.99,,,0.00,189.4,rob ver 1B,2013-12-11 18:03:00,
2013-12-11 11:04:00,54.2,7.5,29.68,WNW,302,19.1,22.8,14,-99.99,,,0.00,205.6,rob ver 1A,2013-12-11 18:04:00,
2013-12-11 11:05:00,58.6,17.1,29.65,WNW,285,12.7,17.5,19,-99.99,,,0.00,205.3,rob ver 1B,2013-12-11 18:05:00,
2013-12-11 11:06:00,58.7,16.4,29.65,WNW,293,13.8,16.8,18,-99.99,,,0.00,395.8,rob ver 1B,2013-12-11 18:06:00,
2013-12-11 11:07:00,58.9,16.2,29.65,WNW,288,12.9,15.5,18,-99.99,,,0.00,235.6,rob ver 1B,2013-12-11 18:07:00,
2013-12-11 11:08:00,59.0,16.0,29.65,WNW,290,14.0,17.4,18,-99.99,,,0.00,433.3,rob ver 1B,2013-12-11 18:08:00,
2013-12-11 11:09:00,54.2,7.9,29.68,WNW,301,18.0,22.8,16,-99.99,,,0.00,318.1,rob ver 1A,2013-12-11 18:09:00,
2013-12-11 11:10:00,59.3,15.9,29.65,WNW,302,13.6,15.8,17,-99.99,,,0.00,275.9,rob ver 1B,2013-12-11 18:10:00,
2013-12-11 11:11:00,59.4,15.9,29.65,WNW,290,12.9,15.8,17,-99.99,,,0.00,303.6,rob ver 1B,2013-12-11 18:11:00,
2013-12-11 11:12:00,59.3,15.6,29.65,WNW,292,13.8,16.7,17,-99.99,,,0.00,257.7,rob ver 1B,2013-12-11 18:12:00,
2013-12-11 11:13:00,59.3,15.6,29.65,WNW,290,14.5,17.2,18,-99.99,,,0.00,251.6,rob ver 1B,2013-12-11 18:13:00,
2013-12-11 11:14:00,54.5,8.0,29.68,WNW,298,17.9,21.3,15,-99.99,,,0.00,470,rob ver 1A,2013-12-11 18:14:00,
2013-12-11 11:15:00,59.5,16.2,29.65,WNW,294,11.0,13.0,18,-99.99,,,0.00,218.6,rob ver 1B,2013-12-11 18:15:00,
2013-12-11 11:16:00,59.6,16.1,29.65,WNW,299,13.9,17.5,17,-99.99,,,0.00,251.1,rob ver 1B,2013-12-11 18:16:00,
2013-12-11 11:17:00,59.5,15.5,29.65,WNW,302,15.4,17.3,17,-99.99,,,0.00,261.3,rob ver 1B,2013-12-11 18:17:00,
2013-12-11 11:18:00,59.4,15.5,29.65,WNW,300,15.5,19.1,17,-99.99,,,0.00,234.3,rob ver 1B,2013-12-11 18:18:00,
2013-12-11 11:19:00,55.1,7.9,29.68,WNW,301,18.2,20.8,14,-99.99,,,0.00,563.3,rob ver 1A,2013-12-11 18:19:00,
2013-12-11 11:20:00,59.5,15.7,29.65,WNW,301,14.5,17.2,17,-99.99,,,0.00,546.1,rob ver 1B,2013-12-11 18:20:00,
2013-12-11 11:21:00,59.6,15.5,29.65,WNW,298,15.3,17.8,17,-99.99,,,0.00,452.4,rob ver 1B,2013-12-11 18:21:00,
2013-12-11 11:22:00,59.8,15.8,29.65,WNW,291,12.9,14.7,17,-99.99,,,0.00,644.1,rob ver 1B,2013-12-11 18:22:00,
2013-12-11 11:23:00,60.0,15.7,29.65,WNW,291,14.8,18.8,17,-99.99,,,0.00,336.1,rob ver 1B,2013-12-11 18:23:00,
2013-12-11 11:24:00,55.6,8.2,29.68,WNW,300,17.1,19.9,14,-99.99,,,0.00,586.8,rob ver 1A,2013-12-11 18:24:00,
2013-12-11 11:25:00,60.1,15.9,29.65,WNW,296,12.3,14.8,17,-99.99,,,0.00,319.1,rob ver 1B,2013-12-11 18:25:00,
2013-12-11 11:26:00,60.2,15.9,29.65,NW,312,14.2,17.8,17,-99.99,,,0.00,420.2,rob ver 1B,2013-12-11 18:26:00,
2013-12-11 11:27:00,60.2,15.9,29.65,WNW,296,13.1,17.0,17,-99.99,,,0.00,288.7,rob ver 1B,2013-12-11 18:27:00,
2013-12-11 11:28:00,60.4,16.1,29.65,WNW,294,11.7,14.7,17,-99.99,,,0.00,399.6,rob ver 1B,2013-12-11 18:28:00,
2013-12-11 11:29:00,56.3,8.3,29.68,WNW,299,18.4,21.7,14,-99.99,,,0.00,564.7,rob ver 1A,2013-12-11 18:29:00,
2013-12-11 11:30:00,60.4,15.6,29.65,WNW,303,15.2,18.3,16,-99.99,,,0.00,414.1,rob ver 1B,2013-12-11 18:30:00,
2013-12-11 11:31:00,60.4,15.6,29.65,NW,307,15.1,18.5,17,-99.99,,,0.00,325,rob ver 1B,2013-12-11 18:31:00,
2013-12-11 11:32:00,60.3,15.3,29.65,NW,307,14.5,17.5,16,-99.99,,,0.00,514.1,rob ver 1B,2013-12-11 18:32:00,
2013-12-11 11:33:00,60.4,15.7,29.65,NW,305,12.9,15.4,17,-99.99,,,0.00,734,rob ver 1B,2013-12-11 18:33:00,
2013-12-11 11:34:00,56.2,8.2,29.68,WNW,294,15.7,20.8,14,-99.99,,,0.00,564.6,rob ver 1A,2013-12-11 18:34:00,
2013-12-11 11:35:00,60.9,16.0,29.65,NW,305,13.7,16.6,16,-99.99,,,0.00,453.7,rob ver 1B,2013-12-11 18:35:00,
2013-12-11 11:36:00,61.0,15.9,29.65,NW,305,13.0,15.7,17,-99.99,,,0.00,563.6,rob ver 1B,2013-12-11 18:36:00,
2013-12-11 11:37:00,61.2,16.1,29.65,WNW,301,12.8,16.1,16,-99.99,,,0.00,627.4,rob ver 1B,2013-12-11 18:37:00,
2013-12-11 11:38:00,61.4,16.2,29.65,WNW,300,13.5,16.6,16,-99.99,,,0.00,724,rob ver 1B,2013-12-11 18:38:00,
2013-12-11 11:39:00,56.6,8.1,29.68,WNW,298,17.0,20.4,14,-99.99,,,0.00,568.7,rob ver 1A,2013-12-11 18:39:00,
2013-12-11 11:40:00,61.8,16.0,29.65,WNW,292,12.1,15.1,15,-99.99,,,0.00,616,rob ver 1B,2013-12-11 18:40:00,
2013-12-11 11:41:00,61.9,14.9,29.65,WNW,293,13.8,16.8,16,-99.99,,,0.00,659.9,rob ver 1B,2013-12-11 18:41:00,
2013-12-11 11:42:00,61.9,15.6,29.65,WNW,295,15.0,19.8,16,-99.99,,,0.00,640.6,rob ver 1B,2013-12-11 18:42:00,
2013-12-11 11:43:00,62.0,15.5,29.65,WNW,292,15.0,18.2,15,-99.99,,,0.00,613.5,rob ver 1B,2013-12-11 18:43:00,
2013-12-11 11:44:00,62.0,15.1,29.65,WNW,295,13.7,16.8,16,-99.99,,,0.00,601.5,rob ver 1B,2013-12-11 18:44:00,
2013-12-11 11:45:00,57.2,8.7,29.68,WNW,296,15.2,19.7,14,-99.99,,,0.00,577.4,rob ver 1A,2013-12-11 18:45:00,
2013-12-11 11:46:00,62.0,14.5,29.65,WNW,300,15.3,17.8,15,-99.99,,,0.00,587.3,rob ver 1B,2013-12-11 18:46:00,
2013-12-11 11:47:00,61.8,14.6,29.65,WNW,293,15.5,18.8,16,-99.99,,,0.00,581.7,rob ver 1B,2013-12-11 18:47:00,
2013-12-11 11:48:00,61.8,15.9,29.65,WNW,298,12.6,15.9,16,-99.99,,,0.00,577.6,rob ver 1B,2013-12-11 18:48:00,
2013-12-11 11:49:00,62.1,14.8,29.65,NW,308,14.7,18.8,15,-99.99,,,0.00,573.8,rob ver 1B,2013-12-11 18:49:00,
2013-12-11 11:50:00,57.1,8.4,29.68,NW,305,18.2,23.3,13,-99.99,,,0.00,558.6,rob ver 1A,2013-12-11 18:50:00,
2013-12-11 11:51:00,62.1,14.6,29.65,WNW,282,15.6,21.3,15,-99.99,,,0.00,569.8,rob ver 1B,2013-12-11 18:51:00,
2013-12-11 11:52:00,62.2,15.1,29.65,WNW,299,14.9,18.3,15,-99.99,,,0.00,569.8,rob ver 1B,2013-12-11 18:52:00,
2013-12-11 11:53:00,62.3,14.6,29.65,WNW,290,15.0,18.1,15,-99.99,,,0.00,569.3,rob ver 1B,2013-12-11 18:53:00,
2013-12-11 11:54:00,62.3,14.5,29.65,WNW,284,15.0,18.0,15,-99.99,,,0.00,569.8,rob ver 1B,2013-12-11 18:54:00,
2013-12-11 11:55:00,57.0,8.2,29.68,WNW,300,18.7,21.8,13,-99.99,,,0.00,580.2,rob ver 1A,2013-12-11 18:55:00,
2013-12-11 11:56:00,62.2,14.6,29.65,WNW,299,15.2,19.7,15,-99.99,,,0.00,570.5,rob ver 1B,2013-12-11 18:56:00,
2013-12-11 11:57:00,62.2,14.9,29.65,WNW,301,12.6,15.6,16,-99.99,,,0.00,570.1,rob ver 1B,2013-12-11 18:57:00,
2013-12-11 11:58:00,62.4,14.6,29.65,WNW,299,15.4,19.4,15,-99.99,,,0.00,569.6,rob ver 1B,2013-12-11 18:58:00,
2013-12-11 11:59:00,62.3,14.5,29.65,WNW,290,14.7,17.7,15,-99.99,,,0.00,568.5,rob ver 1B,2013-12-11 18:59:00,
2013-12-11 12:00:00,57.5,8.6,29.68,WNW,292,16.1,22.5,13,-99.99,,,0.00,579.2,rob ver 1A,2013-12-11 19:00:00,
2013-12-11 12:01:00,62.2,14.5,29.65,WNW,282,15.4,20.1,15,-99.99,,,0.00,568,rob ver 1B,2013-12-11 19:01:00,
2013-12-11 12:02:00,62.2,14.4,29.65,West,281,17.8,22.6,15,-99.99,,,0.00,567,rob ver 1B,2013-12-11 19:02:00,
2013-12-11 12:03:00,62.0,14.3,29.65,WNW,284,15.9,19.3,15,-99.99,,,0.00,567.2,rob ver 1B,2013-12-11 19:03:00,
2013-12-11 12:04:00,62.0,14.6,29.65,WNW,293,14.2,16.5,15,-99.99,,,0.00,566.5,rob ver 1B,2013-12-11 19:04:00,
2013-12-11 12:05:00,57.8,8.9,29.68,WNW,288,16.6,19.3,13,-99.99,,,0.00,578.1,rob ver 1A,2013-12-11 19:05:00,
2013-12-11 12:06:00,62.7,14.7,29.65,WNW,288,17.0,20.3,15,-99.99,,,0.00,567.5,rob ver 1B,2013-12-11 19:06:00,
2013-12-11 12:07:00,62.7,15.0,29.65,WNW,285,15.3,19.4,15,-99.99,,,0.00,567.8,rob ver 1B,2013-12-11 19:07:00,
2013-12-11 12:08:00,62.9,14.7,29.65,WNW,283,15.0,19.4,15,-99.99,,,0.00,568.1,rob ver 1B,2013-12-11 19:08:00,
2013-12-11 12:09:00,62.8,14.6,29.65,WNW,302,13.6,18.2,15,-99.99,,,0.00,568.5,rob ver 1B,2013-12-11 19:09:00,
2013-12-11 12:10:00,58.0,9.0,29.68,WNW,290,14.6,17.7,14,-99.99,,,0.00,571.1,rob ver 1A,2013-12-11 19:10:00,
2013-12-11 12:11:00,62.8,14.5,29.65,WNW,292,15.6,20.8,15,-99.99,,,0.00,569.8,rob ver 1B,2013-12-11 19:11:00,
2013-12-11 12:12:00,62.6,14.6,29.62,WNW,293,14.1,17.1,15,-99.99,,,0.00,569.4,rob ver 1B,2013-12-11 19:12:00,
2013-12-11 12:13:00,62.5,14.4,29.62,WNW,301,16.1,19.1,15,-99.99,,,0.00,569.9,rob ver 1B,2013-12-11 19:13:00,
2013-12-11 12:14:00,62.6,14.7,29.62,WNW,300,14.9,22.1,15,-99.99,,,0.00,569.9,rob ver 1B,2013-12-11 19:14:00,
2013-12-11 12:15:00,58.1,8.9,29.65,WNW,285,17.8,21.4,13,-99.99,,,0.00,588.1,rob ver 1A,2013-12-11 19:15:00,
2013-12-11 12:16:00,62.8,14.5,29.62,WNW,293,17.0,20.0,14,-99.99,,,0.00,571.9,rob ver 1B,2013-12-11 19:16:00,
2013-12-11 12:17:00,62.8,14.7,29.62,WNW,286,15.4,18.3,15,-99.99,,,0.00,571.9,rob ver 1B,2013-12-11 19:17:00,
2013-12-11 12:18:00,62.9,14.6,29.62,WNW,283,17.3,21.3,14,-99.99,,,0.00,572.1,rob ver 1B,2013-12-11 19:18:00,
2013-12-11 12:19:00,62.8,14.3,29.62,WNW,287,16.9,20.2,14,-99.99,,,0.00,571.6,rob ver 1B,2013-12-11 19:19:00,
2013-12-11 12:20:00,58.3,8.6,29.65,NW,304,17.1,21.0,13,-99.99,,,0.00,585.5,rob ver 1A,2013-12-11 19:20:00,
2013-12-11 12:21:00,62.8,14.4,29.62,NW,308,15.7,18.5,15,-99.99,,,0.00,572.7,rob ver 1B,2013-12-11 19:21:00,
2013-12-11 12:22:00,62.8,14.4,29.62,NW,305,16.6,18.8,14,-99.99,,,0.00,571.7,rob ver 1B,2013-12-11 19:22:00,
2013-12-11 12:23:00,62.8,14.3,29.62,NW,310,17.2,20.5,14,-99.99,,,0.00,570.7,rob ver 1B,2013-12-11 19:23:00,
2013-12-11 12:24:00,62.9,14.5,29.62,WNW,299,15.6,18.8,14,-99.99,,,0.00,571.5,rob ver 1B,2013-12-11 19:24:00,
2013-12-11 12:25:00,59.0,8.9,29.65,WNW,303,17.5,20.4,13,-99.99,,,0.00,583.5,rob ver 1A,2013-12-11 19:25:00,
2013-12-11 12:26:00,62.9,14.5,29.62,NW,306,15.6,19.0,14,-99.99,,,0.00,570.2,rob ver 1B,2013-12-11 19:26:00,
2013-12-11 12:27:00,63.0,14.4,29.62,NW,305,16.7,20.3,14,-99.99,,,0.00,571.4,rob ver 1B,2013-12-11 19:27:00,
2013-12-11 12:28:00,63.0,14.5,29.62,NW,305,15.3,19.1,14,-99.99,,,0.00,570.9,rob ver 1B,2013-12-11 19:28:00,
2013-12-11 12:29:00,63.2,14.7,29.62,NW,305,13.6,16.7,14,-99.99,,,0.00,570.5,rob ver 1B,2013-12-11 19:29:00,
2013-12-11 12:30:00,58.9,9.3,29.65,NW,306,14.9,19.8,13,-99.99,,,0.00,581.3,rob ver 1A,2013-12-11 19:30:00,
2013-12-11 12:31:00,63.4,14.6,29.62,NW,304,13.9,16.3,14,-99.99,,,0.00,571,rob ver 1B,2013-12-11 19:31:00,
2013-12-11 12:32:00,63.2,14.6,29.62,WNW,293,14.9,18.6,14,-99.99,,,0.00,570.7,rob ver 1B,2013-12-11 19:32:00,
2013-12-11 12:33:00,63.1,14.6,29.62,NW,304,16.9,20.5,14,-99.99,,,0.00,570.7,rob ver 1B,2013-12-11 19:33:00,
2013-12-11 12:34:00,63.0,14.4,29.62,NW,307,15.4,19.1,14,-99.99,,,0.00,570.4,rob ver 1B,2013-12-11 19:34:00,
2013-12-11 12:35:00,59.0,8.9,29.65,WNW,301,17.4,19.6,13,-99.99,,,0.00,580.5,rob ver 1A,2013-12-11 19:35:00,
2013-12-11 12:36:00,62.9,14.6,29.62,WNW,299,13.4,15.6,14,-99.99,,,0.00,570,rob ver 1B,2013-12-11 19:36:00,
2013-12-11 12:37:00,63.0,14.4,29.62,NW,305,14.3,17.8,14,-99.99,,,0.00,569.9,rob ver 1B,2013-12-11 19:37:00,
2013-12-11 12:38:00,62.9,14.5,29.62,NW,309,13.3,16.0,15,-99.99,,,0.00,569.2,rob ver 1B,2013-12-11 19:38:00,
2013-12-11 12:39:00,63.1,14.8,29.62,NW,315,12.7,16.9,15,-99.99,,,0.00,570.2,rob ver 1B,2013-12-11 19:39:00,
2013-12-11 12:40:00,63.1,14.5,29.62,WNW,301,14.8,18.6,14,-99.99,,,0.00,570,rob ver 1B,2013-12-11 19:40:00,
2013-12-11 12:41:00,59.1,9.2,29.65,WNW,296,17.3,20.7,13,-99.99,,,0.00,579.5,rob ver 1A,2013-12-11 19:41:00,
2013-12-11 12:42:00,62.9,14.5,29.62,WNW,292,15.0,18.3,15,-99.99,,,0.00,570.2,rob ver 1B,2013-12-11 19:42:00,
2013-12-11 12:43:00,63.1,14.5,29.62,WNW,293,16.9,19.9,14,-99.99,,,0.00,569.4,rob ver 1B,2013-12-11 19:43:00,
2013-12-11 12:44:00,63.0,14.5,29.62,WNW,292,15.8,17.9,15,-99.99,,,0.00,568.9,rob ver 1B,2013-12-11 19:44:00,
2013-12-11 12:45:00,63.0,14.6,29.62,WNW,289,14.7,17.6,14,-99.99,,,0.00,568.2,rob ver 1B,2013-12-11 19:45:00,
2013-12-11 12:46:00,59.4,9.4,29.65,WNW,287,14.4,16.4,13,-99.99,,,0.00,579.2,rob ver 1A,2013-12-11 19:46:00,
2013-12-11 12:47:00,63.0,14.8,29.62,WNW,294,13.1,16.5,14,-99.99,,,0.00,567.2,rob ver 1B,2013-12-11 19:47:00,
2013-12-11 12:48:00,63.4,14.8,29.62,WNW,295,13.3,16.2,14,-99.99,,,0.00,566.9,rob ver 1B,2013-12-11 19:48:00,
2013-12-11 12:49:00,63.4,14.6,29.62,WNW,297,15.7,19.1,15,-99.99,,,0.00,567.4,rob ver 1B,2013-12-11 19:49:00,
2013-12-11 12:50:00,63.3,14.8,29.62,WNW,289,14.4,18.9,14,-99.99,,,0.00,107.4,rob ver 1B,2013-12-11 19:50:00,
2013-12-11 12:51:00,59.6,9.5,29.65,WNW,294,16.7,19.0,13,-99.99,,,0.00,577.2,rob ver 1A,2013-12-11 19:51:00,
2013-12-11 12:52:00,63.6,15.0,29.62,WNW,292,14.9,18.0,15,-99.99,,,0.00,568.2,rob ver 1B,2013-12-11 19:52:00,
2013-12-11 12:53:00,63.7,14.8,29.62,WNW,298,16.1,18.9,14,-99.99,,,0.00,568,rob ver 1B,2013-12-11 19:53:00,
2013-12-11 12:54:00,63.6,14.7,29.62,WNW,297,14.2,16.6,14,-99.99,,,0.00,568.7,rob ver 1B,2013-12-11 19:54:00,
2013-12-11 12:55:00,63.6,15.0,29.62,WNW,289,14.0,17.5,14,-99.99,,,0.00,567.5,rob ver 1B,2013-12-11 19:55:00,
2013-12-11 12:56:00,59.8,9.6,29.65,West,281,15.2,17.1,13,-99.99,,,0.00,583.1,rob ver 1A,2013-12-11 19:56:00,
2013-12-11 12:57:00,63.5,14.7,29.62,WNW,299,14.3,16.8,14,-99.99,,,0.00,567.9,rob ver 1B,2013-12-11 19:57:00,
2013-12-11 12:58:00,63.5,14.8,29.62,WNW,287,15.9,18.9,14,-99.99,,,0.00,567.7,rob ver 1B,2013-12-11 19:58:00,
2013-12-11 12:59:00,63.6,14.8,29.62,WNW,292,14.9,19.1,14,-99.99,,,0.00,566.4,rob ver 1B,2013-12-11 19:59:00,
2013-12-11 13:00:00,63.5,14.7,29.62,WNW,289,13.8,16.7,14,-99.99,,,0.00,566.7,rob ver 1B,2013-12-11 20:00:00,
2013-12-11 13:01:00,59.8,9.6,29.65,WNW,291,15.7,20.1,13,-99.99,,,0.00,577.5,rob ver 1A,2013-12-11 20:01:00,
2013-12-11 13:02:00,63.7,14.8,29.62,WNW,285,15.0,19.0,14,-99.99,,,0.00,565.2,rob ver 1B,2013-12-11 20:02:00,
2013-12-11 13:03:00,63.8,14.9,29.62,WNW,287,14.3,17.4,14,-99.99,,,0.00,565.2,rob ver 1B,2013-12-11 20:03:00,
2013-12-11 13:04:00,63.7,14.8,29.62,WNW,289,15.6,18.0,14,-99.99,,,0.00,564.2,rob ver 1B,2013-12-11 20:04:00,
2013-12-11 13:05:00,63.7,14.8,29.62,WNW,289,14.2,16.9,14,-99.99,,,0.00,562.7,rob ver 1B,2013-12-11 20:05:00,
2013-12-11 13:06:00,59.5,9.5,29.65,WNW,286,16.0,20.9,13,-99.99,,,0.00,571.7,rob ver 1A,2013-12-11 20:06:00,
2013-12-11 13:07:00,63.8,15.1,29.62,WNW,288,16.9,21.1,15,-99.99,,,0.00,563.2,rob ver 1B,2013-12-11 20:07:00,
2013-12-11 13:08:00,63.8,15.2,29.62,WNW,288,13.9,15.9,14,-99.99,,,0.00,564.2,rob ver 1B,2013-12-11 20:08:00,
2013-12-11 13:09:00,63.8,14.8,29.62,WNW,292,13.9,17.0,14,-99.99,,,0.00,564.1,rob ver 1B,2013-12-11 20:09:00,
2013-12-11 13:10:00,63.8,15.0,29.62,WNW,291,12.6,15.2,14,-99.99,,,0.00,564.4,rob ver 1B,2013-12-11 20:10:00,
2013-12-11 13:11:00,59.9,9.6,29.65,WNW,290,18.3,22.7,13,-99.99,,,0.00,568.6,rob ver 1A,2013-12-11 20:11:00,
2013-12-11 13:12:00,63.8,15.0,29.62,WNW,284,14.6,16.8,14,-99.99,,,0.00,563.4,rob ver 1B,2013-12-11 20:12:00,
2013-12-11 13:13:00,63.9,15.2,29.62,WNW,283,13.9,18.2,14,-99.99,,,0.00,562.4,rob ver 1B,2013-12-11 20:13:00,
2013-12-11 13:14:00,64.0,15.3,29.62,NW,304,15.2,19.2,14,-99.99,,,0.00,563.1,rob ver 1B,2013-12-11 20:14:00,
2013-12-11 13:15:00,64.0,15.1,29.62,NW,317,13.5,16.4,14,-99.99,,,0.00,566,rob ver 1B,2013-12-11 20:15:00,
2013-12-11 13:16:00,59.9,9.4,29.65,WNW,286,16.8,21.7,13,-99.99,,,0.00,564.7,rob ver 1A,2013-12-11 20:16:00,
2013-12-11 13:17:00,63.7,15.0,29.59,WNW,295,15.9,20.3,14,-99.99,,,0.00,569.7,rob ver 1B,2013-12-11 20:17:00,
2013-12-11 13:18:00,63.6,15.0,29.62,WNW,286,14.5,17.3,15,-99.99,,,0.00,570.7,rob ver 1B,2013-12-11 20:18:00,
2013-12-11 13:19:00,63.6,15.1,29.62,WNW,298,14.8,17.5,15,-99.99,,,0.00,573.6,rob ver 1B,2013-12-11 20:19:00,
2013-12-11 13:20:00,63.9,15.6,29.62,NW,312,11.3,13.8,15,-99.99,,,0.00,574.6,rob ver 1B,2013-12-11 20:20:00,
2013-12-11 13:21:00,60.4,9.7,29.65,WNW,299,15.8,20.3,13,-99.99,,,0.00,561,rob ver 1A,2013-12-11 20:21:00,
2013-12-11 13:22:00,64.7,15.6,29.59,NW,304,13.3,18.0,14,-99.99,,,0.00,570.7,rob ver 1B,2013-12-11 20:22:00,
2013-12-11 13:23:00,64.6,15.3,29.59,WNW,296,15.7,18.0,14,-99.99,,,0.00,571,rob ver 1B,2013-12-11 20:23:00,
2013-12-11 13:24:00,64.5,15.3,29.59,WNW,285,15.9,21.1,14,-99.99,,,0.00,572.5,rob ver 1B,2013-12-11 20:24:00,
2013-12-11 13:25:00,64.5,15.3,29.59,West,280,17.1,21.7,14,-99.99,,,0.00,577.1,rob ver 1B,2013-12-11 20:25:00,
2013-12-11 13:26:00,64.5,15.5,29.59,WNW,298,14.5,16.8,14,-99.99,,,0.00,578.9,rob ver 1B,2013-12-11 20:26:00,
2013-12-11 13:27:00,60.6,9.5,29.65,WNW,289,17.0,20.8,12,-99.99,,,0.00,558.6,rob ver 1A,2013-12-11 20:27:00,
2013-12-11 13:28:00,64.9,15.5,29.59,NW,305,14.9,18.2,14,-99.99,,,0.00,580.4,rob ver 1B,2013-12-11 20:28:00,
2013-12-11 13:29:00,64.7,15.2,29.59,NW,306,14.9,19.4,14,-99.99,,,0.00,590.4,rob ver 1B,2013-12-11 20:29:00,
2013-12-11 13:30:00,64.7,15.3,29.59,NW,308,13.8,17.5,14,-99.99,,,0.00,524.1,rob ver 1B,2013-12-11 20:30:00,
2013-12-11 13:31:00,64.7,15.2,29.59,NW,305,14.8,18.4,14,-99.99,,,0.00,390.7,rob ver 1B,2013-12-11 20:31:00,
2013-12-11 13:32:00,60.4,9.4,29.65,WNW,282,19.4,24.4,12,-99.99,,,0.00,553.6,rob ver 1A,2013-12-11 20:32:00,
2013-12-11 13:33:00,64.4,15.3,29.59,WNW,300,15.5,18.2,14,-99.99,,,0.00,453.9,rob ver 1B,2013-12-11 20:33:00,
2013-12-11 13:34:00,64.1,14.9,29.59,WNW,299,14.7,18.3,14,-99.99,,,0.00,428.2,rob ver 1B,2013-12-11 20:34:00,
2013-12-11 13:35:00,63.9,15.0,29.59,WNW,296,15.4,19.6,14,-99.99,,,0.00,608.6,rob ver 1B,2013-12-11 20:35:00,
2013-12-11 13:36:00,64.0,15.0,29.59,WNW,287,13.9,18.0,14,-99.99,,,0.00,605.8,rob ver 1B,2013-12-11 20:36:00,
2013-12-11 13:37:00,60.9,9.6,29.65,WNW,285,15.3,19.3,13,-99.99,,,0.00,549.5,rob ver 1A,2013-12-11 20:37:00,
2013-12-11 13:38:00,64.3,15.4,29.59,WNW,296,13.8,18.0,15,-99.99,,,0.00,302,rob ver 1B,2013-12-11 20:38:00,
2013-12-11 13:39:00,64.5,15.4,29.59,WNW,301,14.8,18.0,14,-99.99,,,0.00,518,rob ver 1B,2013-12-11 20:39:00,
2013-12-11 13:40:00,64.5,15.2,29.59,WNW,289,15.6,18.1,14,-99.99,,,0.00,557.9,rob ver 1B,2013-12-11 20:40:00,
2013-12-11 13:41:00,64.4,15.1,29.59,WNW,289,12.3,15.8,14,-99.99,,,0.00,549,rob ver 1B,2013-12-11 20:41:00,
2013-12-11 13:42:00,61.2,9.9,29.65,WNW,287,17.3,22.6,12,-99.99,,,0.00,551.8,rob ver 1A,2013-12-11 20:42:00,
2013-12-11 13:43:00,64.5,15.0,29.59,WNW,301,17.1,20.0,14,-99.99,,,0.00,544.1,rob ver 1B,2013-12-11 20:43:00,
2013-12-11 13:44:00,64.3,15.1,29.59,WNW,298,16.0,18.4,14,-99.99,,,0.00,527.4,rob ver 1B,2013-12-11 20:44:00,
2013-12-11 13:45:00,64.1,14.9,29.59,WNW,291,15.6,19.2,14,-99.99,,,0.00,532.5,rob ver 1B,2013-12-11 20:45:00,
2013-12-11 13:46:00,64.0,15.0,29.59,WNW,302,17.4,21.2,14,-99.99,,,0.00,529.1,rob ver 1B,2013-12-11 20:46:00,
2013-12-11 13:47:00,61.1,9.9,29.65,WNW,287,17.4,20.2,12,-99.99,,,0.00,508.9,rob ver 1A,2013-12-11 20:47:00,
2013-12-11 13:48:00,63.9,15.0,29.59,NW,306,12.5,15.1,14,-99.99,,,0.00,523.4,rob ver 1B,2013-12-11 20:48:00,
2013-12-11 13:49:00,64.1,15.4,29.59,WNW,303,14.0,16.8,14,-99.99,,,0.00,521.1,rob ver 1B,2013-12-11 20:49:00,
2013-12-11 13:50:00,64.4,15.0,29.59,WNW,282,13.6,17.9,14,-99.99,,,0.00,518,rob ver 1B,2013-12-11 20:50:00,
2013-12-11 13:51:00,64.2,15.2,29.59,NW,304,14.5,19.1,14,-99.99,,,0.00,517.5,rob ver 1B,2013-12-11 20:51:00,
2013-12-11 13:52:00,61.0,9.6,29.65,WNW,287,17.1,20.9,12,-99.99,,,0.00,558.6,rob ver 1A,2013-12-11 20:52:00,
2013-12-11 13:53:00,63.9,15.0,29.59,WNW,296,14.1,16.6,14,-99.99,,,0.00,512.9,rob ver 1B,2013-12-11 20:53:00,
2013-12-11 13:54:00,63.8,15.0,29.59,NW,309,16.5,18.5,14,-99.99,,,0.00,511.2,rob ver 1B,2013-12-11 20:54:00,
2013-12-11 13:55:00,63.8,15.1,29.59,NW,304,14.7,18.6,14,-99.99,,,0.00,508.9,rob ver 1B,2013-12-11 20:55:00,
2013-12-11 13:56:00,63.9,15.1,29.59,WNW,296,15.1,17.8,14,-99.99,,,0.00,508.1,rob ver 1B,2013-12-11 20:56:00,
2013-12-11 13:57:00,61.5,10.0,29.62,WNW,287,17.2,21.8,12,-99.99,,,0.00,551.4,rob ver 1A,2013-12-11 20:57:00,
2013-12-11 13:58:00,63.8,15.2,29.59,WNW,299,12.6,14.8,15,-99.99,,,0.00,504.9,rob ver 1B,2013-12-11 20:58:00,
2013-12-11 13:59:00,64.2,15.5,29.59,NW,309,13.6,15.7,14,-99.99,,,0.00,503,rob ver 1B,2013-12-11 20:59:00,
2013-12-11 14:00:00,64.3,15.3,29.59,NW,307,14.8,18.3,14,-99.99,,,0.00,500.3,rob ver 1B,2013-12-11 21:00:00,
2013-12-11 14:01:00,64.1,15.2,29.59,WNW,302,13.1,18.3,15,-99.99,,,0.00,498,rob ver 1B,2013-12-11 21:01:00,
2013-12-11 14:02:00,61.6,9.6,29.62,WNW,300,19.2,21.8,12,-99.99,,,0.00,545,rob ver 1A,2013-12-11 21:02:00,
2013-12-11 14:03:00,64.4,15.3,29.59,WNW,289,15.9,19.4,14,-99.99,,,0.00,496,rob ver 1B,2013-12-11 21:03:00,
2013-12-11 14:04:00,64.4,15.2,29.59,WNW,284,15.6,18.7,14,-99.99,,,0.00,494.5,rob ver 1B,2013-12-11 21:04:00,
2013-12-11 14:05:00,64.5,15.4,29.59,WNW,291,13.1,17.1,14,-99.99,,,0.00,492.4,rob ver 1B,2013-12-11 21:05:00,
2013-12-11 14:06:00,64.8,15.8,29.59,WNW,302,12.1,15.8,14,-99.99,,,0.00,492.7,rob ver 1B,2013-12-11 21:06:00,
2013-12-11 14:07:00,64.9,15.5,29.59,NW,309,14.5,18.3,14,-99.99,,,0.00,490.8,rob ver 1B,2013-12-11 21:07:00,
2013-12-11 14:08:00,61.7,10.1,29.62,WNW,293,16.6,21.1,13,-99.99,,,0.00,246.1,rob ver 1A,2013-12-11 21:08:00,
2013-12-11 14:09:00,64.4,15.4,29.59,NW,314,16.4,19.9,14,-99.99,,,0.00,485.5,rob ver 1B,2013-12-11 21:09:00,
2013-12-11 14:10:00,64.3,15.3,29.59,NW,315,14.0,17.1,14,-99.99,,,0.00,484.5,rob ver 1B,2013-12-11 21:10:00,
2013-12-11 14:11:00,64.4,15.5,29.59,NW,318,15.3,18.4,14,-99.99,,,0.00,482.5,rob ver 1B,2013-12-11 21:11:00,
2013-12-11 14:12:00,64.3,15.5,29.59,NW,309,14.4,17.0,15,-99.99,,,0.00,482.7,rob ver 1B,2013-12-11 21:12:00,
2013-12-11 14:13:00,61.5,9.6,29.62,WNW,301,17.6,20.9,12,-99.99,,,0.00,528.1,rob ver 1A,2013-12-11 21:13:00,
2013-12-11 14:14:00,64.7,15.8,29.59,NW,316,11.4,15.2,14,-99.99,,,0.00,479.2,rob ver 1B,2013-12-11 21:14:00,
2013-12-11 14:15:00,64.7,15.7,29.59,NW,318,13.2,17.6,14,-99.99,,,0.00,476.4,rob ver 1B,2013-12-11 21:15:00,
2013-12-11 14:16:00,64.7,15.6,29.59,NW,323,13.1,15.8,14,-99.99,,,0.00,475.9,rob ver 1B,2013-12-11 21:16:00,
2013-12-11 14:17:00,64.7,15.8,29.59,NW,317,14.4,17.2,14,-99.99,,,0.00,474.9,rob ver 1B,2013-12-11 21:17:00,
2013-12-11 14:18:00,62.0,9.6,29.62,WNW,291,16.2,19.7,12,-99.99,,,0.00,528.1,rob ver 1A,2013-12-11 21:18:00,
2013-12-11 14:19:00,64.7,16.0,29.59,NW,314,12.5,16.9,14,-99.99,,,0.00,471.8,rob ver 1B,2013-12-11 21:19:00,
2013-12-11 14:20:00,64.8,15.9,29.59,NW,317,14.9,19.2,14,-99.99,,,0.00,470,rob ver 1B,2013-12-11 21:20:00,
2013-12-11 14:21:00,64.7,15.5,29.59,NW,309,15.3,18.7,14,-99.99,,,0.00,468,rob ver 1B,2013-12-11 21:21:00,
2013-12-11 14:22:00,64.7,15.7,29.59,NW,310,15.7,20.2,14,-99.99,,,0.00,466,rob ver 1B,2013-12-11 21:22:00,
2013-12-11 14:23:00,61.8,9.8,29.62,WNW,301,16.4,19.3,12,-99.99,,,0.00,503.9,rob ver 1A,2013-12-11 21:23:00,
2013-12-11 14:24:00,64.6,15.9,29.59,NW,307,14.3,17.3,15,-99.99,,,0.00,463.4,rob ver 1B,2013-12-11 21:24:00,
2013-12-11 14:25:00,64.7,15.9,29.59,NW,310,15.2,17.9,15,-99.99,,,0.00,461.6,rob ver 1B,2013-12-11 21:25:00,
2013-12-11 14:26:00,64.6,15.7,29.59,NW,307,17.0,19.6,14,-99.99,,,0.00,459.4,rob ver 1B,2013-12-11 21:26:00,
2013-12-11 14:27:00,64.4,15.7,29.59,NW,313,15.7,17.5,15,-99.99,,,0.00,456.4,rob ver 1B,2013-12-11 21:27:00,
2013-12-11 14:28:00,61.9,9.8,29.62,WNW,289,16.2,18.4,12,-99.99,,,0.00,497.1,rob ver 1A,2013-12-11 21:28:00,
2013-12-11 14:29:00,64.3,15.7,29.59,NW,317,15.1,17.8,15,-99.99,,,0.00,452.8,rob ver 1B,2013-12-11 21:29:00,
2013-12-11 14:30:00,64.2,15.8,29.59,NW,318,14.8,18.4,15,-99.99,,,0.00,450.2,rob ver 1B,2013-12-11 21:30:00,
2013-12-11 14:31:00,64.1,15.6,29.59,NW,324,15.1,17.1,15,-99.99,,,0.00,449.2,rob ver 1B,2013-12-11 21:31:00,
2013-12-11 14:32:00,64.0,15.9,29.59,NW,320,12.8,14.8,15,-99.99,,,0.00,447,rob ver 1B,2013-12-11 21:32:00,
2013-12-11 14:33:00,61.8,9.8,29.62,WNW,291,17.3,22.2,12,-99.99,,,0.00,422.2,rob ver 1A,2013-12-11 21:33:00,
2013-12-11 14:34:00,64.3,15.6,29.59,NW,311,15.6,19.6,15,-99.99,,,0.00,444.9,rob ver 1B,2013-12-11 21:34:00,
2013-12-11 14:35:00,64.3,16.0,29.59,NW,318,12.3,14.2,15,-99.99,,,0.00,442.9,rob ver 1B,2013-12-11 21:35:00,
2013-12-11 14:36:00,64.4,15.9,29.59,NW,313,14.6,19.8,15,-99.99,,,0.00,440.6,rob ver 1B,2013-12-11 21:36:00,
2013-12-11 14:37:00,64.4,15.9,29.59,NW,310,11.8,15.0,15,-99.99,,,0.00,439.8,rob ver 1B,2013-12-11 21:37:00,
2013-12-11 14:38:00,61.9,9.7,29.62,WNW,284,15.9,19.4,12,-99.99,,,0.00,445.8,rob ver 1A,2013-12-11 21:38:00,
2013-12-11 14:39:00,64.6,16.0,29.59,NW,315,13.1,15.6,15,-99.99,,,0.00,437,rob ver 1B,2013-12-11 21:39:00,
2013-12-11 14:40:00,64.5,16.2,29.59,NW,314,12.3,14.9,15,-99.99,,,0.00,434.8,rob ver 1B,2013-12-11 21:40:00,
2013-12-11 14:41:00,64.6,15.9,29.59,NW,307,12.1,16.1,15,-99.99,,,0.00,432.9,rob ver 1B,2013-12-11 21:41:00,
2013-12-11 14:42:00,64.5,15.9,29.59,WNW,302,13.7,17.0,15,-99.99,,,0.00,430.9,rob ver 1B,2013-12-11 21:42:00,
2013-12-11 14:43:00,61.6,9.7,29.62,WNW,296,17.7,21.6,12,-99.99,,,0.00,494.3,rob ver 1A,2013-12-11 21:43:00,
2013-12-11 14:44:00,64.3,15.9,29.59,NW,309,12.9,15.1,15,-99.99,,,0.00,425.4,rob ver 1B,2013-12-11 21:44:00,
2013-12-11 14:45:00,64.4,16.0,29.59,NW,306,11.9,14.7,15,-99.99,,,0.00,422.3,rob ver 1B,2013-12-11 21:45:00,
2013-12-11 14:46:00,64.3,15.9,29.59,NW,306,15.1,17.5,15,-99.99,,,0.00,419.8,rob ver 1B,2013-12-11 21:46:00,
2013-12-11 14:47:00,64.4,16.2,29.59,WNW,291,15.1,18.9,15,-99.99,,,0.00,416.5,rob ver 1B,2013-12-11 21:47:00,
2013-12-11 14:48:00,64.4,16.0,29.59,WNW,290,14.5,17.8,15,-99.99,,,0.00,415.5,rob ver 1B,2013-12-11 21:48:00,
2013-12-11 14:49:00,61.6,9.9,29.62,WNW,299,17.2,20.1,12,-99.99,,,0.00,124.5,rob ver 1A,2013-12-11 21:49:00,
2013-12-11 14:50:00,64.6,16.3,29.59,WNW,301,12.7,16.2,15,-99.99,,,0.00,409.9,rob ver 1B,2013-12-11 21:50:00,
2013-12-11 14:51:00,64.8,16.3,29.59,WNW,297,14.2,17.3,15,-99.99,,,0.00,406.8,rob ver 1B,2013-12-11 21:51:00,
2013-12-11 14:52:00,64.7,16.2,29.59,WNW,286,15.4,19.5,15,-99.99,,,0.00,405.2,rob ver 1B,2013-12-11 21:52:00,
2013-12-11 14:53:00,64.5,16.2,29.56,WNW,292,15.7,19.9,15,-99.99,,,0.00,403.2,rob ver 1B,2013-12-11 21:53:00,
2013-12-11 14:54:00,61.1,9.8,29.62,WNW,302,16.3,19.8,12,-99.99,,,0.00,139.2,rob ver 1A,2013-12-11 21:54:00,
2013-12-11 14:55:00,64.3,16.2,29.59,WNW,287,15.2,18.7,15,-99.99,,,0.00,396.2,rob ver 1B,2013-12-11 21:55:00,
2013-12-11 14:56:00,64.3,16.2,29.59,WNW,299,16.2,18.9,15,-99.99,,,0.00,393.8,rob ver 1B,2013-12-11 21:56:00,
2013-12-11 14:57:00,64.3,16.2,29.59,WNW,302,14.9,17.5,15,-99.99,,,0.00,393.4,rob ver 1B,2013-12-11 21:57:00,
2013-12-11 14:58:00,64.3,16.2,29.56,NW,304,15.0,17.6,15,-99.99,,,0.00,386.4,rob ver 1B,2013-12-11 21:58:00,
2013-12-11 14:59:00,60.9,10.2,29.62,WNW,290,14.7,20.3,13,-99.99,,,0.00,466.9,rob ver 1A,2013-12-11 21:59:00,
2013-12-11 15:00:00,64.3,16.5,29.59,WNW,297,14.7,19.6,15,-99.99,,,0.00,375.6,rob ver 1B,2013-12-11 22:00:00,
2013-12-11 15:01:00,64.3,16.3,29.56,WNW,300,16.1,19.7,15,-99.99,,,0.00,383.4,rob ver 1B,2013-12-11 22:01:00,
2013-12-11 15:02:00,64.3,16.5,29.59,WNW,292,12.6,18.9,15,-99.99,,,0.00,380.9,rob ver 1B,2013-12-11 22:02:00,
2013-12-11 15:03:00,64.5,16.6,29.59,WNW,301,12.9,17.2,15,-99.99,,,0.00,378.9,rob ver 1B,2013-12-11 22:03:00,
2013-12-11 15:04:00,61.1,10.1,29.62,WNW,286,15.0,20.0,13,-99.99,,,0.00,245.6,rob ver 1A,2013-12-11 22:04:00,
2013-12-11 15:05:00,64.5,16.5,29.59,WNW,290,15.2,18.7,15,-99.99,,,0.00,372,rob ver 1B,2013-12-11 22:05:00,
2013-12-11 15:06:00,64.5,16.4,29.59,WNW,293,13.3,16.1,15,-99.99,,,0.00,370.4,rob ver 1B,2013-12-11 22:06:00,
2013-12-11 15:07:00,64.5,16.5,29.59,WNW,296,10.2,12.8,15,-99.99,,,0.00,370.4,rob ver 1B,2013-12-11 22:07:00,
2013-12-11 15:08:00,64.4,16.2,29.59,WNW,287,11.0,13.7,15,-99.99,,,0.00,367.7,rob ver 1B,2013-12-11 22:08:00,
2013-12-11 15:09:00,60.7,10.1,29.62,WNW,285,14.0,17.5,13,-99.99,,,0.00,354.3,rob ver 1A,2013-12-11 22:09:00,
2013-12-11 15:10:00,64.4,16.4,29.59,WNW,286,13.5,17.1,15,-99.99,,,0.00,364.4,rob ver 1B,2013-12-11 22:10:00,
2013-12-11 15:11:00,64.5,16.5,29.59,WNW,283,15.6,20.1,15,-99.99,,,0.00,362.9,rob ver 1B,2013-12-11 22:11:00,
2013-12-11 15:12:00,64.6,16.7,29.59,WNW,294,13.7,16.8,15,-99.99,,,0.00,360.1,rob ver 1B,2013-12-11 22:12:00,
2013-12-11 15:13:00,64.7,16.5,29.59,WNW,291,14.2,17.8,15,-99.99,,,0.00,355.8,rob ver 1B,2013-12-11 22:13:00,
2013-12-11 15:14:00,61.1,10.1,29.62,West,280,16.8,19.6,13,-99.99,,,0.00,448.3,rob ver 1A,2013-12-11 22:14:00,
2013-12-11 15:15:00,64.4,16.4,29.59,WNW,287,16.1,18.6,15,-99.99,,,0.00,356.3,rob ver 1B,2013-12-11 22:15:00,
2013-12-11 15:16:00,64.4,16.3,29.59,WNW,296,14.7,17.7,15,-99.99,,,0.00,241.1,rob ver 1B,2013-12-11 22:16:00,
2013-12-11 15:17:00,64.4,16.5,29.59,WNW,291,13.9,16.6,15,-99.99,,,0.00,352.2,rob ver 1B,2013-12-11 22:17:00,
2013-12-11 15:18:00,64.5,16.4,29.59,WNW,288,13.6,16.8,15,-99.99,,,0.00,348.4,rob ver 1B,2013-12-11 22:18:00,
2013-12-11 15:19:00,61.4,10.6,29.62,WNW,285,14.8,18.7,13,-99.99,,,0.00,417.4,rob ver 1A,2013-12-11 22:19:00,
2013-12-11 15:20:00,64.7,16.8,29.59,WNW,294,11.7,15.3,15,-99.99,,,0.00,343.5,rob ver 1B,2013-12-11 22:20:00,
2013-12-11 15:21:00,64.7,16.3,29.59,WNW,294,14.9,18.5,15,-99.99,,,0.00,339.7,rob ver 1B,2013-12-11 22:21:00,
2013-12-11 15:22:00,64.6,16.3,29.59,WNW,303,13.5,15.4,15,-99.99,,,0.00,337.4,rob ver 1B,2013-12-11 22:22:00,
2013-12-11 15:23:00,64.6,16.4,29.59,WNW,288,13.7,15.5,15,-99.99,,,0.00,336.4,rob ver 1B,2013-12-11 22:23:00,
2013-12-11 15:24:00,61.1,10.3,29.62,West,280,16.0,19.2,13,-99.99,,,0.00,145.1,rob ver 1A,2013-12-11 22:24:00,
2013-12-11 15:25:00,64.3,16.3,29.59,WNW,288,14.9,17.7,15,-99.99,,,0.00,330.8,rob ver 1B,2013-12-11 22:25:00,
2013-12-11 15:26:00,64.2,16.2,29.59,WNW,292,13.8,15.7,15,-99.99,,,0.00,326.5,rob ver 1B,2013-12-11 22:26:00,
2013-12-11 15:27:00,64.3,16.6,29.59,WNW,298,13.3,16.4,15,-99.99,,,0.00,322.7,rob ver 1B,2013-12-11 22:27:00,
2013-12-11 15:28:00,64.3,16.2,29.59,NW,304,12.6,14.9,15,-99.99,,,0.00,319.7,rob ver 1B,2013-12-11 22:28:00,
2013-12-11 15:29:00,64.4,16.3,29.59,NW,306,11.6,15.3,15,-99.99,,,0.00,316.9,rob ver 1B,2013-12-11 22:29:00,
2013-12-11 15:30:00,61.0,10.3,29.62,WNW,287,17.9,20.0,13,-99.99,,,0.00,100.9,rob ver 1A,2013-12-11 22:30:00,
2013-12-11 15:31:00,64.3,16.4,29.59,NW,304,13.0,15.7,15,-99.99,,,0.00,311.7,rob ver 1B,2013-12-11 22:31:00,
2013-12-11 15:32:00,64.4,16.4,29.59,NW,312,12.6,15.1,15,-99.99,,,0.00,309,rob ver 1B,2013-12-11 22:32:00,
2013-12-11 15:33:00,64.5,16.4,29.59,NW,311,13.2,17.4,15,-99.99,,,0.00,307.7,rob ver 1B,2013-12-11 22:33:00,
2013-12-11 15:34:00,64.5,16.5,29.59,NW,312,13.4,15.9,15,-99.99,,,0.00,309,rob ver 1B,2013-12-11 22:34:00,
2013-12-11 15:35:00,60.5,10.2,29.62,WNW,285,14.6,18.6,13,-99.99,,,0.00,92.4,rob ver 1A,2013-12-11 22:35:00,
2013-12-11 15:36:00,64.5,16.2,29.59,WNW,300,11.9,14.6,15,-99.99,,,0.00,311.2,rob ver 1B,2013-12-11 22:36:00,
2013-12-11 15:37:00,64.5,16.3,29.59,WNW,303,14.4,18.3,15,-99.99,,,0.00,291.9,rob ver 1B,2013-12-11 22:37:00,
2013-12-11 15:38:00,64.5,16.4,29.59,NW,304,12.9,16.8,15,-99.99,,,0.00,309.3,rob ver 1B,2013-12-11 22:38:00,
2013-12-11 15:39:00,64.6,16.4,29.59,WNW,296,13.1,15.8,15,-99.99,,,0.00,305.1,rob ver 1B,2013-12-11 22:39:00,
2013-12-11 15:40:00,60.1,10.3,29.62,WNW,289,15.9,20.1,13,-99.99,,,0.00,81.5,rob ver 1A,2013-12-11 22:40:00,
2013-12-11 15:41:00,64.7,16.5,29.59,NW,312,11.5,13.1,15,-99.99,,,0.00,286.9,rob ver 1B,2013-12-11 22:41:00,
2013-12-11 15:42:00,64.7,16.6,29.59,NW,304,13.0,17.1,15,-99.99,,,0.00,297.6,rob ver 1B,2013-12-11 22:42:00,
2013-12-11 15:43:00,64.7,16.6,29.59,NW,311,12.7,15.1,15,-99.99,,,0.00,291.9,rob ver 1B,2013-12-11 22:43:00,
2013-12-11 15:44:00,64.6,16.4,29.59,NW,305,12.3,14.5,15,-99.99,,,0.00,240.6,rob ver 1B,2013-12-11 22:44:00,
2013-12-11 15:45:00,60.2,10.5,29.62,WNW,289,15.6,18.8,13,-99.99,,,0.00,238.2,rob ver 1A,2013-12-11 22:45:00,
2013-12-11 15:46:00,64.4,16.9,29.59,NW,315,11.5,14.9,16,-99.99,,,0.00,72.9,rob ver 1B,2013-12-11 22:46:00,
2013-12-11 15:47:00,64.3,16.7,29.59,NW,304,13.2,18.0,16,-99.99,,,0.00,67.11,rob ver 1B,2013-12-11 22:47:00,
2013-12-11 15:48:00,64.1,17.0,29.59,NW,308,14.2,17.6,15,-99.99,,,0.00,158.6,rob ver 1B,2013-12-11 22:48:00,
2013-12-11 15:49:00,64.0,16.4,29.59,NW,306,14.5,17.1,15,-99.99,,,0.00,185.5,rob ver 1B,2013-12-11 22:49:00,
2013-12-11 15:50:00,60.6,10.7,29.62,WNW,290,14.0,17.4,13,-99.99,,,0.00,324.3,rob ver 1A,2013-12-11 22:50:00,
2013-12-11 15:51:00,64.1,18.0,29.59,WNW,299,10.5,13.4,16,-99.99,,,0.00,152.7,rob ver 1B,2013-12-11 22:51:00,
2013-12-11 15:52:00,64.2,16.6,29.59,WNW,293,13.0,15.1,15,-99.99,,,0.00,144.1,rob ver 1B,2013-12-11 22:52:00,
2013-12-11 15:53:00,64.0,17.1,29.59,WNW,294,11.6,13.7,16,-99.99,,,0.00,272.1,rob ver 1B,2013-12-11 22:53:00,
2013-12-11 15:54:00,64.1,17.5,29.59,WNW,299,12.2,15.1,16,-99.99,,,0.00,210.1,rob ver 1B,2013-12-11 22:54:00,
2013-12-11 15:55:00,61.0,10.7,29.62,WNW,292,16.0,18.1,13,-99.99,,,0.00,295.2,rob ver 1A,2013-12-11 22:55:00,
2013-12-11 15:56:00,64.2,17.2,29.59,NW,306,11.4,14.5,15,-99.99,,,0.00,158.1,rob ver 1B,2013-12-11 22:56:00,
2013-12-11 15:57:00,64.2,16.5,29.59,WNW,300,12.6,14.8,15,-99.99,,,0.00,229.2,rob ver 1B,2013-12-11 22:57:00,
2013-12-11 15:58:00,64.1,16.7,29.59,WNW,300,11.3,13.8,16,-99.99,,,0.00,254.9,rob ver 1B,2013-12-11 22:58:00,
2013-12-11 15:59:00,64.2,17.1,29.59,WNW,303,11.8,13.8,15,-99.99,,,0.00,138.8,rob ver 1B,2013-12-11 22:59:00,
2013-12-11 16:00:00,61.1,10.6,29.62,WNW,285,15.5,18.4,13,-99.99,,,0.00,268.7,rob ver 1A,2013-12-11 23:00:00,
2013-12-11 16:01:00,64.1,16.6,29.59,WNW,302,12.6,15.5,15,-99.99,,,0.00,240.7,rob ver 1B,2013-12-11 23:01:00,
2013-12-11 16:02:00,64.1,17.3,29.59,NW,304,11.1,13.9,16,-99.99,,,0.00,238.3,rob ver 1B,2013-12-11 23:02:00,
2013-12-11 16:03:00,64.1,16.6,29.59,NW,305,13.7,16.1,15,-99.99,,,0.00,121,rob ver 1B,2013-12-11 23:03:00,
2013-12-11 16:04:00,64.1,16.8,29.59,WNW,303,13.9,15.5,16,-99.99,,,0.00,50.46,rob ver 1B,2013-12-11 23:04:00,
2013-12-11 16:05:00,61.1,10.7,29.62,WNW,282,16.6,20.9,13,-99.99,,,0.00,243.6,rob ver 1A,2013-12-11 23:05:00,
2013-12-11 16:06:00,63.8,17.3,29.59,WNW,301,12.2,13.8,16,-99.99,,,0.00,124.3,rob ver 1B,2013-12-11 23:06:00,
2013-12-11 16:07:00,63.8,17.5,29.59,WNW,301,11.0,13.0,16,-99.99,,,0.00,200.7,rob ver 1B,2013-12-11 23:07:00,
2013-12-11 16:08:00,63.8,17.4,29.59,WNW,300,12.4,15.3,16,-99.99,,,0.00,202.3,rob ver 1B,2013-12-11 23:08:00,
2013-12-11 16:09:00,63.9,17.4,29.59,WNW,303,12.5,15.3,16,-99.99,,,0.00,206.1,rob ver 1B,2013-12-11 23:09:00,
2013-12-11 16:10:00,61.0,10.7,29.62,WNW,296,15.0,20.2,13,-99.99,,,0.00,222.5,rob ver 1A,2013-12-11 23:10:00,
2013-12-11 16:11:00,64.0,17.2,29.59,WNW,298,11.6,14.7,16,-99.99,,,0.00,200.8,rob ver 1B,2013-12-11 23:11:00,
2013-12-11 16:12:00,64.0,17.3,29.59,WNW,295,11.6,13.5,15,-99.99,,,0.00,202,rob ver 1B,2013-12-11 23:12:00,
2013-12-11 16:13:00,64.0,17.8,29.59,WNW,294,10.3,13.4,16,-99.99,,,0.00,198.7,rob ver 1B,2013-12-11 23:13:00,
2013-12-11 16:14:00,64.1,17.1,29.59,WNW,297,12.2,13.6,16,-99.99,,,0.00,47.49,rob ver 1B,2013-12-11 23:14:00,
2013-12-11 16:15:00,60.9,10.8,29.62,WNW,292,13.4,16.6,13,-99.99,,,0.00,202.9,rob ver 1A,2013-12-11 23:15:00,
2013-12-11 16:16:00,63.7,17.5,29.59,West,277,12.0,14.2,16,-99.99,,,0.00,189,rob ver 1B,2013-12-11 23:16:00,
2013-12-11 16:17:00,63.6,17.6,29.59,WNW,283,11.6,13.2,16,-99.99,,,0.00,190,rob ver 1B,2013-12-11 23:17:00,
2013-12-11 16:18:00,63.6,17.5,29.59,WNW,282,9.8,11.3,16,-99.99,,,0.00,184.4,rob ver 1B,2013-12-11 23:18:00,
2013-12-11 16:19:00,63.6,17.9,29.59,West,277,10.3,12.1,16,-99.99,,,0.00,152.7,rob ver 1B,2013-12-11 23:19:00,
2013-12-11 16:20:00,60.9,10.6,29.62,WNW,293,17.3,20.6,13,-99.99,,,0.00,185.4,rob ver 1A,2013-12-11 23:20:00,
2013-12-11 16:21:00,63.6,17.9,29.59,West,279,10.8,12.1,16,-99.99,,,0.00,179.1,rob ver 1B,2013-12-11 23:21:00,
2013-12-11 16:22:00,63.6,18.3,29.59,West,280,8.0,9.7,17,-99.99,,,0.00,136.9,rob ver 1B,2013-12-11 23:22:00,
2013-12-11 16:23:00,63.7,18.7,29.59,West,273,6.8,8.3,17,-99.99,,,0.00,156.2,rob ver 1B,2013-12-11 23:23:00,
2013-12-11 16:24:00,63.8,18.6,29.59,West,276,8.0,11.1,17,-99.99,,,0.00,170.3,rob ver 1B,2013-12-11 23:24:00,
2013-12-11 16:25:00,63.8,18.7,29.56,West,277,9.7,11.7,17,-99.99,,,0.00,169.2,rob ver 1B,2013-12-11 23:25:00,
2013-12-11 16:26:00,61.1,10.5,29.62,WNW,289,16.2,19.3,13,-99.99,,,0.00,169.9,rob ver 1A,2013-12-11 23:26:00,
2013-12-11 16:27:00,63.8,18.1,29.59,West,278,11.0,12.8,17,-99.99,,,0.00,159.3,rob ver 1B,2013-12-11 23:27:00,
2013-12-11 16:28:00,63.8,18.3,29.59,WNW,284,9.8,12.3,16,-99.99,,,0.00,153,rob ver 1B,2013-12-11 23:28:00,
2013-12-11 16:29:00,63.8,18.0,29.56,WNW,286,9.8,11.2,17,-99.99,,,0.00,159.1,rob ver 1B,2013-12-11 23:29:00,
2013-12-11 16:30:00,63.8,18.2,29.59,West,281,8.6,10.8,17,-99.99,,,0.00,157.3,rob ver 1B,2013-12-11 23:30:00,
2013-12-11 16:31:00,60.6,10.3,29.62,WNW,293,17.6,20.0,13,-99.99,,,0.00,155.2,rob ver 1A,2013-12-11 23:31:00,
2013-12-11 16:32:00,63.9,17.9,29.59,WNW,282,10.3,12.4,17,-99.99,,,0.00,156,rob ver 1B,2013-12-11 23:32:00,
2013-12-11 16:33:00,63.8,18.3,29.59,West,280,10.9,13.0,17,-99.99,,,0.00,151.4,rob ver 1B,2013-12-11 23:33:00,
2013-12-11 16:34:00,63.7,18.6,29.59,West,268,10.8,12.8,17,-99.99,,,0.00,153.7,rob ver 1B,2013-12-11 23:34:00,
2013-12-11 16:35:00,63.5,18.8,29.59,West,268,11.1,12.8,17,-99.99,,,0.00,146.8,rob ver 1B,2013-12-11 23:35:00,
2013-12-11 16:36:00,60.7,10.8,29.62,WNW,296,15.4,17.9,13,-99.99,,,0.00,141.5,rob ver 1A,2013-12-11 23:36:00,
2013-12-11 16:37:00,63.2,19.4,29.59,West,261,10.3,13.1,18,-99.99,,,0.00,152.2,rob ver 1B,2013-12-11 23:37:00,
2013-12-11 16:38:00,63.0,19.4,29.59,West,261,10.7,13.1,18,-99.99,,,0.00,151.7,rob ver 1B,2013-12-11 23:38:00,
2013-12-11 16:39:00,62.9,19.4,29.59,West,264,10.8,13.2,18,-99.99,,,0.00,152.7,rob ver 1B,2013-12-11 23:39:00,
2013-12-11 16:40:00,62.8,19.3,29.59,West,263,10.8,14.6,18,-99.99,,,0.00,152.7,rob ver 1B,2013-12-11 23:40:00,
2013-12-11 16:41:00,60.5,10.9,29.62,WNW,285,16.8,20.0,13,-99.99,,,0.00,124.9,rob ver 1A,2013-12-11 23:41:00,
2013-12-11 16:42:00,62.7,19.0,29.59,West,262,11.7,14.3,18,-99.99,,,0.00,121,rob ver 1B,2013-12-11 23:42:00,
2013-12-11 16:43:00,62.5,19.0,29.59,West,261,11.7,14.4,18,-99.99,,,0.00,121.4,rob ver 1B,2013-12-11 23:43:00,
2013-12-11 16:44:00,62.5,19.1,29.56,West,262,10.9,13.1,18,-99.99,,,0.00,94.7,rob ver 1B,2013-12-11 23:44:00,
2013-12-11 16:45:00,62.5,19.2,29.59,West,259,10.8,13.8,18,-99.99,,,0.00,139.5,rob ver 1B,2013-12-11 23:45:00,
2013-12-11 16:46:00,60.3,10.6,29.62,WNW,297,16.6,18.9,13,-99.99,,,0.00,111.8,rob ver 1A,2013-12-11 23:46:00,
2013-12-11 16:47:00,62.5,19.4,29.59,West,267,11.0,13.5,18,-99.99,,,0.00,137.4,rob ver 1B,2013-12-11 23:47:00,
2013-12-11 16:48:00,62.5,19.4,29.59,West,264,9.7,12.5,18,-99.99,,,0.00,133.9,rob ver 1B,2013-12-11 23:48:00,
2013-12-11 16:49:00,62.5,19.1,29.59,West,266,11.2,13.2,18,-99.99,,,0.00,127.3,rob ver 1B,2013-12-11 23:49:00,
2013-12-11 16:50:00,62.5,19.1,29.59,West,266,12.0,14.3,18,-99.99,,,0.00,107.8,rob ver 1B,2013-12-11 23:50:00,
2013-12-11 16:51:00,60.2,10.8,29.62,WNW,301,13.9,17.2,14,-99.99,,,0.00,99,rob ver 1A,2013-12-11 23:51:00,
2013-12-11 16:52:00,62.4,19.4,29.59,West,271,10.0,11.7,18,-99.99,,,0.00,61.01,rob ver 1B,2013-12-11 23:52:00,
2013-12-11 16:53:00,62.3,19.4,29.59,West,274,9.9,11.9,19,-99.99,,,0.00,62.99,rob ver 1B,2013-12-11 23:53:00,
2013-12-11 16:54:00,62.2,19.3,29.59,West,270,12.4,15.9,18,-99.99,,,0.00,73.9,rob ver 1B,2013-12-11 23:54:00,
2013-12-11 16:55:00,62.1,19.3,29.56,West,269,12.1,15.2,18,-99.99,,,0.00,70.1,rob ver 1B,2013-12-11 23:55:00,
2013-12-11 16:56:00,60.0,10.8,29.62,WNW,295,17.1,20.4,14,-99.99,,,0.00,86.1,rob ver 1A,2013-12-11 23:56:00,
2013-12-11 16:57:00,62.0,19.4,29.59,West,272,11.9,14.3,18,-99.99,,,0.00,106.5,rob ver 1B,2013-12-11 23:57:00,
2013-12-11 16:58:00,62.0,19.4,29.56,West,269,12.6,15.3,19,-99.99,,,0.00,103.2,rob ver 1B,2013-12-11 23:58:00,
2013-12-11 16:59:00,62.0,19.4,29.56,West,272,11.1,13.6,19,-99.99,,,0.00,100.4,rob ver 1B,2013-12-11 23:59:00,
2013-12-11 17:00:00,62.1,19.5,29.59,West,270,10.0,12.8,19,-99.99,,,0.00,97.9,rob ver 1B,2013-12-12 00:00:00,
2013-12-11 17:01:00,59.8,11.0,29.62,WNW,292,14.2,17.7,14,-99.99,,,0.00,73.7,rob ver 1A,2013-12-12 00:01:00,
2013-12-11 17:02:00,62.1,19.7,29.59,West,268,10.1,12.9,19,-99.99,,,0.00,91.4,rob ver 1B,2013-12-12 00:02:00,
2013-12-11 17:03:00,62.1,19.6,29.59,West,268,10.7,13.1,19,-99.99,,,0.00,87.4,rob ver 1B,2013-12-12 00:03:00,
2013-12-11 17:04:00,62.1,19.4,29.59,West,269,12.2,14.7,19,-99.99,,,0.00,83.1,rob ver 1B,2013-12-12 00:04:00,
2013-12-11 17:05:00,62.0,19.6,29.59,West,266,10.5,12.3,19,-99.99,,,0.00,78.8,rob ver 1B,2013-12-12 00:05:00,
2013-12-11 17:06:00,59.5,11.1,29.62,WNW,291,16.4,19.3,14,-99.99,,,0.00,61.69,rob ver 1A,2013-12-12 00:06:00,
2013-12-11 17:07:00,62.0,19.6,29.59,West,268,10.5,12.6,19,-99.99,,,0.00,68.93,rob ver 1B,2013-12-12 00:07:00,
2013-12-11 17:08:00,61.9,19.7,29.59,West,263,9.9,12.8,19,-99.99,,,0.00,64.15,rob ver 1B,2013-12-12 00:08:00,
2013-12-11 17:09:00,61.9,19.6,29.56,West,267,10.0,12.3,19,-99.99,,,0.00,59.7,rob ver 1B,2013-12-12 00:09:00,
2013-12-11 17:10:00,61.9,19.8,29.56,West,263,9.2,10.4,19,-99.99,,,0.00,55.74,rob ver 1B,2013-12-12 00:10:00,
2013-12-11 17:11:00,61.8,19.7,29.59,West,264,10.1,11.6,19,-99.99,,,0.00,52.44,rob ver 1B,2013-12-12 00:11:00,
2013-12-11 17:12:00,59.3,11.2,29.62,WNW,293,16.4,20.2,14,-99.99,,,0.00,49.81,rob ver 1A,2013-12-12 00:12:00,
2013-12-11 17:13:00,61.7,19.6,29.59,West,262,9.4,11.1,19,-99.99,,,0.00,47.17,rob ver 1B,2013-12-12 00:13:00,
2013-12-11 17:14:00,61.7,19.8,29.56,West,260,8.6,11.0,19,-99.99,,,0.00,44.2,rob ver 1B,2013-12-12 00:14:00,
2013-12-11 17:15:00,61.6,19.9,29.59,WSW,258,8.3,10.0,19,-99.99,,,0.00,41.56,rob ver 1B,2013-12-12 00:15:00,
2013-12-11 17:16:00,61.5,19.9,29.59,West,259,9.1,11.8,19,-99.99,,,0.00,38.92,rob ver 1B,2013-12-12 00:16:00,
2013-12-11 17:17:00,59.0,11.3,29.62,WNW,298,12.6,14.8,14,-99.99,,,0.00,38.1,rob ver 1A,2013-12-12 00:17:00,
2013-12-11 17:18:00,61.4,20.0,29.59,West,262,8.0,10.4,20,-99.99,,,0.00,33.31,rob ver 1B,2013-12-12 00:18:00,
2013-12-11 17:19:00,61.3,19.9,29.59,West,262,8.8,11.1,19,-99.99,,,0.00,30.84,rob ver 1B,2013-12-12 00:19:00,
2013-12-11 17:20:00,61.2,19.8,29.59,West,262,8.7,10.9,19,-99.99,,,0.00,28.04,rob ver 1B,2013-12-12 00:20:00,
2013-12-11 17:21:00,61.2,19.8,29.59,West,264,8.9,11.1,19,-99.99,,,0.00,25.89,rob ver 1B,2013-12-12 00:21:00,
2013-12-11 17:22:00,58.8,11.1,29.62,WNW,299,14.6,18.0,14,-99.99,,,0.00,27.38,rob ver 1A,2013-12-12 00:22:00,
2013-12-11 17:23:00,61.0,19.9,29.59,West,266,9.4,11.5,20,-99.99,,,0.00,22.1,rob ver 1B,2013-12-12 00:23:00,
2013-12-11 17:24:00,60.9,19.9,29.56,West,264,9.3,11.4,20,-99.99,,,0.00,20.28,rob ver 1B,2013-12-12 00:24:00,
2013-12-11 17:25:00,60.9,19.9,29.59,West,264,9.1,12.1,20,-99.99,,,0.00,18.64,rob ver 1B,2013-12-12 00:25:00,
2013-12-11 17:26:00,60.8,19.9,29.59,West,262,9.4,11.5,20,-99.99,,,0.00,15.83,rob ver 1B,2013-12-12 00:26:00,
2013-12-11 17:27:00,58.4,11.4,29.62,WNW,293,13.2,15.7,15,-99.99,,,0.00,6.268,rob ver 1A,2013-12-12 00:27:00,
2013-12-11 17:28:00,60.6,20.2,29.56,West,262,8.8,10.0,20,-99.99,,,0.00,8.08,rob ver 1B,2013-12-12 00:28:00,
2013-12-11 17:29:00,60.5,20.1,29.59,West,262,9.7,11.9,20,-99.99,,,0.00,7.26,rob ver 1B,2013-12-12 00:29:00,
2013-12-11 17:30:00,60.5,20.1,29.59,West,264,9.7,11.4,20,-99.99,,,0.00,6.267,rob ver 1B,2013-12-12 00:30:00,
2013-12-11 17:31:00,60.4,20.2,29.56,West,264,8.7,10.8,21,-99.99,,,0.00,5.772,rob ver 1B,2013-12-12 00:31:00,
2013-12-11 17:32:00,58.0,11.8,29.62,WNW,296,13.2,17.2,15,-99.99,,,0.00,3.629,rob ver 1A,2013-12-12 00:32:00,
2013-12-11 17:33:00,60.2,20.3,29.59,West,263,9.7,11.1,21,-99.99,,,0.00,4.618,rob ver 1B,2013-12-12 00:33:00,
2013-12-11 17:34:00,60.1,20.4,29.59,West,262,8.7,10.5,21,-99.99,,,0.00,3.958,rob ver 1B,2013-12-12 00:34:00,
2013-12-11 17:35:00,60.0,20.5,29.59,West,264,8.6,10.6,21,-99.99,,,0.00,3.628,rob ver 1B,2013-12-12 00:35:00,
2013-12-11 17:36:00,59.9,20.6,29.59,West,265,8.3,10.0,21,-99.99,,,0.00,2.969,rob ver 1B,2013-12-12 00:36:00,
2013-12-11 17:37:00,57.8,11.7,29.62,WNW,293,12.2,14.0,15,-99.99,,,0.00,2.309,rob ver 1A,2013-12-12 00:37:00,
2013-12-11 17:38:00,59.7,20.6,29.59,West,266,8.6,10.5,21,-99.99,,,0.00,2.144,rob ver 1B,2013-12-12 00:38:00,
2013-12-11 17:39:00,59.7,20.7,29.59,West,268,8.7,10.5,22,-99.99,,,0.00,1.979,rob ver 1B,2013-12-12 00:39:00,
2013-12-11 17:40:00,59.6,20.7,29.56,West,267,8.2,9.8,21,-99.99,,,0.00,1.649,rob ver 1B,2013-12-12 00:40:00,
2013-12-11 17:41:00,59.5,20.7,29.59,West,268,8.3,9.9,22,-99.99,,,0.00,1.319,rob ver 1B,2013-12-12 00:41:00,
2013-12-11 17:42:00,57.5,12.1,29.62,WNW,288,11.7,14.5,16,-99.99,,,0.00,.99,rob ver 1A,2013-12-12 00:42:00,
2013-12-11 17:43:00,59.4,20.7,29.59,West,268,7.9,9.8,22,-99.99,,,0.00,.99,rob ver 1B,2013-12-12 00:43:00,
2013-12-11 17:44:00,59.3,20.7,29.59,West,269,8.2,10.8,22,-99.99,,,0.00,.825,rob ver 1B,2013-12-12 00:44:00,
2013-12-11 17:45:00,59.3,20.7,29.59,West,268,7.9,8.9,22,-99.99,,,0.00,.66,rob ver 1B,2013-12-12 00:45:00,
2013-12-11 17:46:00,59.2,20.6,29.59,West,269,7.8,9.6,22,-99.99,,,0.00,.66,rob ver 1B,2013-12-12 00:46:00,
2013-12-11 17:47:00,57.1,13.0,29.62,WNW,290,12.7,14.6,17,-99.99,,,0.00,.33,rob ver 1A,2013-12-12 00:47:00,
2013-12-11 17:48:00,59.1,20.7,29.59,West,268,7.2,8.8,22,-99.99,,,0.00,.495,rob ver 1B,2013-12-12 00:48:00,
2013-12-11 17:49:00,59.1,20.8,29.59,West,271,6.6,8.0,22,-99.99,,,0.00,.33,rob ver 1B,2013-12-12 00:49:00,
2013-12-11 17:50:00,59.0,20.7,29.59,West,271,6.9,8.4,22,-99.99,,,0.00,.33,rob ver 1B,2013-12-12 00:50:00,
2013-12-11 17:51:00,58.9,20.8,29.59,West,268,6.4,7.9,22,-99.99,,,0.00,.33,rob ver 1B,2013-12-12 00:51:00,
2013-12-11 17:52:00,58.9,20.9,29.59,West,269,6.1,7.2,22,-99.99,,,0.00,.33,rob ver 1B,2013-12-12 00:52:00,
2013-12-11 17:53:00,56.7,13.6,29.62,WNW,291,10.2,13.0,18,-99.99,,,0.00,0,rob ver 1A,2013-12-12 00:53:00,
2013-12-11 17:54:00,58.6,21.0,29.59,West,273,5.5,6.7,23,-99.99,,,0.00,.33,rob ver 1B,2013-12-12 00:54:00,
2013-12-11 17:55:00,58.5,21.1,29.59,West,272,5.3,6.7,23,-99.99,,,0.00,.165,rob ver 1B,2013-12-12 00:55:00,
2013-12-11 17:56:00,58.4,21.3,29.59,West,271,5.2,6.6,23,-99.99,,,0.00,0,rob ver 1B,2013-12-12 00:56:00,
2013-12-11 17:57:00,58.3,21.3,29.59,West,272,5.1,5.9,23,-99.99,,,0.00,0,rob ver 1B,2013-12-12 00:57:00,
2013-12-11 17:58:00,56.4,13.8,29.62,WNW,291,10.2,11.7,18,-99.99,,,0.00,0,rob ver 1A,2013-12-12 00:58:00,
2013-12-11 17:59:00,58.1,21.3,29.59,West,272,5.1,6.3,23,-99.99,,,0.00,0,rob ver 1B,2013-12-12 00:59:00,
2013-12-11 18:00:00,58.0,21.4,29.59,West,275,5.1,6.2,23,-99.99,,,0.00,0,rob ver 1B,2013-12-12 01:00:00,
2013-12-11 18:01:00,57.9,21.4,29.59,West,275,4.9,5.9,24,-99.99,,,0.00,0,rob ver 1B,2013-12-12 01:01:00,
2013-12-11 18:02:00,57.9,21.4,29.59,West,275,4.8,5.5,24,-99.99,,,0.00,0,rob ver 1B,2013-12-12 01:02:00,
2013-12-11 18:03:00,56.3,13.9,29.62,WNW,288,11.6,14.0,18,-99.99,,,0.00,0,rob ver 1A,2013-12-12 01:03:00,
2013-12-11 18:04:00,57.7,21.5,29.59,West,278,4.7,5.4,24,-99.99,,,0.00,0,rob ver 1B,2013-12-12 01:04:00,
2013-12-11 18:05:00,57.6,21.5,29.59,West,279,4.6,6.2,24,-99.99,,,0.00,0,rob ver 1B,2013-12-12 01:05:00,
2013-12-11 18:06:00,57.5,21.5,29.59,West,280,5.0,5.9,24,-99.99,,,0.00,0,rob ver 1B,2013-12-12 01:06:00,
2013-12-11 18:07:00,57.5,21.5,29.59,West,281,5.0,5.7,24,-99.99,,,0.00,0,rob ver 1B,2013-12-12 01:07:00,
2013-12-11 18:08:00,56.3,14.1,29.62,WNW,288,10.0,12.0,18,-99.99,,,0.00,0,rob ver 1A,2013-12-12 01:08:00,
2013-12-11 18:09:00,57.4,21.5,29.59,West,281,5.0,5.8,24,-99.99,,,0.00,0,rob ver 1B,2013-12-12 01:09:00,
2013-12-11 18:10:00,57.4,21.6,29.59,WNW,282,4.7,5.4,24,-99.99,,,0.00,0,rob ver 1B,2013-12-12 01:10:00,
2013-12-11 18:11:00,57.3,21.6,29.59,WNW,283,4.7,5.5,24,-99.99,,,0.00,0,rob ver 1B,2013-12-12 01:11:00,
2013-12-11 18:12:00,57.3,21.6,29.59,WNW,285,4.7,5.5,24,-99.99,,,0.00,0,rob ver 1B,2013-12-12 01:12:00,
2013-12-11 18:13:00,56.0,14.0,29.62,WNW,288,12.2,14.8,18,-99.99,,,0.00,0,rob ver 1A,2013-12-12 01:13:00,
2013-12-11 18:14:00,57.3,21.5,29.59,WNW,287,5.2,6.2,24,-99.99,,,0.00,0,rob ver 1B,2013-12-12 01:14:00,
2013-12-11 18:15:00,57.3,21.6,29.59,WNW,286,5.0,6.0,24,-99.99,,,0.00,0,rob ver 1B,2013-12-12 01:15:00,
2013-12-11 18:16:00,57.2,21.6,29.59,WNW,286,5.1,5.8,25,-99.99,,,0.00,0,rob ver 1B,2013-12-12 01:16:00,
2013-12-11 18:17:00,57.1,21.6,29.59,WNW,285,5.1,5.5,25,-99.99,,,0.00,0,rob ver 1B,2013-12-12 01:17:00,
2013-12-11 18:18:00,55.7,14.3,29.62,WNW,286,11.0,13.6,19,-99.99,,,0.00,0,rob ver 1A,2013-12-12 01:18:00,
2013-12-11 18:19:00,57.0,21.7,29.59,West,279,4.9,5.5,25,-99.99,,,0.00,0,rob ver 1B,2013-12-12 01:19:00,
2013-12-11 18:20:00,56.9,21.9,29.59,West,272,4.6,5.1,25,-99.99,,,0.00,0,rob ver 1B,2013-12-12 01:20:00,
2013-12-11 18:21:00,56.8,21.9,29.59,West,266,4.7,5.2,25,-99.99,,,0.00,0,rob ver 1B,2013-12-12 01:21:00,
2013-12-11 18:22:00,56.6,22.0,29.59,West,262,4.6,4.9,25,-99.99,,,0.00,0,rob ver 1B,2013-12-12 01:22:00,
2013-12-11 18:23:00,55.7,14.3,29.62,WNW,293,13.5,16.3,19,-99.99,,,0.00,0,rob ver 1A,2013-12-12 01:23:00,
2013-12-11 18:24:00,56.4,22.1,29.59,West,264,4.4,4.8,26,-99.99,,,0.00,0,rob ver 1B,2013-12-12 01:24:00,
2013-12-11 18:25:00,56.3,22.1,29.59,West,262,4.4,4.9,26,-99.99,,,0.00,0,rob ver 1B,2013-12-12 01:25:00,
2013-12-11 18:26:00,56.2,22.2,29.59,West,265,4.8,5.2,26,-99.99,,,0.00,0,rob ver 1B,2013-12-12 01:26:00,
2013-12-11 18:27:00,56.1,22.2,29.59,West,269,5.0,5.3,26,-99.99,,,0.00,0,rob ver 1B,2013-12-12 01:27:00,
2013-12-11 18:28:00,55.7,14.4,29.62,WNW,294,12.8,15.6,19,-99.99,,,0.00,0,rob ver 1A,2013-12-12 01:28:00,
2013-12-11 18:29:00,56.0,22.2,29.59,West,276,4.8,5.2,26,-99.99,,,0.00,0,rob ver 1B,2013-12-12 01:29:00,
2013-12-11 18:30:00,56.0,22.2,29.59,West,281,4.8,5.2,26,-99.99,,,0.00,0,rob ver 1B,2013-12-12 01:30:00,
2013-12-11 18:31:00,56.0,22.2,29.59,West,279,4.3,5.1,26,-99.99,,,0.00,0,rob ver 1B,2013-12-12 01:31:00,
2013-12-11 18:32:00,55.9,22.3,29.59,West,277,3.9,4.3,26,-99.99,,,0.00,0,rob ver 1B,2013-12-12 01:32:00,
2013-12-11 18:33:00,55.5,14.4,29.62,WNW,297,14.8,17.1,19,-99.99,,,0.00,0,rob ver 1A,2013-12-12 01:33:00,
2013-12-11 18:34:00,55.8,22.4,29.59,West,279,3.8,4.3,27,-99.99,,,0.00,0,rob ver 1B,2013-12-12 01:34:00,
2013-12-11 18:35:00,55.7,22.4,29.59,West,279,3.7,4.3,27,-99.99,,,0.00,0,rob ver 1B,2013-12-12 01:35:00,
2013-12-11 18:36:00,55.7,22.3,29.59,West,281,4.0,4.9,27,-99.99,,,0.00,0,rob ver 1B,2013-12-12 01:36:00,
2013-12-11 18:37:00,55.7,22.3,29.59,WNW,282,4.1,5.1,27,-99.99,,,0.00,0,rob ver 1B,2013-12-12 01:37:00,
2013-12-11 18:38:00,55.4,14.6,29.62,WNW,293,12.9,15.3,19,-99.99,,,0.00,0,rob ver 1A,2013-12-12 01:38:00,
2013-12-11 18:39:00,55.7,22.3,29.59,WNW,287,4.5,5.2,27,-99.99,,,0.00,0,rob ver 1B,2013-12-12 01:39:00,
2013-12-11 18:40:00,55.7,22.3,29.59,WNW,288,4.7,5.5,27,-99.99,,,0.00,0,rob ver 1B,2013-12-12 01:40:00,
2013-12-11 18:41:00,55.7,22.4,29.59,WNW,289,4.4,4.8,27,-99.99,,,0.00,0,rob ver 1B,2013-12-12 01:41:00,
2013-12-11 18:42:00,55.7,22.4,29.59,WNW,288,4.3,4.9,27,-99.99,,,0.00,0,rob ver 1B,2013-12-12 01:42:00,
2013-12-11 18:43:00,55.2,14.7,29.62,WNW,295,13.2,16.0,19,-99.99,,,0.00,0,rob ver 1A,2013-12-12 01:43:00,
2013-12-11 18:44:00,55.6,22.6,29.59,WNW,288,4.0,4.1,27,-99.99,,,0.00,0,rob ver 1B,2013-12-12 01:44:00,
2013-12-11 18:45:00,55.5,22.5,29.59,WNW,292,3.9,4.3,27,-99.99,,,0.00,0,rob ver 1B,2013-12-12 01:45:00,
2013-12-11 18:46:00,55.5,22.5,29.59,WNW,292,3.9,4.3,27,-99.99,,,0.00,0,rob ver 1B,2013-12-12 01:46:00,
2013-12-11 18:47:00,55.5,22.5,29.59,WNW,292,3.8,4.2,27,-99.99,,,0.00,0,rob ver 1B,2013-12-12 01:47:00,
2013-12-11 18:48:00,55.5,22.6,29.59,WNW,294,3.7,4.0,27,-99.99,,,0.00,0,rob ver 1B,2013-12-12 01:48:00,
2013-12-11 18:49:00,55.0,14.6,29.62,WNW,293,15.2,17.8,19,-99.99,,,0.00,0,rob ver 1A,2013-12-12 01:49:00,
2013-12-11 18:50:00,55.4,22.9,29.59,WNW,302,3.8,4.0,28,-99.99,,,0.00,0,rob ver 1B,2013-12-12 01:50:00,
2013-12-11 18:51:00,55.3,22.8,29.59,WNW,300,3.9,4.2,28,-99.99,,,0.00,0,rob ver 1B,2013-12-12 01:51:00,
2013-12-11 18:52:00,55.2,22.8,29.59,WNW,302,4.0,4.5,28,-99.99,,,0.00,0,rob ver 1B,2013-12-12 01:52:00,
2013-12-11 18:53:00,55.2,22.9,29.59,WNW,303,4.1,4.5,28,-99.99,,,0.00,0,rob ver 1B,2013-12-12 01:53:00,
2013-12-11 18:54:00,55.0,14.7,29.62,WNW,297,14.3,16.6,19,-99.99,,,0.00,0,rob ver 1A,2013-12-12 01:54:00,
2013-12-11 18:55:00,55.1,23.0,29.59,NW,305,4.0,4.4,28,-99.99,,,0.00,0,rob ver 1B,2013-12-12 01:55:00,
2013-12-11 18:56:00,55.0,23.3,29.59,NW,308,3.4,4.0,29,-99.99,,,0.00,0,rob ver 1B,2013-12-12 01:56:00,
2013-12-11 18:57:00,54.8,23.5,29.59,NW,309,3.5,4.0,29,-99.99,,,0.00,0,rob ver 1B,2013-12-12 01:57:00,
2013-12-11 18:58:00,54.6,23.5,29.59,NW,312,3.8,4.1,29,-99.99,,,0.00,0,rob ver 1B,2013-12-12 01:58:00,
2013-12-11 18:59:00,54.8,14.8,29.62,WNW,293,11.8,14.5,20,-99.99,,,0.00,0,rob ver 1A,2013-12-12 01:59:00,
2013-12-11 19:00:00,54.4,23.1,29.59,NW,318,3.8,4.5,29,-99.99,,,0.00,0,rob ver 1B,2013-12-12 02:00:00,
2013-12-11 19:01:00,54.5,23.2,29.59,NW,315,4.0,4.6,29,-99.99,,,0.00,0,rob ver 1B,2013-12-12 02:01:00,
2013-12-11 19:02:00,54.5,23.0,29.59,NW,315,4.2,5.3,29,-99.99,,,0.00,0,rob ver 1B,2013-12-12 02:02:00,
2013-12-11 19:03:00,54.5,23.1,29.59,NW,312,4.3,5.0,29,-99.99,,,0.00,0,rob ver 1B,2013-12-12 02:03:00,
2013-12-11 19:04:00,54.8,14.7,29.62,WNW,296,12.5,14.4,20,-99.99,,,0.00,0,rob ver 1A,2013-12-12 02:04:00,
2013-12-11 19:05:00,54.6,23.0,29.59,WNW,303,3.9,4.5,29,-99.99,,,0.00,0,rob ver 1B,2013-12-12 02:05:00,
2013-12-11 19:06:00,54.7,23.0,29.59,WNW,299,4.0,4.7,28,-99.99,,,0.00,0,rob ver 1B,2013-12-12 02:06:00,
2013-12-11 19:07:00,54.7,23.1,29.59,WNW,295,4.1,4.9,29,-99.99,,,0.00,0,rob ver 1B,2013-12-12 02:07:00,
2013-12-11 19:08:00,54.7,23.2,29.59,WNW,291,4.1,4.7,29,-99.99,,,0.00,0,rob ver 1B,2013-12-12 02:08:00,
2013-12-11 19:09:00,54.6,14.7,29.62,WNW,293,13.3,16.0,20,-99.99,,,0.00,0,rob ver 1A,2013-12-12 02:09:00,
2013-12-11 19:10:00,54.3,23.8,29.59,West,271,4.0,4.3,30,-99.99,,,0.00,0,rob ver 1B,2013-12-12 02:10:00,
2013-12-11 19:11:00,54.1,23.6,29.59,WNW,283,4.4,4.7,30,-99.99,,,0.00,0,rob ver 1B,2013-12-12 02:11:00,
2013-12-11 19:12:00,54.0,23.3,29.59,WNW,291,4.6,4.8,30,-99.99,,,0.00,0,rob ver 1B,2013-12-12 02:12:00,
2013-12-11 19:13:00,54.0,23.1,29.59,WNW,297,4.9,5.3,29,-99.99,,,0.00,0,rob ver 1B,2013-12-12 02:13:00,
2013-12-11 19:14:00,54.5,14.6,29.65,WNW,293,14.2,16.9,20,-99.99,,,0.00,0,rob ver 1A,2013-12-12 02:14:00,
2013-12-11 19:15:00,54.3,23.0,29.59,NW,305,5.5,5.6,29,-99.99,,,0.00,0,rob ver 1B,2013-12-12 02:15:00,
2013-12-11 19:16:00,54.4,23.2,29.59,NW,308,5.4,5.5,29,-99.99,,,0.00,0,rob ver 1B,2013-12-12 02:16:00,
2013-12-11 19:17:00,54.3,23.7,29.59,NW,310,5.0,5.4,30,-99.99,,,0.00,0,rob ver 1B,2013-12-12 02:17:00,
2013-12-11 19:18:00,54.1,23.5,29.59,NW,311,5.1,5.3,30,-99.99,,,0.00,0,rob ver 1B,2013-12-12 02:18:00,
2013-12-11 19:19:00,54.2,14.4,29.62,WNW,292,13.9,16.9,20,-99.99,,,0.00,0,rob ver 1A,2013-12-12 02:19:00,
2013-12-11 19:20:00,53.9,23.5,29.59,NW,310,5.5,5.7,30,-99.99,,,0.00,0,rob ver 1B,2013-12-12 02:20:00,
2013-12-11 19:21:00,53.8,23.6,29.59,NW,311,5.7,5.9,30,-99.99,,,0.00,0,rob ver 1B,2013-12-12 02:21:00,
2013-12-11 19:22:00,53.7,23.6,29.59,NW,309,5.7,6.0,30,-99.99,,,0.00,0,rob ver 1B,2013-12-12 02:22:00,
2013-12-11 19:23:00,53.7,23.2,29.59,NW,308,5.8,6.3,29,-99.99,,,0.00,0,rob ver 1B,2013-12-12 02:23:00,
2013-12-11 19:24:00,54.2,14.4,29.65,WNW,292,13.3,17.0,20,-99.99,,,0.00,0,rob ver 1A,2013-12-12 02:24:00,
2013-12-11 19:25:00,54.0,22.4,29.59,NW,304,5.8,6.3,28,-99.99,,,0.00,0,rob ver 1B,2013-12-12 02:25:00,
2013-12-11 19:26:00,54.3,22.1,29.59,NW,304,6.0,6.7,28,-99.99,,,0.00,0,rob ver 1B,2013-12-12 02:26:00,
2013-12-11 19:27:00,54.6,21.9,29.59,NW,306,6.6,7.9,27,-99.99,,,0.00,0,rob ver 1B,2013-12-12 02:27:00,
2013-12-11 19:28:00,54.8,21.7,29.59,NW,306,7.1,8.4,27,-99.99,,,0.00,0,rob ver 1B,2013-12-12 02:28:00,
2013-12-11 19:29:00,54.0,14.4,29.62,WNW,291,12.8,15.7,20,-99.99,,,0.00,0,rob ver 1A,2013-12-12 02:29:00,
2013-12-11 19:30:00,55.2,21.7,29.59,NW,304,6.8,8.1,26,-99.99,,,0.00,0,rob ver 1B,2013-12-12 02:30:00,
2013-12-11 19:31:00,55.2,21.8,29.59,NW,306,6.7,8.1,26,-99.99,,,0.00,0,rob ver 1B,2013-12-12 02:31:00,
2013-12-11 19:32:00,55.2,21.8,29.59,NW,306,7.0,8.5,26,-99.99,,,0.00,0,rob ver 1B,2013-12-12 02:32:00,
2013-12-11 19:33:00,55.2,21.7,29.59,NW,305,6.9,8.1,27,-99.99,,,0.00,0,rob ver 1B,2013-12-12 02:33:00,
2013-12-11 19:34:00,54.0,14.1,29.65,WNW,292,15.1,17.4,20,-99.99,,,0.00,0,rob ver 1A,2013-12-12 02:34:00,
2013-12-11 19:35:00,55.2,21.8,29.59,WNW,303,7.3,8.6,26,-99.99,,,0.00,0,rob ver 1B,2013-12-12 02:35:00,
2013-12-11 19:36:00,55.2,21.7,29.59,WNW,303,7.6,8.6,26,-99.99,,,0.00,0,rob ver 1B,2013-12-12 02:36:00,
2013-12-11 19:37:00,55.1,21.8,29.59,NW,304,7.3,9.0,26,-99.99,,,0.00,0,rob ver 1B,2013-12-12 02:37:00,
2013-12-11 19:38:00,55.1,21.7,29.59,WNW,302,7.7,9.6,27,-99.99,,,0.00,0,rob ver 1B,2013-12-12 02:38:00,
2013-12-11 19:39:00,53.8,14.1,29.65,WNW,293,13.8,18.3,20,-99.99,,,0.00,0,rob ver 1A,2013-12-12 02:39:00,
2013-12-11 19:40:00,55.0,21.8,29.59,WNW,297,7.6,8.6,27,-99.99,,,0.00,0,rob ver 1B,2013-12-12 02:40:00,
2013-12-11 19:41:00,55.0,21.8,29.59,WNW,294,7.4,8.1,27,-99.99,,,0.00,0,rob ver 1B,2013-12-12 02:41:00,
2013-12-11 19:42:00,54.9,21.9,29.59,WNW,291,7.1,8.5,27,-99.99,,,0.00,0,rob ver 1B,2013-12-12 02:42:00,
2013-12-11 19:43:00,54.8,22.0,29.59,WNW,290,6.8,7.7,27,-99.99,,,0.00,0,rob ver 1B,2013-12-12 02:43:00,
2013-12-11 19:44:00,54.7,22.1,29.59,WNW,290,6.7,7.5,27,-99.99,,,0.00,0,rob ver 1B,2013-12-12 02:44:00,
2013-12-11 19:45:00,53.8,14.0,29.62,WNW,295,13.8,18.3,20,-99.99,,,0.00,0,rob ver 1A,2013-12-12 02:45:00,
2013-12-11 19:46:00,54.4,22.2,29.59,WNW,289,6.4,6.9,28,-99.99,,,0.00,0,rob ver 1B,2013-12-12 02:46:00,
2013-12-11 19:47:00,54.3,22.2,29.59,WNW,289,6.3,7.0,28,-99.99,,,0.00,0,rob ver 1B,2013-12-12 02:47:00,
2013-12-11 19:48:00,54.2,22.2,29.59,WNW,291,6.4,7.0,28,-99.99,,,0.00,0,rob ver 1B,2013-12-12 02:48:00,
2013-12-11 19:49:00,54.1,22.3,29.59,WNW,292,6.2,7.2,28,-99.99,,,0.00,0,rob ver 1B,2013-12-12 02:49:00,
2013-12-11 19:50:00,53.9,13.9,29.65,WNW,297,12.3,15.9,20,-99.99,,,0.00,0,rob ver 1A,2013-12-12 02:50:00,
2013-12-11 19:51:00,53.9,22.3,29.59,WNW,293,6.0,6.5,28,-99.99,,,0.00,0,rob ver 1B,2013-12-12 02:51:00,
2013-12-11 19:52:00,53.9,22.4,29.59,WNW,293,5.9,6.5,29,-99.99,,,0.00,0,rob ver 1B,2013-12-12 02:52:00,
2013-12-11 19:53:00,53.8,22.5,29.59,WNW,292,5.8,6.2,29,-99.99,,,0.00,0,rob ver 1B,2013-12-12 02:53:00,
2013-12-11 19:54:00,53.7,22.6,29.59,WNW,291,5.9,6.2,29,-99.99,,,0.00,0,rob ver 1B,2013-12-12 02:54:00,
2013-12-11 19:55:00,53.7,13.9,29.65,WNW,294,12.6,15.1,20,-99.99,,,0.00,0,rob ver 1A,2013-12-12 02:55:00,
2013-12-11 19:56:00,53.3,22.7,29.59,WNW,287,5.5,5.8,30,-99.99,,,0.00,0,rob ver 1B,2013-12-12 02:56:00,
2013-12-11 19:57:00,53.2,22.7,29.59,WNW,285,5.3,5.9,30,-99.99,,,0.00,0,rob ver 1B,2013-12-12 02:57:00,
2013-12-11 19:58:00,53.1,22.7,29.59,WNW,284,5.1,5.6,30,-99.99,,,0.00,0,rob ver 1B,2013-12-12 02:58:00,
2013-12-11 19:59:00,53.1,22.7,29.59,West,281,4.9,5.5,30,-99.99,,,0.00,0,rob ver 1B,2013-12-12 02:59:00,
2013-12-11 20:00:00,53.6,13.7,29.65,WNW,293,12.9,15.4,20,-99.99,,,0.00,0,rob ver 1A,2013-12-12 03:00:00,
2013-12-11 20:01:00,52.8,23.2,29.59,West,265,4.4,4.8,31,-99.99,,,0.00,0,rob ver 1B,2013-12-12 03:01:00,
2013-12-11 20:02:00,52.6,23.3,29.59,West,260,4.5,5.1,32,-99.99,,,0.00,0,rob ver 1B,2013-12-12 03:02:00,
2013-12-11 20:03:00,52.5,23.5,29.59,WSW,257,4.5,4.8,32,-99.99,,,0.00,0,rob ver 1B,2013-12-12 03:03:00,
2013-12-11 20:04:00,52.4,23.4,29.59,West,260,4.7,5.6,31,-99.99,,,0.00,0,rob ver 1B,2013-12-12 03:04:00,
2013-12-11 20:05:00,53.5,13.8,29.65,WNW,296,11.7,13.1,20,-99.99,,,0.00,0,rob ver 1A,2013-12-12 03:05:00,
2013-12-11 20:06:00,52.5,23.3,29.59,West,263,4.7,5.6,31,-99.99,,,0.00,0,rob ver 1B,2013-12-12 03:06:00,
2013-12-11 20:07:00,52.5,23.2,29.59,West,259,4.8,5.7,31,-99.99,,,0.00,0,rob ver 1B,2013-12-12 03:07:00,
2013-12-11 20:08:00,52.5,23.7,29.59,WSW,250,5.1,5.8,32,-99.99,,,0.00,0,rob ver 1B,2013-12-12 03:08:00,
2013-12-11 20:09:00,52.3,24.0,29.59,WSW,246,5.3,5.8,33,-99.99,,,0.00,0,rob ver 1B,2013-12-12 03:09:00,
2013-12-11 20:10:00,53.4,13.9,29.65,WNW,295,11.5,15.7,20,-99.99,,,0.00,0,rob ver 1A,2013-12-12 03:10:00,
2013-12-11 20:11:00,51.8,23.8,29.59,WSW,256,4.9,5.3,32,-99.99,,,0.00,0,rob ver 1B,2013-12-12 03:11:00,
2013-12-11 20:12:00,51.8,23.7,29.59,West,262,4.5,5.3,33,-99.99,,,0.00,0,rob ver 1B,2013-12-12 03:12:00,
2013-12-11 20:13:00,51.8,23.7,29.59,West,267,4.1,4.5,33,-99.99,,,0.00,0,rob ver 1B,2013-12-12 03:13:00,
2013-12-11 20:14:00,51.8,23.5,29.59,West,275,4.2,5.0,32,-99.99,,,0.00,0,rob ver 1B,2013-12-12 03:14:00,
2013-12-11 20:15:00,53.3,13.8,29.65,WNW,296,11.9,14.2,20,-99.99,,,0.00,0,rob ver 1A,2013-12-12 03:15:00,
2013-12-11 20:16:00,51.8,23.4,29.59,West,277,4.2,4.9,32,-99.99,,,0.00,0,rob ver 1B,2013-12-12 03:16:00,
2013-12-11 20:17:00,51.9,23.7,29.59,West,275,3.5,4.7,32,-99.99,,,0.00,0,rob ver 1B,2013-12-12 03:17:00,
2013-12-11 20:18:00,51.9,23.7,29.59,West,272,3.7,4.1,33,-99.99,,,0.00,0,rob ver 1B,2013-12-12 03:18:00,
2013-12-11 20:19:00,51.8,23.7,29.59,WSW,258,3.5,3.9,33,-99.99,,,0.00,0,rob ver 1B,2013-12-12 03:19:00,
2013-12-11 20:20:00,53.3,13.7,29.65,WNW,294,12.2,14.2,20,-99.99,,,0.00,0,rob ver 1A,2013-12-12 03:20:00,
2013-12-11 20:21:00,51.6,24.1,29.59,WSW,239,3.3,3.5,34,-99.99,,,0.00,0,rob ver 1B,2013-12-12 03:21:00,
2013-12-11 20:22:00,51.4,24.2,29.59,SW,228,3.2,3.7,34,-99.99,,,0.00,0,rob ver 1B,2013-12-12 03:22:00,
2013-12-11 20:23:00,51.3,24.4,29.59,SW,230,3.3,3.6,34,-99.99,,,0.00,0,rob ver 1B,2013-12-12 03:23:00,
2013-12-11 20:24:00,51.1,24.3,29.59,SW,230,2.6,3.3,34,-99.99,,,0.00,0,rob ver 1B,2013-12-12 03:24:00,
2013-12-11 20:25:00,53.1,13.7,29.65,WNW,294,12.6,14.6,20,-99.99,,,0.00,0,rob ver 1A,2013-12-12 03:25:00,
2013-12-11 20:26:00,51.0,23.7,29.59,SW,221,2.4,3.3,34,-99.99,,,0.00,0,rob ver 1B,2013-12-12 03:26:00,
2013-12-11 20:27:00,51.0,23.7,29.59,SW,219,2.7,3.4,34,-99.99,,,0.00,0,rob ver 1B,2013-12-12 03:27:00,
2013-12-11 20:28:00,51.1,23.7,29.59,SW,218,2.6,3.2,34,-99.99,,,0.00,0,rob ver 1B,2013-12-12 03:28:00,
2013-12-11 20:29:00,51.1,23.7,29.59,SSW,207,3.0,3.6,34,-99.99,,,0.00,0,rob ver 1B,2013-12-12 03:29:00,
2013-12-11 20:30:00,51.1,23.7,29.62,SSW,208,2.9,3.4,33,-99.99,,,0.00,0,rob ver 1B,2013-12-12 03:30:00,
2013-12-11 20:31:00,53.1,13.8,29.65,WNW,297,12.5,15.4,20,-99.99,,,0.00,0,rob ver 1A,2013-12-12 03:31:00,
2013-12-11 20:32:00,51.0,23.5,29.59,SSW,213,1.7,2.1,33,-99.99,,,0.00,0,rob ver 1B,2013-12-12 03:32:00,
2013-12-11 20:33:00,51.1,23.5,29.62,SSW,202,1.7,2.3,33,-99.99,,,0.00,0,rob ver 1B,2013-12-12 03:33:00,
2013-12-11 20:34:00,51.1,23.6,29.62,SSW,201,2.2,2.9,33,-99.99,,,0.00,0,rob ver 1B,2013-12-12 03:34:00,
2013-12-11 20:35:00,51.1,23.6,29.59,SSW,199,2.4,2.8,33,-99.99,,,0.00,0,rob ver 1B,2013-12-12 03:35:00,
2013-12-11 20:36:00,53.1,13.7,29.65,WNW,296,12.7,16.0,20,-99.99,,,0.00,0,rob ver 1A,2013-12-12 03:36:00,
2013-12-11 20:37:00,51.0,23.5,29.62,SSW,205,1.8,2.4,33,-99.99,,,0.00,0,rob ver 1B,2013-12-12 03:37:00,
2013-12-11 20:38:00,51.0,23.5,29.62,SW,214,1.1,1.6,33,-99.99,,,0.00,0,rob ver 1B,2013-12-12 03:38:00,
2013-12-11 20:39:00,51.0,23.4,29.59,SW,216,0.8,1.1,33,-99.99,,,0.00,0,rob ver 1B,2013-12-12 03:39:00,
2013-12-11 20:40:00,51.0,23.5,29.62,SW,229,0.8,1.1,33,-99.99,,,0.00,0,rob ver 1B,2013-12-12 03:40:00,
2013-12-11 20:41:00,52.9,13.6,29.65,WNW,298,13.2,15.9,20,-99.99,,,0.00,0,rob ver 1A,2013-12-12 03:41:00,
2013-12-11 20:42:00,50.9,23.4,29.59,NW,313,0.1,0.4,33,-99.99,,,0.00,0,rob ver 1B,2013-12-12 03:42:00,
2013-12-11 20:43:00,50.9,23.4,29.62,WSW,251,0.3,0.7,33,-99.99,,,0.00,0,rob ver 1B,2013-12-12 03:43:00,
2013-12-11 20:44:00,50.9,23.4,29.62,SSE,165,0.4,0.9,33,-99.99,,,0.00,0,rob ver 1B,2013-12-12 03:44:00,
2013-12-11 20:45:00,50.9,23.5,29.62,SSE,159,1.0,1.4,34,-99.99,,,0.00,0,rob ver 1B,2013-12-12 03:45:00,
2013-12-11 20:46:00,52.8,13.7,29.65,WNW,301,12.3,14.7,20,-99.99,,,0.00,0,rob ver 1A,2013-12-12 03:46:00,
2013-12-11 20:47:00,50.9,23.7,29.62,SE,136,1.8,2.0,34,-99.99,,,0.00,0,rob ver 1B,2013-12-12 03:47:00,
2013-12-11 20:48:00,50.9,23.5,29.62,SE,125,2.1,2.5,33,-99.99,,,0.00,0,rob ver 1B,2013-12-12 03:48:00,
2013-12-11 20:49:00,51.0,23.5,29.62,ESE,123,2.8,3.1,34,-99.99,,,0.00,0,rob ver 1B,2013-12-12 03:49:00,
2013-12-11 20:50:00,50.9,23.9,29.62,ESE,116,3.3,3.6,34,-99.99,,,0.00,0,rob ver 1B,2013-12-12 03:50:00,
2013-12-11 20:51:00,52.8,13.7,29.65,WNW,299,12.5,15.3,20,-99.99,,,0.00,0,rob ver 1A,2013-12-12 03:51:00,
2013-12-11 20:52:00,50.6,23.9,29.62,ESE,115,3.7,4.0,34,-99.99,,,0.00,0,rob ver 1B,2013-12-12 03:52:00,
2013-12-11 20:53:00,50.5,24.4,29.62,ESE,121,3.4,3.9,36,-99.99,,,0.00,0,rob ver 1B,2013-12-12 03:53:00,
2013-12-11 20:54:00,50.2,24.6,29.62,SE,132,4.1,4.7,36,-99.99,,,0.00,0,rob ver 1B,2013-12-12 03:54:00,
2013-12-11 20:55:00,50.1,24.7,29.62,SE,138,3.8,4.3,36,-99.99,,,0.00,0,rob ver 1B,2013-12-12 03:55:00,
2013-12-11 20:56:00,52.7,13.6,29.65,WNW,301,12.0,14.8,20,-99.99,,,0.00,0,rob ver 1A,2013-12-12 03:56:00,
2013-12-11 20:57:00,50.0,24.4,29.62,SE,142,3.3,3.6,35,-99.99,,,0.00,0,rob ver 1B,2013-12-12 03:57:00,
2013-12-11 20:58:00,50.1,23.8,29.62,SE,138,3.4,3.8,34,-99.99,,,0.00,0,rob ver 1B,2013-12-12 03:58:00,
2013-12-11 20:59:00,50.3,23.3,29.62,SE,136,2.1,2.9,34,-99.99,,,0.00,0,rob ver 1B,2013-12-12 03:59:00,
2013-12-11 21:00:00,50.5,23.4,29.62,SSE,162,3.1,4.2,34,-99.99,,,0.00,0,rob ver 1B,2013-12-12 04:00:00,
2013-12-11 21:01:00,52.6,13.5,29.65,WNW,298,12.0,14.9,20,-99.99,,,0.00,0,rob ver 1A,2013-12-12 04:01:00,
2013-12-11 21:02:00,50.8,23.2,29.62,NE,39,0.9,2.4,33,-99.99,,,0.00,0,rob ver 1B,2013-12-12 04:02:00,
2013-12-11 21:03:00,50.9,23.0,29.62,SW,236,0.5,1.5,33,-99.99,,,0.00,0,rob ver 1B,2013-12-12 04:03:00,
2013-12-11 21:04:00,51.0,23.0,29.62,SW,219,0.9,1.3,32,-99.99,,,0.00,0,rob ver 1B,2013-12-12 04:04:00,
2013-12-11 21:05:00,51.2,23.1,29.62,WSW,238,0.8,1.3,32,-99.99,,,0.00,0,rob ver 1B,2013-12-12 04:05:00,
2013-12-11 21:06:00,52.7,13.6,29.65,WNW,298,11.9,13.9,20,-99.99,,,0.00,0,rob ver 1A,2013-12-12 04:06:00,
2013-12-11 21:07:00,51.5,22.7,29.62,West,281,1.5,2.4,32,-99.99,,,0.00,0,rob ver 1B,2013-12-12 04:07:00,
2013-12-11 21:08:00,51.8,22.9,29.62,WNW,290,2.1,3.3,32,-99.99,,,0.00,0,rob ver 1B,2013-12-12 04:08:00,
2013-12-11 21:09:00,52.0,22.6,29.62,WNW,297,3.5,5.4,31,-99.99,,,0.00,0,rob ver 1B,2013-12-12 04:09:00,
2013-12-11 21:10:00,52.4,22.6,29.62,WNW,286,4.1,5.1,30,-99.99,,,0.00,0,rob ver 1B,2013-12-12 04:10:00,
2013-12-11 21:11:00,52.7,13.5,29.65,WNW,296,11.5,13.7,20,-99.99,,,0.00,0,rob ver 1A,2013-12-12 04:11:00,
2013-12-11 21:12:00,52.8,23.1,29.62,WNW,290,3.0,4.2,31,-99.99,,,0.00,0,rob ver 1B,2013-12-12 04:12:00,
2013-12-11 21:13:00,52.7,23.2,29.62,WNW,290,3.0,3.6,31,-99.99,,,0.00,0,rob ver 1B,2013-12-12 04:13:00,
2013-12-11 21:14:00,52.5,23.5,29.62,West,273,2.3,3.0,32,-99.99,,,0.00,0,rob ver 1B,2013-12-12 04:14:00,
2013-12-11 21:15:00,52.2,23.5,29.62,West,268,2.4,3.1,32,-99.99,,,0.00,0,rob ver 1B,2013-12-12 04:15:00,
2013-12-11 21:16:00,52.6,13.6,29.65,WNW,298,11.8,14.2,20,-99.99,,,0.00,0,rob ver 1A,2013-12-12 04:16:00,
2013-12-11 21:17:00,52.0,23.5,29.62,WNW,290,3.0,3.4,32,-99.99,,,0.00,0,rob ver 1B,2013-12-12 04:17:00,
2013-12-11 21:18:00,51.9,23.5,29.62,West,272,2.9,3.9,32,-99.99,,,0.00,0,rob ver 1B,2013-12-12 04:18:00,
2013-12-11 21:19:00,51.9,23.4,29.62,West,273,3.5,4.9,32,-99.99,,,0.00,0,rob ver 1B,2013-12-12 04:19:00,
2013-12-11 21:20:00,51.9,23.1,29.62,West,277,4.2,4.6,32,-99.99,,,0.00,0,rob ver 1B,2013-12-12 04:20:00,
2013-12-11 21:21:00,52.5,13.5,29.65,WNW,295,11.4,13.9,20,-99.99,,,0.00,0,rob ver 1A,2013-12-12 04:21:00,
2013-12-11 21:22:00,52.1,23.2,29.62,WNW,291,4.5,5.9,31,-99.99,,,0.00,0,rob ver 1B,2013-12-12 04:22:00,
2013-12-11 21:23:00,52.3,23.0,29.62,WNW,301,5.8,7.2,31,-99.99,,,0.00,0,rob ver 1B,2013-12-12 04:23:00,
2013-12-11 21:24:00,52.6,22.9,29.62,WNW,301,5.7,7.2,31,-99.99,,,0.00,0,rob ver 1B,2013-12-12 04:24:00,
2013-12-11 21:25:00,52.8,22.9,29.62,WNW,299,5.2,6.3,30,-99.99,,,0.00,0,rob ver 1B,2013-12-12 04:25:00,
2013-12-11 21:26:00,52.9,23.0,29.62,NW,304,5.3,6.4,31,-99.99,,,0.00,0,rob ver 1B,2013-12-12 04:26:00,
2013-12-11 21:27:00,52.5,13.6,29.65,WNW,290,9.6,12.2,20,-99.99,,,0.00,0,rob ver 1A,2013-12-12 04:27:00,
2013-12-11 21:28:00,52.8,23.1,29.62,NW,304,6.0,7.1,30,-99.99,,,0.00,0,rob ver 1B,2013-12-12 04:28:00,
2013-12-11 21:29:00,52.8,23.0,29.62,NW,304,6.1,7.5,30,-99.99,,,0.00,0,rob ver 1B,2013-12-12 04:29:00,
2013-12-11 21:30:00,52.8,23.1,29.62,WNW,301,5.9,6.9,31,-99.99,,,0.00,0,rob ver 1B,2013-12-12 04:30:00,
2013-12-11 21:31:00,52.8,23.0,29.62,WNW,299,6.2,7.0,31,-99.99,,,0.00,0,rob ver 1B,2013-12-12 04:31:00,
2013-12-11 21:32:00,52.3,13.6,29.65,WNW,289,9.7,11.7,20,-99.99,,,0.00,0,rob ver 1A,2013-12-12 04:32:00,
2013-12-11 21:33:00,52.8,23.1,29.62,WNW,293,5.5,6.4,31,-99.99,,,0.00,0,rob ver 1B,2013-12-12 04:33:00,
2013-12-11 21:34:00,52.7,23.2,29.62,WNW,289,5.3,6.3,31,-99.99,,,0.00,0,rob ver 1B,2013-12-12 04:34:00,
2013-12-11 21:35:00,52.6,23.4,29.62,WNW,287,5.1,5.7,31,-99.99,,,0.00,0,rob ver 1B,2013-12-12 04:35:00,
2013-12-11 21:36:00,52.5,23.3,29.62,WNW,287,5.1,5.6,31,-99.99,,,0.00,0,rob ver 1B,2013-12-12 04:36:00,
2013-12-11 21:37:00,52.2,13.7,29.65,WNW,287,9.4,11.7,21,-99.99,,,0.00,0,rob ver 1A,2013-12-12 04:37:00,
2013-12-11 21:38:00,52.4,23.3,29.62,West,276,5.0,6.4,31,-99.99,,,0.00,0,rob ver 1B,2013-12-12 04:38:00,
2013-12-11 21:39:00,52.3,23.4,29.62,West,268,4.4,5.8,32,-99.99,,,0.00,0,rob ver 1B,2013-12-12 04:39:00,
2013-12-11 21:40:00,52.1,23.6,29.62,West,265,4.1,4.7,32,-99.99,,,0.00,0,rob ver 1B,2013-12-12 04:40:00,
2013-12-11 21:41:00,51.9,23.6,29.62,West,264,3.9,4.4,33,-99.99,,,0.00,0,rob ver 1B,2013-12-12 04:41:00,
2013-12-11 21:42:00,52.1,13.7,29.65,WNW,293,10.9,12.8,21,-99.99,,,0.00,0,rob ver 1A,2013-12-12 04:42:00,
2013-12-11 21:43:00,51.6,23.3,29.62,West,279,4.7,5.1,32,-99.99,,,0.00,0,rob ver 1B,2013-12-12 04:43:00,
2013-12-11 21:44:00,51.6,23.3,29.62,West,281,4.8,5.6,32,-99.99,,,0.00,0,rob ver 1B,2013-12-12 04:44:00,
2013-12-11 21:45:00,51.7,23.2,29.62,WNW,283,4.9,5.2,32,-99.99,,,0.00,0,rob ver 1B,2013-12-12 04:45:00,
2013-12-11 21:46:00,51.9,23.2,29.62,WNW,282,4.7,5.4,32,-99.99,,,0.00,0,rob ver 1B,2013-12-12 04:46:00,
2013-12-11 21:47:00,52.1,13.7,29.65,WNW,289,10.3,13.0,21,-99.99,,,0.00,0,rob ver 1A,2013-12-12 04:47:00,
2013-12-11 21:48:00,52.1,23.2,29.62,West,279,4.4,4.8,32,-99.99,,,0.00,0,rob ver 1B,2013-12-12 04:48:00,
2013-12-11 21:49:00,52.1,23.3,29.62,West,277,4.2,4.5,32,-99.99,,,0.00,0,rob ver 1B,2013-12-12 04:49:00,
2013-12-11 21:50:00,52.0,23.5,29.62,West,276,3.8,4.2,32,-99.99,,,0.00,0,rob ver 1B,2013-12-12 04:50:00,
2013-12-11 21:51:00,51.8,23.5,29.62,West,277,3.8,4.0,32,-99.99,,,0.00,0,rob ver 1B,2013-12-12 04:51:00,
2013-12-11 21:52:00,51.7,14.0,29.65,WNW,287,9.3,11.7,21,-99.99,,,0.00,0,rob ver 1A,2013-12-12 04:52:00,
2013-12-11 21:53:00,51.5,23.8,29.62,West,262,2.7,3.0,33,-99.99,,,0.00,0,rob ver 1B,2013-12-12 04:53:00,
2013-12-11 21:54:00,51.3,23.9,29.62,West,262,2.4,2.8,34,-99.99,,,0.00,0,rob ver 1B,2013-12-12 04:54:00,
2013-12-11 21:55:00,51.0,24.1,29.62,West,264,2.3,2.7,34,-99.99,,,0.00,0,rob ver 1B,2013-12-12 04:55:00,
2013-12-11 21:56:00,50.7,23.9,29.62,West,269,2.6,2.8,34,-99.99,,,0.00,0,rob ver 1B,2013-12-12 04:56:00,
2013-12-11 21:57:00,51.5,14.0,29.65,WNW,288,9.6,11.8,22,-99.99,,,0.00,0,rob ver 1A,2013-12-12 04:57:00,
2013-12-11 21:58:00,50.4,24.5,29.62,WSW,249,2.0,2.2,36,-99.99,,,0.00,0,rob ver 1B,2013-12-12 04:58:00,
2013-12-11 21:59:00,50.3,24.7,29.62,WSW,248,2.4,2.7,36,-99.99,,,0.00,0,rob ver 1B,2013-12-12 04:59:00,
2013-12-11 22:00:00,50.2,24.8,29.62,WSW,243,2.1,2.3,37,-99.99,,,0.00,0,rob ver 1B,2013-12-12 05:00:00,
2013-12-11 22:01:00,51.5,14.1,29.65,WNW,288,10.9,13.1,21,-99.99,,,0.00,0,rob ver 1A,2013-12-12 05:01:00,
2013-12-11 22:02:00,49.9,25.1,29.62,WSW,245,1.7,2.0,37,-99.99,,,0.00,0,rob ver 1B,2013-12-12 05:02:00,
2013-12-11 22:03:00,51.5,14.0,29.65,WNW,288,10.7,13.4,22,-99.99,,,0.00,0,rob ver 1A,2013-12-12 05:03:00,
2013-12-11 22:04:00,51.5,14.0,29.65,WNW,288,10.5,13.2,22,-99.99,,,0.00,0,rob ver 1A,2013-12-12 05:04:00,
2013-12-11 22:05:00,51.5,14.1,29.65,WNW,291,10.4,12.2,22,-99.99,,,0.00,0,rob ver 1A,2013-12-12 05:05:00,
2013-12-11 22:06:00,49.4,25.4,29.62,SSE,164,1.4,1.7,39,-99.99,,,0.00,0,rob ver 1B,2013-12-12 05:06:00,
2013-12-11 22:07:00,49.3,25.6,29.62,SSE,150,1.5,1.9,39,-99.99,,,0.00,0,rob ver 1B,2013-12-12 05:07:00,
2013-12-11 22:08:00,51.4,14.0,29.65,WNW,290,10.7,12.6,22,-99.99,,,0.00,0,rob ver 1A,2013-12-12 05:08:00,
2013-12-11 22:09:00,49.0,25.5,29.62,SE,142,1.4,1.8,39,-99.99,,,0.00,0,rob ver 1B,2013-12-12 05:09:00,
2013-12-11 22:10:00,51.3,14.2,29.65,WNW,291,9.4,13.6,22,-99.99,,,0.00,0,rob ver 1A,2013-12-12 05:10:00,
2013-12-11 22:11:00,49.0,25.3,29.62,SE,139,0.7,1.1,39,-99.99,,,0.00,0,rob ver 1B,2013-12-12 05:11:00,
2013-12-11 22:12:00,49.0,25.2,29.62,SSE,148,0.6,0.8,39,-99.99,,,0.00,0,rob ver 1B,2013-12-12 05:12:00,
2013-12-11 22:13:00,49.0,25.2,29.62,South,174,0.5,0.7,38,-99.99,,,0.00,0,rob ver 1B,2013-12-12 05:13:00,
2013-12-11 22:14:00,49.1,25.2,29.62,SE,127,0.2,0.5,38,-99.99,,,0.00,0,rob ver 1B,2013-12-12 05:14:00,
2013-12-11 22:15:00,51.3,14.2,29.65,WNW,293,9.7,11.7,22,-99.99,,,0.00,0,rob ver 1A,2013-12-12 05:15:00,
2013-12-11 22:16:00,49.1,24.9,29.62,NNE,23,1.1,1.5,38,-99.99,,,0.00,0,rob ver 1B,2013-12-12 05:16:00,
2013-12-11 22:17:00,49.2,25.0,29.62,NNE,15,1.3,1.7,38,-99.99,,,0.00,0,rob ver 1B,2013-12-12 05:17:00,
2013-12-11 22:18:00,49.3,24.9,29.62,NNE,16,1.5,1.7,37,-99.99,,,0.00,0,rob ver 1B,2013-12-12 05:18:00,
2013-12-11 22:19:00,49.4,24.8,29.62,North,1,1.6,1.8,37,-99.99,,,0.00,0,rob ver 1B,2013-12-12 05:19:00,
2013-12-11 22:20:00,49.5,24.6,29.62,NNW,348,1.6,1.9,37,-99.99,,,0.00,0,rob ver 1B,2013-12-12 05:20:00,
2013-12-11 22:21:00,51.0,14.3,29.65,WNW,294,9.2,11.7,22,-99.99,,,0.00,0,rob ver 1A,2013-12-12 05:21:00,
2013-12-11 22:22:00,49.8,24.4,29.62,North,358,1.7,2.0,36,-99.99,,,0.00,0,rob ver 1B,2013-12-12 05:22:00,
2013-12-11 22:23:00,49.9,24.5,29.62,North,0,1.8,2.0,36,-99.99,,,0.00,0,rob ver 1B,2013-12-12 05:23:00,
2013-12-11 22:24:00,49.9,24.4,29.62,North,358,1.8,2.0,36,-99.99,,,0.00,0,rob ver 1B,2013-12-12 05:24:00,
2013-12-11 22:25:00,49.9,24.4,29.62,North,3,1.8,2.0,36,-99.99,,,0.00,0,rob ver 1B,2013-12-12 05:25:00,
2013-12-11 22:26:00,51.1,14.3,29.65,WNW,291,9.5,11.3,22,-99.99,,,0.00,0,rob ver 1A,2013-12-12 05:26:00,
2013-12-11 22:27:00,50.0,24.5,29.62,NNW,347,1.2,1.3,36,-99.99,,,0.00,0,rob ver 1B,2013-12-12 05:27:00,
2013-12-11 22:28:00,50.0,24.5,29.62,NNW,333,0.7,1.0,36,-99.99,,,0.00,0,rob ver 1B,2013-12-12 05:28:00,
2013-12-11 22:29:00,50.0,25.0,29.62,WNW,301,0.3,0.5,37,-99.99,,,0.00,0,rob ver 1B,2013-12-12 05:29:00,
2013-12-11 22:30:00,49.9,24.9,29.62,SW,226,0.5,0.6,37,-99.99,,,0.00,0,rob ver 1B,2013-12-12 05:30:00,
2013-12-11 22:31:00,51.1,14.2,29.65,WNW,291,10.0,12.3,22,-99.99,,,0.00,0,rob ver 1A,2013-12-12 05:31:00,
2013-12-11 22:32:00,49.7,24.6,29.62,South,191,0.6,0.6,37,-99.99,,,0.00,0,rob ver 1B,2013-12-12 05:32:00,
2013-12-11 22:33:00,49.6,24.5,29.62,SSW,203,0.8,0.9,37,-99.99,,,0.00,0,rob ver 1B,2013-12-12 05:33:00,
2013-12-11 22:34:00,49.5,24.4,29.62,SW,221,0.8,0.9,36,-99.99,,,0.00,0,rob ver 1B,2013-12-12 05:34:00,
2013-12-11 22:35:00,49.5,24.4,29.62,SW,223,0.5,0.6,37,-99.99,,,0.00,0,rob ver 1B,2013-12-12 05:35:00,
2013-12-11 22:36:00,51.5,13.7,29.65,WNW,293,12.5,15.1,21,-99.99,,,0.00,0,rob ver 1A,2013-12-12 05:36:00,
2013-12-11 22:37:00,49.5,24.3,29.62,WNW,300,0.2,0.3,36,-99.99,,,0.00,0,rob ver 1B,2013-12-12 05:37:00,
2013-12-11 22:38:00,49.5,24.2,29.62,North,11,0.4,0.6,36,-99.99,,,0.00,0,rob ver 1B,2013-12-12 05:38:00,
2013-12-11 22:39:00,49.5,24.1,29.62,NE,40,0.6,0.8,36,-99.99,,,0.00,0,rob ver 1B,2013-12-12 05:39:00,
2013-12-11 22:40:00,49.6,24.1,29.62,NNE,17,0.7,0.8,36,-99.99,,,0.00,0,rob ver 1B,2013-12-12 05:40:00,
2013-12-11 22:41:00,51.9,13.6,29.65,WNW,292,13.7,17.1,21,-99.99,,,0.00,0,rob ver 1A,2013-12-12 05:41:00,
2013-12-11 22:42:00,49.7,24.1,29.62,NNE,31,0.9,1.3,36,-99.99,,,0.00,0,rob ver 1B,2013-12-12 05:42:00,
2013-12-11 22:43:00,49.7,24.2,29.62,North,349,0.9,1.1,36,-99.99,,,0.00,0,rob ver 1B,2013-12-12 05:43:00,
2013-12-11 22:44:00,49.8,24.3,29.62,NNW,346,1.0,1.2,36,-99.99,,,0.00,0,rob ver 1B,2013-12-12 05:44:00,
2013-12-11 22:45:00,49.8,24.3,29.62,NNW,328,0.8,1.1,36,-99.99,,,0.00,0,rob ver 1B,2013-12-12 05:45:00,
2013-12-11 22:46:00,52.0,13.6,29.65,WNW,292,11.0,13.0,21,-99.99,,,0.00,0,rob ver 1A,2013-12-12 05:46:00,
2013-12-11 22:47:00,49.8,24.3,29.62,WSW,258,0.4,0.6,36,-99.99,,,0.00,0,rob ver 1B,2013-12-12 05:47:00,
2013-12-11 22:48:00,49.8,24.3,29.62,WSW,237,0.5,0.7,36,-99.99,,,0.00,0,rob ver 1B,2013-12-12 05:48:00,
2013-12-11 22:49:00,49.7,24.2,29.62,West,268,0.7,0.8,36,-99.99,,,0.00,0,rob ver 1B,2013-12-12 05:49:00,
2013-12-11 22:50:00,49.7,24.1,29.62,NW,311,0.7,0.7,36,-99.99,,,0.00,0,rob ver 1B,2013-12-12 05:50:00,
2013-12-11 22:51:00,51.7,13.7,29.65,WNW,294,11.1,13.3,21,-99.99,,,0.00,0,rob ver 1A,2013-12-12 05:51:00,
2013-12-11 22:52:00,49.7,24.5,29.62,North,5,1.3,1.6,37,-99.99,,,0.00,0,rob ver 1B,2013-12-12 05:52:00,
2013-12-11 22:53:00,49.7,24.5,29.62,North,6,1.8,2.1,36,-99.99,,,0.00,0,rob ver 1B,2013-12-12 05:53:00,
2013-12-11 22:54:00,49.8,24.5,29.62,NNE,17,2.3,2.6,36,-99.99,,,0.00,0,rob ver 1B,2013-12-12 05:54:00,
2013-12-11 22:55:00,49.7,24.7,29.62,NNE,21,2.9,3.1,37,-99.99,,,0.00,0,rob ver 1B,2013-12-12 05:55:00,
2013-12-11 22:56:00,51.8,13.6,29.65,WNW,292,12.1,14.4,21,-99.99,,,0.00,0,rob ver 1A,2013-12-12 05:56:00,
2013-12-11 22:57:00,49.7,24.9,29.62,NNE,28,3.0,3.2,37,-99.99,,,0.00,0,rob ver 1B,2013-12-12 05:57:00,
2013-12-11 22:58:00,49.7,24.6,29.62,NNE,19,3.0,3.3,36,-99.99,,,0.00,0,rob ver 1B,2013-12-12 05:58:00,
2013-12-11 22:59:00,49.9,24.3,29.62,NNE,15,3.0,3.2,36,-99.99,,,0.00,0,rob ver 1B,2013-12-12 05:59:00,
2013-12-11 23:00:00,50.1,24.3,29.62,North,10,2.7,3.1,35,-99.99,,,0.00,0,rob ver 1B,2013-12-12 06:00:00,
2013-12-11 23:01:00,51.6,13.8,29.65,WNW,292,11.4,14.2,21,-99.99,,,0.00,0,rob ver 1A,2013-12-12 06:01:00,
2013-12-11 23:02:00,50.0,24.8,29.62,NNW,348,1.9,2.1,36,-99.99,,,0.00,0,rob ver 1B,2013-12-12 06:02:00,
2013-12-11 23:03:00,50.0,24.2,29.62,NNW,340,1.6,1.7,36,-99.99,,,0.00,0,rob ver 1B,2013-12-12 06:03:00,
2013-12-11 23:04:00,50.0,24.0,29.62,NNW,337,1.4,1.6,35,-99.99,,,0.00,0,rob ver 1B,2013-12-12 06:04:00,
2013-12-11 23:05:00,50.1,23.5,29.62,NNW,338,1.5,1.6,34,-99.99,,,0.00,0,rob ver 1B,2013-12-12 06:05:00,
2013-12-11 23:06:00,51.4,13.9,29.65,WNW,286,10.8,13.6,21,-99.99,,,0.00,0,rob ver 1A,2013-12-12 06:06:00,
2013-12-11 23:07:00,50.4,23.5,29.62,NNW,329,1.8,1.9,34,-99.99,,,0.00,0,rob ver 1B,2013-12-12 06:07:00,
2013-12-11 23:08:00,50.6,23.5,29.62,NW,325,1.7,1.9,34,-99.99,,,0.00,0,rob ver 1B,2013-12-12 06:08:00,
2013-12-11 23:09:00,50.7,23.5,29.62,NW,321,1.6,1.8,34,-99.99,,,0.00,0,rob ver 1B,2013-12-12 06:09:00,
2013-12-11 23:10:00,50.8,23.5,29.62,NW,314,1.5,1.7,33,-99.99,,,0.00,0,rob ver 1B,2013-12-12 06:10:00,
2013-12-11 23:11:00,51.0,14.1,29.65,WNW,289,10.9,13.8,22,-99.99,,,0.00,0,rob ver 1A,2013-12-12 06:11:00,
2013-12-11 23:12:00,50.9,23.5,29.62,NW,319,1.5,1.7,33,-99.99,,,0.00,0,rob ver 1B,2013-12-12 06:12:00,
2013-12-11 23:13:00,50.9,23.5,29.62,NNW,328,1.1,1.3,34,-99.99,,,0.00,0,rob ver 1B,2013-12-12 06:13:00,
2013-12-11 23:14:00,50.9,23.5,29.62,NW,326,1.1,1.3,34,-99.99,,,0.00,0,rob ver 1B,2013-12-12 06:14:00,
2013-12-11 23:15:00,50.9,23.6,29.62,NNW,330,1.3,1.5,34,-99.99,,,0.00,0,rob ver 1B,2013-12-12 06:15:00,
2013-12-11 23:16:00,50.9,23.6,29.62,NW,323,1.2,1.3,34,-99.99,,,0.00,0,rob ver 1B,2013-12-12 06:16:00,
2013-12-11 23:17:00,50.8,14.1,29.65,WNW,293,10.7,12.0,22,-99.99,,,0.00,0,rob ver 1A,2013-12-12 06:17:00,
2013-12-11 23:18:00,50.8,23.7,29.62,NNW,338,0.5,0.7,34,-99.99,,,0.00,0,rob ver 1B,2013-12-12 06:18:00,
2013-12-11 23:19:00,50.7,25.7,29.62,SE,126,1.3,1.8,38,-99.99,,,0.00,0,rob ver 1B,2013-12-12 06:19:00,
2013-12-11 23:20:00,50.1,25.8,29.62,SE,146,1.3,1.7,39,-99.99,,,0.00,0,rob ver 1B,2013-12-12 06:20:00,
2013-12-11 23:21:00,49.6,26.3,29.62,SE,136,1.7,1.9,40,-99.99,,,0.00,0,rob ver 1B,2013-12-12 06:21:00,
2013-12-11 23:22:00,50.7,14.1,29.65,WNW,294,11.1,13.9,22,-99.99,,,0.00,0,rob ver 1A,2013-12-12 06:22:00,
2013-12-11 23:23:00,48.7,26.0,29.62,ESE,111,2.1,2.6,41,-99.99,,,0.00,0,rob ver 1B,2013-12-12 06:23:00,
2013-12-11 23:24:00,48.4,26.2,29.62,East,98,2.6,2.9,42,-99.99,,,0.00,0,rob ver 1B,2013-12-12 06:24:00,
2013-12-11 23:25:00,48.0,26.5,29.62,East,96,2.7,2.9,43,-99.99,,,0.00,0,rob ver 1B,2013-12-12 06:25:00,
2013-12-11 23:26:00,47.8,26.5,29.62,East,97,2.3,2.7,43,-99.99,,,0.00,0,rob ver 1B,2013-12-12 06:26:00,
2013-12-11 23:27:00,50.5,14.2,29.65,WNW,297,11.4,13.6,22,-99.99,,,0.00,0,rob ver 1A,2013-12-12 06:27:00,
2013-12-11 23:28:00,47.7,26.2,29.62,ENE,76,1.6,1.9,43,-99.99,,,0.00,0,rob ver 1B,2013-12-12 06:28:00,
2013-12-11 23:29:00,47.7,26.3,29.62,ENE,62,1.9,2.0,42,-99.99,,,0.00,0,rob ver 1B,2013-12-12 06:29:00,
2013-12-11 23:30:00,47.7,25.8,29.62,ENE,57,2.3,3.0,42,-99.99,,,0.00,0,rob ver 1B,2013-12-12 06:30:00,
2013-12-11 23:31:00,47.8,26.0,29.62,NE,54,3.0,3.4,42,-99.99,,,0.00,0,rob ver 1B,2013-12-12 06:31:00,
2013-12-11 23:32:00,50.5,14.1,29.65,WNW,295,10.5,12.3,23,-99.99,,,0.00,0,rob ver 1A,2013-12-12 06:32:00,
2013-12-11 23:33:00,47.8,26.0,29.62,NE,47,2.9,3.1,42,-99.99,,,0.00,0,rob ver 1B,2013-12-12 06:33:00,
2013-12-11 23:34:00,47.8,25.8,29.62,NE,42,2.7,3.0,41,-99.99,,,0.00,0,rob ver 1B,2013-12-12 06:34:00,
2013-12-11 23:35:00,47.8,25.8,29.59,NE,38,2.6,2.8,41,-99.99,,,0.00,0,rob ver 1B,2013-12-12 06:35:00,
2013-12-11 23:36:00,47.9,25.8,29.59,NE,34,2.3,2.7,41,-99.99,,,0.00,0,rob ver 1B,2013-12-12 06:36:00,
2013-12-11 23:37:00,50.9,14.0,29.65,WNW,295,12.0,15.9,22,-99.99,,,0.00,0,rob ver 1A,2013-12-12 06:37:00,
2013-12-11 23:38:00,48.2,25.7,29.62,NNE,20,1.8,2.0,41,-99.99,,,0.00,0,rob ver 1B,2013-12-12 06:38:00,
2013-12-11 23:39:00,48.4,25.6,29.62,North,6,1.9,2.1,40,-99.99,,,0.00,0,rob ver 1B,2013-12-12 06:39:00,
2013-12-11 23:40:00,48.6,25.5,29.62,North,0,2.2,2.4,39,-99.99,,,0.00,0,rob ver 1B,2013-12-12 06:40:00,
2013-12-11 23:41:00,48.8,25.4,29.62,North,3,2.4,2.6,39,-99.99,,,0.00,0,rob ver 1B,2013-12-12 06:41:00,
2013-12-11 23:42:00,51.0,14.1,29.65,WNW,300,11.3,13.7,22,-99.99,,,0.00,0,rob ver 1A,2013-12-12 06:42:00,
2013-12-11 23:43:00,48.6,25.5,29.62,North,11,2.7,3.0,40,-99.99,,,0.00,0,rob ver 1B,2013-12-12 06:43:00,
2013-12-11 23:44:00,48.6,25.5,29.62,NNE,12,2.8,3.0,40,-99.99,,,0.00,0,rob ver 1B,2013-12-12 06:44:00,
2013-12-11 23:45:00,48.6,25.6,29.62,North,9,2.3,2.7,40,-99.99,,,0.00,0,rob ver 1B,2013-12-12 06:45:00,
2013-12-11 23:46:00,48.6,25.6,29.59,North,8,2.0,2.3,40,-99.99,,,0.00,0,rob ver 1B,2013-12-12 06:46:00,
2013-12-11 23:47:00,50.8,14.1,29.65,WNW,292,11.1,13.8,22,-99.99,,,0.00,0,rob ver 1A,2013-12-12 06:47:00,
2013-12-11 23:48:00,48.6,25.4,29.62,North,349,1.2,1.4,40,-99.99,,,0.00,0,rob ver 1B,2013-12-12 06:48:00,
2013-12-11 23:49:00,48.6,25.4,29.59,NW,322,0.8,1.0,40,-99.99,,,0.00,0,rob ver 1B,2013-12-12 06:49:00,
2013-12-11 23:50:00,48.6,25.5,29.62,WNW,301,0.9,1.1,40,-99.99,,,0.00,0,rob ver 1B,2013-12-12 06:50:00,
2013-12-11 23:51:00,48.6,25.6,29.59,WNW,286,0.8,1.0,40,-99.99,,,0.00,0,rob ver 1B,2013-12-12 06:51:00,
2013-12-11 23:52:00,50.7,14.4,29.65,WNW,296,10.3,12.8,23,-99.99,,,0.00,0,rob ver 1A,2013-12-12 06:52:00,
2013-12-11 23:53:00,48.4,26.4,29.59,SW,234,0.2,0.5,42,-99.99,,,0.00,0,rob ver 1B,2013-12-12 06:53:00,
2013-12-11 23:54:00,48.3,26.4,29.59,NNW,338,0.2,0.5,42,-99.99,,,0.00,0,rob ver 1B,2013-12-12 06:54:00,
2013-12-11 23:55:00,48.1,26.4,29.59,NNW,336,0.3,0.5,42,-99.99,,,0.00,0,rob ver 1B,2013-12-12 06:55:00,
2013-12-11 23:56:00,48.0,26.3,29.59,NW,323,0.1,0.3,42,-99.99,,,0.00,0,rob ver 1B,2013-12-12 06:56:00,
2013-12-11 23:57:00,50.6,14.3,29.65,WNW,296,12.1,14.3,23,-99.99,,,0.00,0,rob ver 1A,2013-12-12 06:57:00,
2013-12-11 23:58:00,47.7,26.4,29.59,WSW,256,0.9,1.5,43,-99.99,,,0.00,0,rob ver 1B,2013-12-12 06:58:00,
2013-12-11 23:59:00,47.5,26.6,29.59,WSW,241,0.8,1.3,44,-99.99,,,0.00,0,rob ver 1B,2013-12-12 06:59:00,